[[{"header":{"parameterUnit":"m.s-1","parameterCategory":1,"la1":30.6,"la2":29.2853,"lo1":-89.7004,"lo2":-87.6739,"dy":0.0162,"dx":0.0183,"nx":112,"ny":82,"refTime":"2023-06-03T12:00:00:Z","depth":0,"parameterNumber":2,"parameterNumberName":"U-component_of_WINDS"},"data":[0.0,0.0,0.0,0.0,0.0,0.0,0.0,0.0,0.0,0.0,0.0,0.0,0.0,0.0,0.0,0.0,0.0,0.0,0.0,0.0,0.0,0.0,0.0,0.0,0.0,0.0,0.0,0.0,0.0,0.0,0.0,0.0,0.0,0.0,0.0,0.0,0.0,0.0,0.0,0.0,0.0,0.0,0.0,0.0,0.0,0.0,0.0,0.0,0.0,0.0,0.0,0.0,0.0,0.0,0.0,0.0,0.0,0.0,0.0,0.0,0.0,0.0,0.0,0.0,0.0,0.0,0.0,0.0,0.0,0.0,0.0,0.0,0.0,0.0,0.0,0.0,0.0,0.0,0.0,0.0,0.0,0.0,0.0,0.0,0.0,0.0,0.0,0.0,0.0,0.0,-3.2955,-3.3939,-3.64,-3.8469,-3.9788,-3.9431,-3.8023,-3.5382,0.0,0.0,0.0,0.0,0.0,0.0,0.0,0.0,0.0,0.0,0.0,0.0,0.0,0.0,0.0,0.0,0.0,0.0,0.0,0.0,0.0,0.0,0.0,0.0,0.0,0.0,0.0,0.0,0.0,0.0,0.0,0.0,0.0,0.0,0.0,0.0,0.0,0.0,0.0,0.0,0.0,0.0,0.0,0.0,0.0,0.0,0.0,0.0,0.0,0.0,0.0,0.0,0.0,0.0,0.0,0.0,0.0,0.0,0.0,0.0,0.0,0.0,0.0,0.0,0.0,0.0,0.0,0.0,0.0,0.0,0.0,0.0,0.0,0.0,0.0,0.0,0.0,0.0,0.0,0.0,0.0,0.0,0.0,0.0,0.0,0.0,0.0,0.0,0.0,0.0,0.0,0.0,0.0,0.0,0.0,0.0,0.0,0.0,0.0,0.0,0.0,0.0,0.0,0.0,-3.1473,-3.4362,-3.7609,-3.9645,-3.9877,-4.0431,-3.9165,-3.5453,0.0,0.0,0.0,0.0,0.0,0.0,0.0,0.0,0.0,0.0,0.0,0.0,0.0,0.0,0.0,0.0,0.0,0.0,0.0,0.0,0.0,0.0,0.0,0.0,0.0,0.0,0.0,0.0,0.0,0.0,0.0,0.0,0.0,0.0,0.0,0.0,0.0,0.0,0.0,0.0,0.0,0.0,0.0,0.0,0.0,0.0,0.0,0.0,0.0,0.0,0.0,0.0,0.0,0.0,0.0,0.0,0.0,0.0,0.0,0.0,0.0,0.0,0.0,0.0,0.0,0.0,0.0,0.0,0.0,0.0,0.0,0.0,0.0,0.0,0.0,0.0,0.0,0.0,0.0,0.0,0.0,0.0,0.0,0.0,0.0,0.0,0.0,0.0,0.0,0.0,0.0,0.0,0.0,0.0,0.0,0.0,0.0,0.0,0.0,0.0,0.0,0.0,0.0,-3.1852,-3.3314,-3.5732,-3.824,-3.9955,-4.0501,-4.0503,-3.895,-3.5418,-3.4509,0.0,0.0,0.0,0.0,0.0,0.0,0.0,0.0,0.0,0.0,0.0,0.0,0.0,0.0,0.0,0.0,0.0,0.0,0.0,0.0,0.0,0.0,0.0,0.0,0.0,0.0,0.0,0.0,0.0,0.0,0.0,0.0,0.0,0.0,0.0,0.0,0.0,0.0,0.0,0.0,0.0,0.0,0.0,0.0,0.0,0.0,0.0,0.0,0.0,0.0,0.0,0.0,0.0,0.0,0.0,0.0,0.0,0.0,0.0,0.0,0.0,0.0,0.0,0.0,0.0,0.0,0.0,0.0,0.0,0.0,0.0,0.0,0.0,0.0,0.0,0.0,0.0,0.0,0.0,0.0,0.0,0.0,0.0,0.0,0.0,0.0,0.0,0.0,0.0,0.0,0.0,0.0,0.0,0.0,0.0,0.0,0.0,0.0,0.0,0.0,0.0,0.0,-3.3688,-3.5074,-3.6268,-3.8045,-3.9572,-4.0653,-4.0174,-3.8591,-3.5668,-3.4615,0.0,0.0,0.0,0.0,0.0,0.0,0.0,0.0,0.0,0.0,0.0,0.0,0.0,0.0,0.0,0.0,0.0,0.0,0.0,0.0,0.0,0.0,0.0,0.0,0.0,0.0,0.0,0.0,0.0,0.0,0.0,0.0,0.0,0.0,0.0,0.0,0.0,0.0,0.0,0.0,0.0,0.0,0.0,0.0,0.0,0.0,0.0,0.0,0.0,0.0,0.0,0.0,0.0,0.0,0.0,0.0,0.0,0.0,0.0,0.0,0.0,0.0,0.0,0.0,0.0,0.0,0.0,0.0,0.0,0.0,0.0,0.0,0.0,0.0,0.0,0.0,0.0,0.0,0.0,0.0,0.0,0.0,0.0,0.0,0.0,0.0,0.0,0.0,0.0,0.0,0.0,0.0,0.0,0.0,0.0,0.0,0.0,0.0,0.0,0.0,0.0,0.0,-3.2964,-3.4895,-3.4701,-3.6513,-3.8276,-3.958,-3.9638,-3.8688,-3.6453,-3.4918,0.0,0.0,0.0,0.0,0.0,0.0,0.0,0.0,0.0,0.0,0.0,0.0,0.0,0.0,0.0,0.0,0.0,0.0,0.0,0.0,0.0,0.0,0.0,0.0,0.0,0.0,0.0,0.0,0.0,0.0,0.0,0.0,0.0,0.0,0.0,0.0,0.0,0.0,0.0,0.0,0.0,0.0,0.0,0.0,0.0,0.0,0.0,0.0,0.0,0.0,0.0,0.0,0.0,0.0,0.0,0.0,0.0,0.0,0.0,0.0,0.0,0.0,0.0,0.0,0.0,0.0,0.0,0.0,0.0,0.0,0.0,0.0,0.0,0.0,0.0,0.0,0.0,0.0,0.0,0.0,0.0,0.0,0.0,0.0,0.0,0.0,0.0,0.0,0.0,0.0,0.0,0.0,0.0,0.0,0.0,0.0,0.0,0.0,0.0,0.0,0.0,0.0,-3.2952,-3.4536,-3.5455,-3.6475,-3.7531,-3.8625,-3.915,-3.8185,-3.5324,0.0,0.0,0.0,0.0,0.0,0.0,0.0,0.0,0.0,0.0,0.0,0.0,0.0,0.0,0.0,0.0,0.0,0.0,0.0,0.0,0.0,0.0,0.0,0.0,0.0,0.0,0.0,0.0,0.0,0.0,0.0,0.0,0.0,0.0,0.0,0.0,0.0,0.0,0.0,0.0,0.0,0.0,0.0,0.0,0.0,0.0,0.0,0.0,0.0,0.0,0.0,0.0,0.0,0.0,0.0,0.0,0.0,0.0,0.0,0.0,0.0,0.0,0.0,0.0,0.0,0.0,0.0,0.0,0.0,0.0,0.0,0.0,0.0,0.0,0.0,0.0,0.0,0.0,0.0,0.0,0.0,0.0,0.0,0.0,0.0,0.0,0.0,0.0,0.0,0.0,0.0,0.0,0.0,0.0,0.0,0.0,0.0,0.0,0.0,0.0,0.0,0.0,-3.1882,-3.3068,-3.4305,-3.5592,-3.5984,-3.658,-3.7621,-3.8167,-3.7312,-3.4683,0.0,0.0,0.0,0.0,0.0,0.0,0.0,0.0,0.0,0.0,0.0,0.0,0.0,0.0,0.0,0.0,0.0,0.0,0.0,0.0,0.0,0.0,0.0,0.0,0.0,0.0,0.0,0.0,0.0,0.0,0.0,0.0,0.0,0.0,0.0,0.0,0.0,0.0,0.0,0.0,0.0,0.0,0.0,0.0,0.0,0.0,0.0,0.0,0.0,0.0,0.0,0.0,0.0,0.0,0.0,0.0,0.0,0.0,0.0,0.0,0.0,0.0,0.0,0.0,0.0,0.0,0.0,0.0,0.0,0.0,0.0,0.0,0.0,0.0,0.0,0.0,0.0,0.0,0.0,0.0,0.0,0.0,0.0,0.0,0.0,0.0,0.0,0.0,0.0,0.0,0.0,0.0,0.0,0.0,0.0,0.0,0.0,0.0,0.0,0.0,0.0,0.0,-3.2012,-3.3226,-3.4234,-3.4643,-3.4691,-3.5226,-3.6575,-3.6637,-3.6079,0.0,0.0,0.0,0.0,0.0,0.0,0.0,0.0,0.0,0.0,0.0,0.0,0.0,0.0,0.0,0.0,0.0,0.0,0.0,0.0,0.0,0.0,0.0,0.0,0.0,0.0,0.0,0.0,0.0,0.0,0.0,0.0,0.0,0.0,0.0,0.0,0.0,0.0,0.0,0.0,0.0,0.0,0.0,0.0,0.0,0.0,0.0,0.0,0.0,0.0,0.0,0.0,0.0,0.0,0.0,0.0,0.0,0.0,0.0,0.0,0.0,0.0,0.0,0.0,0.0,0.0,0.0,0.0,0.0,0.0,0.0,0.0,0.0,0.0,0.0,0.0,0.0,0.0,0.0,0.0,0.0,0.0,0.0,0.0,0.0,0.0,0.0,0.0,0.0,0.0,0.0,0.0,0.0,0.0,0.0,0.0,0.0,0.0,0.0,0.0,0.0,0.0,0.0,-3.1901,-3.2301,-3.2985,-3.4161,-3.3836,-3.3917,-3.4808,-3.5801,-3.5498,-3.3455,0.0,0.0,0.0,0.0,0.0,0.0,0.0,0.0,0.0,0.0,0.0,0.0,0.0,0.0,0.0,0.0,0.0,0.0,0.0,0.0,0.0,0.0,0.0,0.0,0.0,0.0,0.0,0.0,0.0,0.0,0.0,0.0,0.0,0.0,0.0,0.0,0.0,0.0,0.0,0.0,0.0,0.0,0.0,0.0,0.0,0.0,0.0,0.0,0.0,0.0,0.0,0.0,0.0,0.0,0.0,0.0,0.0,0.0,0.0,0.0,0.0,0.0,0.0,0.0,0.0,0.0,0.0,0.0,0.0,0.0,0.0,0.0,0.0,0.0,0.0,0.0,0.0,0.0,0.0,0.0,0.0,0.0,0.0,0.0,0.0,0.0,0.0,0.0,0.0,0.0,0.0,0.0,0.0,0.0,0.0,0.0,0.0,0.0,0.0,0.0,0.0,0.0,-3.1085,-3.1597,-3.2304,-3.3381,-3.3157,-3.3128,-3.3739,-3.4951,-3.451,-3.1716,0.0,0.0,0.0,0.0,0.0,0.0,0.0,0.0,0.0,0.0,0.0,0.0,0.0,0.0,0.0,0.0,0.0,0.0,0.0,0.0,0.0,0.0,0.0,0.0,0.0,0.0,0.0,0.0,0.0,0.0,0.0,0.0,0.0,0.0,0.0,0.0,0.0,0.0,0.0,0.0,0.0,0.0,0.0,0.0,0.0,0.0,0.0,0.0,0.0,0.0,0.0,0.0,0.0,0.0,0.0,0.0,0.0,0.0,0.0,0.0,0.0,0.0,0.0,0.0,0.0,0.0,0.0,0.0,0.0,0.0,0.0,0.0,0.0,0.0,0.0,0.0,0.0,0.0,0.0,0.0,0.0,0.0,0.0,0.0,0.0,0.0,0.0,0.0,0.0,0.0,0.0,0.0,0.0,0.0,0.0,0.0,0.0,0.0,0.0,0.0,0.0,0.0,-2.9951,-3.1046,-3.1975,-3.2477,-3.2532,-3.2711,-3.3118,-3.4043,-3.324,-3.0005,0.0,0.0,0.0,0.0,0.0,0.0,0.0,0.0,0.0,0.0,0.0,0.0,0.0,0.0,0.0,0.0,0.0,0.0,0.0,0.0,0.0,0.0,0.0,0.0,0.0,0.0,0.0,0.0,0.0,0.0,0.0,0.0,0.0,0.0,0.0,0.0,0.0,0.0,0.0,0.0,0.0,0.0,0.0,0.0,0.0,0.0,0.0,0.0,0.0,0.0,0.0,0.0,0.0,0.0,0.0,0.0,0.0,0.0,0.0,0.0,-3.5667,-3.5102,0.0,0.0,0.0,0.0,0.0,0.0,0.0,0.0,0.0,0.0,0.0,0.0,0.0,0.0,0.0,0.0,0.0,0.0,0.0,0.0,0.0,0.0,0.0,0.0,0.0,0.0,0.0,0.0,0.0,0.0,0.0,0.0,0.0,0.0,0.0,0.0,0.0,0.0,0.0,0.0,-3.0513,-3.0798,-3.1246,-3.1975,-3.2059,-3.2086,-3.2185,-3.288,-3.2342,-3.002,-3.0377,0.0,0.0,0.0,0.0,0.0,0.0,0.0,0.0,0.0,0.0,0.0,0.0,0.0,0.0,0.0,0.0,0.0,0.0,0.0,0.0,0.0,0.0,0.0,0.0,0.0,0.0,0.0,0.0,0.0,0.0,0.0,0.0,0.0,0.0,0.0,0.0,0.0,0.0,0.0,0.0,0.0,0.0,0.0,0.0,0.0,0.0,0.0,0.0,0.0,0.0,0.0,0.0,0.0,0.0,0.0,0.0,0.0,0.0,0.0,-3.6998,-3.6352,0.0,0.0,0.0,0.0,0.0,0.0,0.0,0.0,0.0,0.0,0.0,0.0,0.0,0.0,0.0,0.0,0.0,0.0,0.0,0.0,0.0,0.0,0.0,0.0,0.0,0.0,0.0,0.0,0.0,0.0,0.0,0.0,0.0,0.0,0.0,0.0,0.0,0.0,0.0,0.0,-2.9725,-2.9999,-3.0434,-3.1072,-3.1131,-3.1218,-3.145,-3.1908,-3.1353,-2.9389,-2.9701,0.0,0.0,0.0,0.0,0.0,0.0,0.0,0.0,0.0,0.0,0.0,0.0,0.0,0.0,0.0,0.0,0.0,0.0,0.0,0.0,0.0,0.0,0.0,0.0,0.0,0.0,0.0,0.0,0.0,0.0,0.0,0.0,0.0,0.0,0.0,0.0,0.0,0.0,0.0,0.0,0.0,0.0,0.0,0.0,0.0,0.0,0.0,0.0,0.0,0.0,0.0,0.0,0.0,-3.9025,-3.9889,-4.0531,-3.9966,-3.9909,-4.0105,-3.8642,-3.808,-3.8237,-3.7631,0.0,0.0,0.0,0.0,0.0,0.0,0.0,0.0,0.0,0.0,0.0,0.0,0.0,0.0,0.0,0.0,0.0,0.0,0.0,0.0,0.0,0.0,-2.8703,-2.8277,-2.8259,-2.8119,-2.7459,0.0,0.0,0.0,0.0,0.0,0.0,0.0,0.0,0.0,0.0,0.0,-2.8858,-2.9293,-2.9758,-3.0144,-3.0174,-3.0342,-3.0732,-3.0955,-3.0382,-2.8727,-2.918,-2.8583,0.0,0.0,0.0,0.0,0.0,0.0,0.0,0.0,0.0,0.0,0.0,0.0,0.0,0.0,0.0,0.0,0.0,0.0,0.0,0.0,0.0,0.0,0.0,0.0,0.0,0.0,0.0,0.0,0.0,0.0,0.0,0.0,-3.0737,-3.209,0.0,0.0,0.0,0.0,0.0,0.0,0.0,0.0,0.0,0.0,0.0,0.0,0.0,-3.7016,-3.801,-3.8875,-3.9337,-3.9429,-4.0685,-4.1043,-4.0674,-4.0589,-4.0562,-4.0562,-3.9812,0.0,-3.8981,-3.7879,0.0,0.0,0.0,0.0,0.0,0.0,0.0,0.0,0.0,0.0,0.0,0.0,0.0,0.0,0.0,0.0,0.0,0.0,0.0,0.0,0.0,0.0,-2.792,-2.7394,-2.7616,-2.7941,-2.7838,-2.7767,-2.773,-2.7756,-2.7512,-2.7545,0.0,0.0,0.0,0.0,0.0,0.0,-2.949,-2.956,-2.9634,-2.9696,-2.9696,-2.9727,-2.9789,-2.9806,-2.9509,-2.8725,-2.8292,-2.7982,-2.7741,-2.6728,0.0,0.0,0.0,0.0,0.0,0.0,0.0,0.0,0.0,0.0,0.0,0.0,0.0,0.0,0.0,0.0,0.0,0.0,0.0,0.0,0.0,0.0,0.0,0.0,0.0,0.0,0.0,0.0,0.0,-3.0451,-3.2038,-3.1872,-3.2856,-3.3066,0.0,0.0,0.0,0.0,0.0,0.0,0.0,0.0,0.0,-3.6338,-3.7672,-3.852,-3.8771,-4.0103,-4.0774,-4.0788,-4.1732,-4.2022,-4.1741,-4.1376,-4.1404,-4.1727,-4.1081,-4.0704,-4.0455,-3.9211,-3.8306,-3.7672,0.0,0.0,0.0,0.0,-3.4433,-3.4257,-3.3741,-3.3586,-3.3445,-3.2526,0.0,0.0,0.0,0.0,0.0,0.0,0.0,-2.9184,-2.7901,-2.7722,-2.7727,-2.7277,-2.7354,-2.7516,-2.7516,-2.7569,-2.7675,-2.7927,-2.797,-2.8254,-2.9106,-2.8358,0.0,0.0,0.0,-2.8302,-2.8882,-2.8717,-2.8675,-2.9004,-2.9035,-2.9099,-2.9289,-2.932,-2.9272,-2.9223,-2.8956,-2.8523,-2.7907,-2.7414,-2.6849,0.0,0.0,0.0,0.0,0.0,0.0,0.0,0.0,0.0,0.0,0.0,0.0,0.0,0.0,0.0,0.0,0.0,0.0,0.0,0.0,0.0,0.0,0.0,0.0,0.0,0.0,0.0,0.0,-3.2092,-3.3276,-3.174,-3.3585,-3.4172,0.0,0.0,0.0,0.0,0.0,0.0,-3.6432,-3.8005,-3.8505,-3.7586,-3.9099,-3.9849,-3.9605,-4.1095,-4.1938,-4.2107,-4.2739,-4.2964,-4.2795,-4.2149,-4.2036,-4.2289,-4.1488,-4.1235,-4.1307,-4.0176,-3.9082,-3.7996,-3.7234,-3.6447,-3.5761,-3.5337,-3.4992,-3.4753,-3.4894,-3.4752,-3.4302,-3.2927,-3.2098,-3.1289,-2.9427,0.0,0.0,0.0,0.0,-2.89,-2.7903,-2.7654,-2.7565,-2.729,-2.719,-2.719,-2.719,-2.7371,-2.7596,-2.7894,-2.8035,-2.8424,-2.9301,-2.8415,0.0,-2.9324,-2.8226,-2.7524,-2.8213,-2.7954,-2.7808,-2.8137,-2.8157,-2.8254,-2.8514,-2.8546,-2.8697,-2.9086,-2.91,-2.862,-2.7563,-2.7657,-2.6976,-2.5326,0.0,0.0,0.0,0.0,0.0,0.0,0.0,0.0,0.0,0.0,0.0,0.0,0.0,0.0,0.0,0.0,0.0,0.0,0.0,0.0,0.0,0.0,0.0,0.0,0.0,0.0,0.0,0.0,0.0,-3.2843,-3.4984,0.0,0.0,0.0,0.0,-3.6071,-3.6654,-3.7436,-3.8688,-3.9351,-3.9703,-3.9633,-4.0294,-4.0927,-4.1474,-4.2177,-4.2823,-4.3413,-4.4031,-4.4017,-4.3427,-4.2809,-4.2219,-4.1587,-4.0393,-4.021,-4.0688,-4.0055,-3.9436,-3.8732,-3.7493,-3.6282,-3.524,-3.5231,-3.4436,-3.3459,-3.4048,-3.3555,-3.2726,-3.3327,-3.2115,-3.0226,-2.9498,-2.9258,0.0,0.0,-2.8256,-2.8485,-2.7487,-2.7226,-2.7237,-2.7219,-2.719,-2.719,-2.719,-2.7371,-2.751,-2.7516,-2.7355,-2.7394,-2.8069,0.0,-2.7582,-2.8346,-2.8403,-2.8163,-2.7796,-2.7707,-2.7511,-2.7048,-2.6984,-2.6984,-2.7018,-2.7018,-2.7228,-2.776,-2.7798,-2.7481,-2.6764,-2.6953,-2.6557,-2.5504,-2.5183,0.0,0.0,0.0,0.0,0.0,0.0,0.0,0.0,0.0,0.0,0.0,0.0,0.0,0.0,0.0,0.0,0.0,0.0,0.0,0.0,0.0,0.0,0.0,0.0,0.0,0.0,0.0,0.0,-3.3333,-3.5308,0.0,-3.5165,-3.5345,-3.6054,-3.7436,-3.835,-3.8919,-3.909,-4.0014,-4.0209,-3.9518,-4.0052,-4.0642,-4.1116,-4.2189,-4.2803,-4.2921,-4.3526,-4.3076,-4.1685,-4.0875,-3.9977,-3.8899,-3.7905,-3.7623,-3.7782,-3.7769,-3.8435,-3.9325,-3.7731,-3.6414,-3.528,-3.4138,-3.3209,-3.2558,-3.2758,-3.279,-3.2631,-3.1943,-3.0487,-2.8911,-2.8306,-2.8032,-2.7846,-2.7512,-2.7572,-2.7632,-2.7301,-2.719,-2.719,-2.719,-2.719,-2.719,-2.719,-2.726,-2.7301,-2.7301,-2.7354,-2.7603,-2.8373,-2.7523,-2.7192,-2.8393,-2.75,-2.6836,-2.7369,-2.6871,-2.655,-2.6696,-2.6429,-2.6343,-2.6557,-2.6864,-2.7059,-2.7169,-2.786,-2.7681,-2.6297,-2.6704,-2.6271,-2.4809,-2.4659,-2.4507,0.0,0.0,0.0,0.0,0.0,0.0,0.0,0.0,0.0,0.0,0.0,0.0,0.0,0.0,0.0,0.0,0.0,0.0,0.0,0.0,0.0,0.0,0.0,0.0,0.0,-3.3345,-3.459,-3.3666,-3.5711,-3.6905,-3.6157,-3.6456,-3.7339,-3.8918,-3.972,-4.0255,-4.0426,-4.1141,-4.1041,-3.9822,-4.0429,-4.0662,-4.0522,-4.1385,-4.1775,-4.1714,-4.1854,-4.1141,-3.9731,-3.915,-3.8225,-3.7004,-3.624,-3.59,-3.597,-3.5919,-3.6968,-3.8447,-3.715,-3.5891,-3.4681,-3.3187,-3.2257,-3.1662,-3.1343,-3.1504,-3.1593,-3.0219,-2.8929,-2.7874,-2.7516,-2.7301,-2.719,-2.719,-2.719,-2.719,-2.719,-2.719,-2.719,-2.719,-2.719,-2.719,-2.719,-2.719,-2.719,-2.719,-2.7301,-2.7563,-2.8119,-2.7392,-2.7059,-2.8072,-2.706,-2.6396,-2.6968,-2.6444,-2.6101,-2.6283,-2.6021,-2.5864,-2.5895,-2.6347,-2.6578,-2.6507,-2.721,-2.71,-2.5943,-2.6344,-2.6017,-2.4828,-2.4688,-2.4332,-2.3694,0.0,0.0,0.0,0.0,0.0,0.0,0.0,0.0,0.0,0.0,0.0,0.0,0.0,0.0,0.0,0.0,0.0,0.0,0.0,0.0,0.0,0.0,0.0,-3.2123,-3.4083,-3.5014,-3.3778,-3.6161,-3.7409,-3.6258,-3.7147,-3.8579,-4.0539,-4.0647,-4.1267,-4.2674,-4.2763,-4.2113,-4.0636,-4.1325,-4.1078,-3.9715,-3.9802,-3.9849,-3.9918,-3.9151,-3.8457,-3.7844,-3.7796,-3.7193,-3.607,-3.5475,-3.5244,-3.5307,-3.4656,-3.504,-3.5993,-3.5596,-3.4666,-3.3466,-3.2408,-3.1506,-3.0733,-2.9788,-2.9557,-2.9464,-2.8372,-2.7656,-2.7213,-2.7201,-2.719,-2.719,-2.719,-2.719,-2.719,-2.719,-2.719,-2.719,-2.719,-2.719,-2.719,-2.719,-2.719,-2.719,-2.719,-2.719,-2.719,-2.719,-2.719,-2.719,-2.719,-2.719,0.0,-2.6593,-2.6513,-2.6318,-2.5784,-2.5716,-2.5497,-2.4981,-2.5429,-2.5716,-2.5693,-2.5704,-2.5704,-2.5693,-2.5847,-2.5844,-2.5602,-2.5265,-2.4599,-2.3542,0.0,0.0,0.0,0.0,0.0,0.0,0.0,0.0,0.0,0.0,0.0,0.0,0.0,0.0,0.0,0.0,0.0,0.0,0.0,0.0,0.0,-3.102,-3.2485,-3.2994,-3.4186,-3.5011,-3.4967,-3.604,-3.6997,-3.7613,-3.7649,-3.8254,-3.9807,-3.9903,-3.9728,-3.9285,-3.9649,-3.9331,-3.8153,-3.829,-3.8197,-3.7746,-3.8263,-3.83,-3.7829,-3.8028,-3.7591,-3.6588,-3.5893,-3.5192,-3.4371,-3.3205,-3.2714,-3.2702,-3.2388,-3.2223,-3.2217,-3.3211,-3.338,-3.2802,-3.0488,-2.9035,-2.8255,-2.8368,-2.8455,-2.8414,-2.8103,-2.7885,-2.7702,-2.7305,-2.719,-2.719,-2.719,-2.719,-2.719,-2.719,-2.719,-2.719,-2.719,-2.719,-2.719,-2.719,-2.719,-2.719,-2.719,-2.719,-2.719,-2.719,-2.719,-2.719,-2.719,-2.719,-2.7133,-2.7036,-2.6691,-2.6455,-2.6306,-2.5934,-2.5658,-2.5497,-2.5968,-2.5934,-2.5187,-2.5497,-2.5543,-2.5153,-2.5168,-2.5223,-2.5308,-2.5352,-2.5073,0.0,0.0,0.0,0.0,0.0,0.0,0.0,0.0,0.0,0.0,0.0,0.0,0.0,0.0,0.0,0.0,0.0,0.0,0.0,0.0,0.0,0.0,-3.2225,-3.3419,-3.4186,-3.4739,-3.529,-3.5772,-3.6094,-3.6691,-3.7641,-3.7317,-3.7601,-3.8947,-3.8835,-3.8592,-3.8297,-3.8557,-3.8306,-3.7306,-3.7602,-3.7486,-3.6884,-3.7058,-3.6863,-3.6214,-3.5826,-3.5376,-3.4913,-3.4125,-3.3577,-3.3219,-3.2172,-3.16,-3.139,-3.1043,-3.0859,-3.0823,0.0,0.0,0.0,0.0,-2.8207,-2.7552,-2.7633,-2.7667,-2.7667,-2.7667,-2.7667,-2.761,-2.7282,-2.719,-2.719,-2.719,-2.719,-2.719,-2.719,-2.719,-2.719,-2.719,-2.719,-2.719,-2.719,-2.719,-2.719,-2.719,-2.688,0.0,-2.661,-2.6921,-2.719,-2.719,-2.719,-2.719,-2.719,-2.6967,-2.6783,-2.6783,-2.6519,-2.6255,-2.6048,-2.6496,0.0,0.0,0.0,-2.5796,-2.5268,-2.5321,0.0,0.0,0.0,-2.4588,-2.3862,-2.3342,0.0,0.0,-2.4165,-2.4337,0.0,0.0,0.0,0.0,0.0,0.0,0.0,0.0,0.0,0.0,0.0,0.0,0.0,0.0,0.0,0.0,-3.3821,-3.4509,-3.5474,-3.56,-3.5772,-3.622,-3.632,-3.6472,-3.6933,-3.6576,-3.6812,-3.8079,-3.7672,-3.7672,-3.8477,-3.853,0.0,0.0,0.0,-3.7831,-3.6495,-3.605,-3.558,-3.4973,-3.3351,-3.2822,-3.3269,-3.2787,-3.2546,-3.2454,-3.202,-3.1513,-3.1054,-3.0468,-3.0503,-3.0882,-3.0468,-3.0239,-3.0021,-2.9056,-2.839,-2.7908,-2.7403,0.0,0.0,-2.719,-2.719,-2.719,-2.719,-2.719,-2.719,-2.719,-2.7138,-2.7056,-2.7056,-2.6974,-2.6891,-2.6891,-2.6891,-2.6891,-2.6891,-2.6891,-2.6891,-2.6891,-2.6227,-2.5652,-2.5652,-2.6362,-2.6891,-2.6891,-2.6891,-2.6891,-2.6891,-2.6891,-2.6891,-2.6891,-2.6891,0.0,-2.6296,-2.6671,-2.6676,-2.6206,-2.6155,-2.591,-2.5485,-2.5645,-2.5278,-2.4191,-2.4073,-2.3519,-2.2519,-2.2074,-2.2096,-2.2478,-2.282,-2.3213,0.0,0.0,0.0,0.0,0.0,0.0,0.0,0.0,0.0,0.0,0.0,0.0,0.0,0.0,0.0,-3.3717,-3.4624,-3.5439,-3.6036,-3.6128,-3.6162,-3.6309,-3.632,-3.6472,-3.6933,-3.6576,-3.6539,-3.7211,-3.6827,-3.658,-3.6796,-3.6796,-3.6688,-3.6526,-3.6688,-3.6259,-3.5155,-3.5092,-3.4583,-3.3669,-3.3323,0.0,-3.3281,-3.3178,-3.2891,-3.2454,-3.202,-3.1756,-3.1547,-3.0606,-3.0273,-3.0399,-3.0732,-3.0354,-2.9561,-2.893,-2.839,-2.7908,-2.7403,-2.719,-2.719,-2.719,-2.719,-2.719,-2.719,-2.719,0.0,-2.719,-2.6652,-2.6091,-2.6091,-2.5547,-2.5009,-2.5009,-2.5009,-2.5009,-2.5009,-2.5009,-2.5009,-2.5009,-2.4872,-2.4744,-2.4744,-2.4914,-2.5009,-2.5009,-2.5009,-2.5009,-2.5009,-2.5009,-2.5009,-2.5009,-2.5009,-2.4967,-2.4883,-2.4957,-2.4798,-2.4271,-2.3932,-2.3858,-2.4092,-2.4225,-2.4015,-2.3353,-2.3309,-2.2862,-2.1956,-2.1387,-2.1336,-2.1746,-2.2395,-2.2505,0.0,0.0,0.0,0.0,0.0,0.0,0.0,0.0,0.0,0.0,0.0,-3.1132,-3.192,0.0,-3.3379,-3.4882,-3.5347,-3.5692,-3.6197,-3.632,-3.632,-3.632,-3.632,-3.6369,-3.6622,-3.6427,-3.6381,-3.6633,-3.6415,-3.632,-3.632,-3.632,-3.632,-3.632,-3.632,-3.6036,-3.5543,-3.5049,-3.4544,-3.4039,-3.3258,-3.3028,-3.3269,-3.2753,-3.2661,-3.2845,-3.2076,-3.1754,-3.1756,-3.0939,-3.0457,-3.0262,-3.0801,-3.0399,-2.9435,-2.8896,-2.839,-2.7908,-2.7403,-2.719,-2.7138,-2.6652,-2.6487,-2.6404,-2.5988,-2.5863,-2.5863,-2.5863,-2.5505,-2.5158,-2.5158,-2.4829,-2.4498,-2.4498,-2.4498,-2.4498,-2.4498,-2.4498,-2.4498,-2.4498,-2.4006,-2.3617,-2.3617,-2.3139,-2.3139,-2.4317,-2.4498,-2.4498,-2.4498,-2.4498,-2.4498,-2.4498,-2.436,-2.4317,-2.4317,-2.4016,-2.378,-2.368,-2.3237,-2.298,-2.2929,-2.3111,-2.2847,-2.209,-2.1919,-2.1511,-2.0869,-2.0341,-2.0272,-2.0553,-2.0946,-2.1188,0.0,0.0,0.0,0.0,0.0,0.0,0.0,-3.0535,-3.0281,-3.1075,-3.1063,-3.1345,-3.2938,-3.3009,-3.3488,-3.5622,-3.5597,-3.5472,-3.6045,-3.6102,-3.6157,-3.6266,-3.632,-3.632,-3.632,-3.632,-3.632,-3.632,-3.632,-3.632,-3.632,-3.632,-3.632,-3.632,-3.632,-3.6228,-3.5979,-3.5198,-3.4705,-3.4486,-3.3235,-3.281,-3.3097,-3.2331,-3.2354,-3.2948,-3.2099,-3.1697,-3.1582,-3.118,-3.0698,-3.0216,-3.0456,-3.0011,-2.9158,-2.8809,-2.8362,-2.777,-2.7137,-2.6839,-2.6539,-2.5788,-2.5526,-2.5411,-2.4701,-2.4498,-2.4498,-2.4498,-2.437,-2.4231,-2.4145,-2.4016,-2.3887,-2.3844,-2.3844,-2.3844,-2.3844,-2.3844,-2.3844,-2.3844,-2.3042,-2.2385,-2.2385,-2.1606,-2.165,-2.3531,-2.3844,-2.3844,-2.3844,-2.3844,-2.3844,-2.3844,-2.3617,-2.3491,-2.3411,-2.2866,-2.2651,-2.287,-2.245,-2.208,-2.176,-2.1849,-2.1531,-2.0811,-2.0484,-2.0139,-1.9765,-1.9467,-1.9381,-1.9557,-1.9557,-1.9963,-2.7929,-2.7984,-2.8638,-3.0934,-3.0463,-3.023,0.0,-3.3318,-3.2653,-3.2588,-3.3355,-3.3912,-3.3704,-3.3967,-3.4339,-3.4659,-3.4659,-3.4814,-3.5422,-3.5488,-3.5708,-3.6211,-3.632,-3.632,-3.632,-3.632,-3.632,-3.632,-3.632,-3.632,-3.632,-3.632,-3.632,-3.632,-3.632,-3.5853,-3.498,-3.4854,-3.4349,-3.3453,-3.3281,-3.2982,-3.2569,-3.2454,-3.2285,-3.1974,-3.1859,-3.1513,-3.11,-3.1031,-3.0698,-3.0125,-2.93,-2.8611,-2.8219,-2.858,-2.8179,-2.7304,-2.6326,-2.5463,-2.4797,-2.4659,-2.4669,-2.4616,-2.4541,-2.4498,-2.4498,-2.4498,-2.3887,-2.3183,-2.2955,-2.2325,-2.1687,-2.1436,-2.1392,-2.1392,-2.1392,-2.1392,-2.1392,-2.1392,-2.1302,-2.1168,-2.1168,-2.1078,-2.1078,-2.1347,-2.1392,-2.1392,-2.1392,-2.1392,-2.1392,-2.1392,-2.1347,-2.1212,-2.0922,-2.0515,-2.0271,-2.0313,-1.9951,-1.9828,-2.0126,-1.9851,-1.9702,-1.9775,-1.9738,-1.9606,-1.9366,-1.932,-1.9301,-1.9341,-1.9341,-1.9566,-2.8269,-2.832,-2.8656,-3.0253,-3.0485,-3.0716,-3.2194,-3.1774,-3.1301,-3.183,-3.2292,-3.2649,-3.279,-3.3029,-3.3448,-3.4357,-3.4067,-3.3944,-3.4758,-3.5201,-3.5488,-3.5763,-3.631,-3.6714,-3.6714,-3.6449,-3.6392,-3.6691,-3.6438,-3.632,-3.632,-3.632,-3.632,-3.632,-3.632,-3.5933,-3.5221,-3.4934,-3.4429,-3.3694,-3.3419,-3.3166,-3.2937,-3.2627,-3.2213,-3.1813,-3.1813,-3.1172,-3.013,-3.013,-2.949,-2.8445,-2.8311,-2.7988,-2.7511,-2.7398,-2.6793,-2.6017,-2.557,-2.5007,-2.4413,-2.3877,-2.3574,-2.3357,-2.2862,-2.2589,-2.2482,-2.2482,-2.2183,-2.1872,-2.1739,-2.1445,-2.115,-2.1042,-2.0997,-2.0997,-2.0997,-2.0997,-2.0997,-2.0997,-2.0907,-2.0826,-2.0826,-2.069,-2.06,-2.06,-2.0817,-2.0997,-2.0997,-2.0997,-2.0952,-2.0826,-2.0826,-2.0676,-2.0298,-1.9773,-1.9459,-1.9366,-1.898,-1.8839,-1.9038,-1.8979,-1.8972,-1.9052,-1.9093,-1.9084,-1.9112,-1.9112,-1.9192,-1.9301,-1.9301,-1.9381,-2.7835,-2.8068,-2.8411,-2.9651,-3.0404,-3.0868,-3.0878,-3.0472,-3.0219,-3.0577,-3.082,-3.1043,-3.1496,-3.1554,-3.1947,-3.3042,-3.269,-3.2623,-3.373,-3.4235,-3.4692,-3.5091,-3.5969,-3.6597,-3.6734,-3.6718,-3.6782,-3.7012,-3.6691,-3.6415,-3.6332,-3.632,-3.632,-3.632,-3.632,-3.6025,-3.5531,-3.5037,-3.4532,-3.3993,-3.3511,-3.3201,-3.304,-3.2218,-3.1464,-3.0762,-3.0762,-3.012,-2.9089,-2.8912,-2.8206,-2.722,-2.7235,-2.6937,-2.6432,-2.5694,-2.5197,-2.4917,-2.4618,-2.4149,-2.3551,-2.2853,-2.2438,-2.2129,-2.1463,-2.1141,-2.0997,-2.0997,-2.0997,-2.0997,-2.0907,-2.0916,-2.0907,-2.0817,-2.0817,-2.0817,-2.0817,-2.0817,-2.0817,-2.0817,-2.069,-2.0609,-2.0609,-2.0428,-2.0292,-2.0292,-2.06,-2.0817,-2.0817,-2.0817,-2.0736,-2.0609,-2.0418,-2.0183,-1.9869,-1.9273,-1.8834,-1.8724,-1.8438,-1.8282,-1.8282,-1.8451,-1.8531,-1.8612,-1.8612,-1.8732,-1.8931,-1.8962,-1.9073,-1.9222,-1.9262,-1.9119,-2.6156,-2.6681,-2.7513,-2.9819,-3.0324,-3.0234,-3.0306,-3.082,-3.0849,-2.9381,-2.9549,-2.9943,-2.9943,-2.9943,-3.0001,-3.006,-3.0001,-3.0519,-3.2072,-3.2301,-3.2861,-3.4357,-3.5046,-3.5646,-3.6072,-3.7121,-3.754,-3.7014,-3.6968,-3.6794,-3.63,-3.632,-3.632,-3.632,-3.632,-3.6025,-3.5531,-3.5037,-3.4532,-3.3993,-3.3511,-3.3017,-3.2489,-3.0945,-2.9478,-2.8119,-2.8119,-2.8108,-2.8018,-2.7492,-2.7247,-2.7094,-2.5877,-2.5141,-2.4602,-2.3393,-2.3596,-2.4395,-2.3497,-2.2432,-2.1482,-2.1482,-2.1284,-2.1033,-2.1042,-2.0997,-2.0997,-2.0997,-2.0997,-2.0952,-2.0736,-2.0699,-2.0654,-2.0382,-2.0337,-2.0337,-2.0337,-2.0337,-2.0337,-2.0337,-2.0337,-2.0292,-2.0292,-2.0292,-2.0292,-2.0292,-2.0292,-2.0337,-2.0337,-2.0337,-2.0337,-2.0292,-1.9685,-1.9247,-1.9239,-1.8502,-1.8025,-1.8017,-1.8008,-1.7991,-1.7991,-1.804,-1.8161,-1.8402,-1.8402,-1.8523,-1.87,-1.8882,-1.9002,-1.9002,-1.9222,-1.8689,-2.5032,-2.5998,-2.7084,-2.8661,-2.9057,-2.9096,-2.9107,-2.8948,-2.8641,-2.8122,-2.8323,-2.8584,-2.8584,-2.8584,-2.8852,-2.9778,-2.9586,-2.9942,-3.1721,-3.1998,-3.2488,-3.3724,-3.44,-3.4942,-3.5529,-3.6318,-3.6851,-3.6968,-3.6725,-3.6449,-3.6332,-3.632,-3.632,-3.632,-3.632,-3.5875,-3.5049,-3.4877,-3.4372,-3.3522,-3.2335,-3.1114,-2.9979,-2.9264,-2.8505,-2.7747,-2.7541,-2.688,-2.5898,-2.5448,-2.5054,-2.4592,-2.3625,-2.3304,-2.332,-2.2375,-2.2238,-2.2529,-2.2208,-2.1672,-2.1141,-2.1141,-2.0961,-2.0781,-2.0781,-2.069,-2.0555,-2.0555,-2.0555,-2.051,-2.0473,-2.0428,-2.0428,-2.0337,-2.0292,-2.0292,-2.0292,-2.0292,-2.0292,-2.0292,-2.0292,-2.0292,-2.0292,-2.0292,-2.0292,-2.0292,-2.0292,-2.0292,-2.0292,-2.0292,-2.0292,-2.0292,-1.9847,-1.9453,-1.9239,-1.8699,-1.8297,-1.8017,-1.8,-1.8,-1.8,-1.8,-1.7781,-1.7277,-1.7277,-1.7074,-1.6698,-1.6772,-1.6976,-1.7261,-1.7334,-1.7236,-2.462,-2.5775,-2.6885,-2.8095,-2.8464,-2.8457,-2.8337,-2.7891,-2.7461,-2.7409,-2.7289,-2.7204,-2.7204,-2.7089,-2.7302,-2.8135,-2.8065,-2.8544,-3.0432,-3.0546,-3.1111,-3.2792,-3.3537,-3.4112,-3.4628,-3.5458,-3.6115,-3.6666,-3.6615,-3.6461,-3.6332,-3.632,-3.6185,-3.6002,-3.5839,-3.5344,-3.4535,-3.3847,-3.2905,-3.1728,-3.0629,-2.9293,-2.7794,-2.7462,-2.6864,-2.6074,-2.5761,-2.5069,-2.4122,-2.3743,-2.3302,-2.2926,-2.2323,-2.2161,-2.2214,-2.1561,-2.1243,-2.1158,-2.1341,-2.1173,-2.0907,-2.0907,-2.0736,-2.0564,-2.0564,-2.0428,-2.0292,-2.0292,-2.0292,-2.0292,-2.0292,-2.0292,-2.0292,-2.0292,-2.0292,-2.0292,-2.0292,-2.0292,-2.0292,-2.0292,-2.0292,-2.0292,-2.0292,-2.0292,-2.0292,-2.0292,-2.0011,-1.9824,-2.0067,-2.0095,-2.0043,-1.9906,-1.9555,-1.9101,-1.8556,-1.8138,-1.7697,-1.7098,-1.7082,-1.7082,-1.7082,-1.7082,-1.6796,-1.6247,-1.6247,-1.6,-1.5587,-1.5662,-1.5861,-1.615,-1.6224,-1.6162,-2.4941,-2.5977,-2.6894,-2.8067,-2.8446,-2.8388,-2.8053,-2.7693,-2.7401,-2.7082,-2.6431,-2.585,-2.5825,-2.56,-2.5443,-2.5503,-2.5797,-2.6596,-2.8343,-2.8237,-2.8895,-3.1515,-3.2342,-3.2929,-3.3441,-3.4396,-3.5225,-3.5847,-3.6476,-3.6617,-3.6234,-3.6102,-3.5874,-3.5405,-3.4834,-3.4318,-3.3816,-3.1922,-3.0284,-2.8835,-2.8548,-2.7562,-2.6058,-2.5642,-2.4705,-2.3379,-2.2948,-2.2779,-2.2753,-2.2318,-2.2159,-2.212,-2.1838,-2.1534,-2.1247,-2.095,-2.0617,-2.0374,-2.0817,-2.0826,-2.0699,-2.0699,-2.0518,-2.0292,-2.0292,-2.0292,-2.0292,-2.0292,-2.0292,-2.0292,-2.0292,-2.0292,-2.0292,-2.0292,-2.0292,-2.0292,-2.0292,-2.0292,-2.0292,-2.0292,-2.0246,-2.0201,-2.0201,-2.0201,-2.0147,-2.0147,-1.9355,-1.8951,-1.9557,-1.9603,-1.9414,-1.9084,-1.8693,-1.8121,-1.7281,-1.6864,-1.6288,-1.5436,-1.5394,-1.5387,-1.5372,-1.5387,-1.5387,-1.5323,-1.5304,-1.5311,-1.5269,-1.5455,-1.553,-1.5572,-1.5764,-1.5401,-2.5148,-2.6188,-2.7169,-2.7774,-2.8052,-2.8009,-2.7665,-2.7347,-2.7022,-2.6345,-2.5848,-2.5429,-2.5155,-2.5249,-2.5709,-2.6499,-2.7193,-2.8094,-2.9556,-2.9055,-2.9155,-3.0695,-3.0338,-3.0517,-3.173,-3.1885,-3.2282,-3.3152,-3.3777,-3.4354,-3.4936,-3.3631,-3.3117,-3.3695,-3.2619,-3.1768,-3.1301,-3.012,-2.8653,-2.6895,-2.685,-2.5856,-2.4085,-2.3826,-2.3477,-2.3079,-2.2455,-2.2192,-2.214,-2.1475,-2.1354,-2.1544,-2.0936,-2.0795,-2.0941,-2.0595,-2.0377,-2.0337,-2.0419,-2.0419,-2.0382,-2.0382,-2.0382,-2.0292,-2.0292,-2.0292,-2.0292,-2.0292,-2.0292,-2.0292,-2.0292,-2.0292,-2.0292,-2.0292,-2.0292,-2.0292,-2.0292,-2.0292,-2.0292,-2.0292,-1.9683,-1.9163,-1.9163,-1.8557,-1.8041,-1.8041,-1.7855,-1.7926,-1.8641,-1.8092,-1.7512,-1.7226,-1.6829,-1.6487,-1.6282,-1.5947,-1.5636,-1.5394,-1.5394,-1.5325,-1.5109,-1.5303,-1.4995,-1.4145,-1.4275,-1.4048,-1.3372,-1.3457,-1.3584,-1.376,-1.3837,-1.3805,-2.5506,-2.6443,-2.727,-2.7503,-2.7661,-2.7606,-2.71,-2.6776,-2.6362,-2.5609,-2.5138,-2.4761,-2.4384,-2.4761,-2.5343,-2.5985,-2.685,-2.7875,-2.916,-2.8746,-2.8787,-3.0174,-2.9744,-2.9714,-3.0858,-3.0799,-3.083,-3.1159,-3.1984,-3.2727,-3.3247,-3.226,-3.1815,-3.2143,-3.0973,-2.9774,-2.8542,-2.8007,-2.6918,-2.5311,-2.519,-2.4481,-2.3249,-2.2974,-2.2795,-2.2769,-2.2068,-2.1739,-2.1679,-2.0934,-2.0737,-2.0874,-2.0454,-2.0531,-2.0831,-2.0437,-2.0403,-2.0523,-2.0352,-2.0292,-2.0292,-2.0292,-2.0292,-2.0292,-2.0292,-2.0292,-2.0292,-2.0292,-2.0292,-2.0292,-2.0292,-2.0292,-2.0292,-2.0292,-2.0292,-2.0292,-2.0292,-2.0429,-2.0453,-2.0132,-1.9457,-1.8824,-1.8403,-1.7831,-1.7457,-1.7311,-1.6922,-1.6711,-1.6899,-1.6743,-1.647,-1.6066,-1.5802,-1.5516,-1.5085,-1.4895,-1.4636,-1.4258,-1.4216,-1.4135,-1.4001,-1.4122,-1.3891,-1.3275,-1.338,-1.3209,-1.2705,-1.2705,-1.279,-1.2918,-1.2918,-1.3052,-2.5901,-2.6518,-2.7085,-2.7194,-2.7254,-2.7091,-2.6455,-2.6088,-2.5634,-2.483,-2.4393,-2.4042,-2.3657,-2.4222,-2.4804,-2.5009,-2.59,-2.6979,-2.8177,-2.7963,-2.8241,-2.9734,-2.9681,-2.9719,-3.0189,-3.0189,-3.0099,-2.9745,-3.0548,-3.1216,-3.1456,-3.1216,-3.0815,-3.0276,-2.9463,-2.8051,-2.5935,-2.5926,-2.533,-2.4153,-2.3819,-2.3443,-2.3032,-2.2748,-2.2594,-2.256,-2.1799,-2.1456,-2.1353,-2.066,-2.0343,-2.0292,-2.0292,-2.0497,-2.0763,-2.042,-2.0506,-2.0754,-2.0412,-2.0292,-2.0292,-2.0292,-2.0292,-2.0292,-2.0292,-2.0292,-2.0292,-2.0292,-2.0292,-2.0292,-2.0292,-2.0292,-2.0292,-2.0292,-2.0292,-2.0246,-2.0147,-2.0315,-2.0293,-1.9669,-1.9166,-1.859,-1.7683,-1.7387,-1.7184,-1.6878,-1.6123,-1.5371,-1.4831,-1.5462,-1.574,-1.5125,-1.5055,-1.4769,-1.388,-1.3837,-1.3499,-1.2747,-1.2705,-1.2687,-1.2656,-1.2687,-1.2687,-1.265,-1.2687,-1.2705,-1.2705,-1.2705,-1.2705,-1.2705,-1.2705,-1.2833,-2.5901,-2.6145,-2.638,-2.6713,-2.6711,-2.6437,-2.6005,-2.5691,-2.5163,-2.4085,-2.3864,-2.3648,-2.328,-2.3828,-2.4744,-2.5994,-2.6636,-2.7475,-2.8914,-2.852,-2.8206,-2.8524,-2.8481,-2.8588,-2.8832,-2.8392,-2.8297,-2.8687,-2.8241,-2.8591,-3.01,-2.876,-2.7555,-2.6782,-2.6579,-2.6014,-2.5034,-2.5034,-2.4625,-2.3768,-2.3752,-2.3358,-2.2688,-2.2628,-2.2594,-2.2568,-2.2081,-2.1713,-2.1379,-2.0951,-2.0583,-2.0292,-2.0292,-2.0335,-2.0386,-2.0317,-2.0335,-2.0386,-2.0317,-2.0292,-2.0292,-2.0292,-2.0292,-2.0292,-2.0292,-2.0292,-2.0292,-2.0292,-2.0292,-2.0292,-2.0292,-2.0292,-2.0292,-2.0292,-2.0292,-2.0056,-1.9255,-1.8637,-1.8218,-1.8086,-1.7498,-1.6929,-1.6537,-1.5771,-1.5053,-1.4581,-1.4352,-1.4046,-1.3485,-1.396,-1.4037,-1.3248,-1.3386,-1.3343,-1.2979,-1.2912,-1.2875,-1.2705,-1.2705,-1.2608,-1.2391,-1.259,-1.2602,-1.2385,-1.2596,-1.2705,-1.2705,-1.2705,-1.2705,-1.2705,-1.2705,-1.2705,-2.6223,-2.6354,-2.6468,-2.6694,-2.6584,-2.6231,-2.5432,-2.5035,-2.4453,-2.3375,-2.3298,-2.3263,-2.2886,-2.3597,-2.4538,-2.5472,-2.6105,-2.7004,-2.852,-2.8417,-2.834,-2.8725,-2.8614,-2.8461,-2.8368,-2.7868,-2.7634,-2.7746,-2.7366,-2.7487,-2.8361,-2.7407,-2.6516,-2.5902,-2.5746,-2.5378,-2.483,-2.4821,-2.4436,-2.3682,-2.3727,-2.3323,-2.2594,-2.2594,-2.2594,-2.2577,-2.2158,-2.1893,-2.1687,-2.1311,-2.0934,-2.0591,-2.0591,-2.0591,-2.0574,-2.0369,-2.042,-2.0566,-2.036,-2.0292,-2.0292,-2.0292,-2.0292,-2.0292,-2.0292,-2.0292,-2.0292,-2.0292,-2.0292,-2.0201,-1.9683,-1.9538,-1.9401,-1.888,-1.8642,-1.8458,-1.8168,-1.7578,-1.7039,-1.6876,-1.6348,-1.5772,-1.5109,-1.4604,-1.4126,-1.3725,-1.369,-1.3544,-1.3133,-1.3454,-1.3438,-1.2788,-1.2841,-1.2856,-1.2723,-1.2612,-1.2596,-1.2668,-1.2619,-1.2517,-1.2524,-1.2638,-1.2644,-1.2518,-1.2638,-1.2705,-1.2705,-1.2705,-1.2705,-1.2705,-1.2705,-1.2705,-2.6655,-2.6662,-2.6661,-2.6792,-2.6495,-2.5912,-2.5031,-2.4453,-2.3811,-2.2817,-2.2834,-2.2903,-2.2654,-2.334,-2.4179,-2.4735,-2.5318,-2.6285,-2.7955,-2.8117,-2.8314,-2.8991,-2.8896,-2.8563,-2.8006,-2.7741,-2.7458,-2.7107,-2.6996,-2.6944,-2.6944,-2.6653,-2.6277,-2.5831,-2.5523,-2.5198,-2.4821,-2.4735,-2.4393,-2.3811,-2.3717,-2.3366,-2.2723,-2.2723,-2.2671,-2.2577,-2.2294,-2.2073,-2.197,-2.1662,-2.1276,-2.0883,-2.0883,-2.0823,-2.072,-2.0403,-2.0489,-2.0711,-2.0403,-2.0292,-2.0292,-2.0292,-2.0292,-2.0292,-2.0292,-2.0147,-1.9965,-1.9965,-1.982,-1.9492,-1.8696,-1.852,-1.8357,-1.7574,-1.6964,-1.6646,-1.6994,-1.6478,-1.5875,-1.5594,-1.5351,-1.4893,-1.4065,-1.391,-1.3775,-1.3477,-1.3394,-1.3321,-1.3064,-1.3216,-1.3194,-1.2748,-1.275,-1.2734,-1.2659,-1.2497,-1.2432,-1.2558,-1.2412,-1.2412,-1.254,-1.2534,-1.2534,-1.2534,-1.2534,-1.2534,-1.2534,-1.2619,-1.2619,-1.2619,-1.2662,-1.2705,-2.7124,-2.6814,-2.6411,-2.6787,-2.6215,-2.5374,-2.4915,-2.4247,-2.3546,-2.2757,-2.2628,-2.2637,-2.2603,-2.2912,-2.3571,-2.465,-2.4881,-2.5686,-2.7886,-2.7886,-2.7818,-2.8246,-2.8588,-2.8357,-2.7287,-2.7432,-2.7458,-2.7107,-2.6739,-2.6542,-2.6542,-2.6508,-2.6165,-2.5446,-2.5443,-2.5198,-2.4821,-2.4415,-2.4202,-2.4125,-2.3828,-2.3451,-2.3066,-2.3066,-2.2877,-2.2594,-2.256,-2.2354,-2.1996,-2.1961,-2.1525,-2.0883,-2.0883,-2.066,-2.0343,-2.0309,-2.0317,-2.0343,-2.0309,-2.0292,-2.0292,-2.0292,-2.0292,-2.0292,-2.0292,-1.9683,-1.8926,-1.8926,-1.828,-1.7529,-1.7483,-1.7603,-1.7801,-1.7702,-1.6576,-1.5566,-1.5592,-1.4808,-1.4129,-1.4077,-1.4256,-1.4268,-1.395,-1.391,-1.3726,-1.3234,-1.3147,-1.3044,-1.2829,-1.2845,-1.2845,-1.2796,-1.2964,-1.2876,-1.2449,-1.2414,-1.2306,-1.2098,-1.2043,-1.2043,-1.2037,-1.2037,-1.2037,-1.2037,-1.2037,-1.2037,-1.2037,-1.2326,-1.2448,-1.2448,-1.2619,-1.2705,-2.6677,-2.6791,-2.6696,-2.6885,-2.6157,-2.5275,-2.4907,-2.405,-2.3186,-2.2705,-2.2594,-2.2594,-2.2594,-2.2723,-2.3066,-2.3973,-2.4127,-2.4761,-2.6585,-2.6705,-2.691,-2.7741,-2.798,-2.7895,-2.7432,-2.7518,-2.7355,-2.6765,-2.6799,-2.6542,-2.5848,-2.5814,-2.5677,-2.5434,-2.5155,-2.4967,-2.4821,-2.4667,-2.4415,-2.4176,-2.4076,-2.3691,-2.3117,-2.3117,-2.2903,-2.2594,-2.2594,-2.2508,-2.2379,-2.2379,-2.207,-2.1533,-2.1293,-2.0977,-2.0617,-2.0377,-2.0446,-2.0609,-2.0377,-2.0071,-1.9696,-1.9474,-1.898,-1.8603,-1.9209,-1.8696,-1.7902,-1.7902,-1.7475,-1.6958,-1.6491,-1.5904,-1.5385,-1.54,-1.4685,-1.4012,-1.4012,-1.3628,-1.3286,-1.338,-1.3485,-1.3518,-1.3424,-1.3408,-1.3276,-1.2991,-1.291,-1.291,-1.2813,-1.2813,-1.2813,-1.2813,-1.274,-1.2595,-1.2434,-1.2137,-1.1998,-1.2017,-1.1871,-1.1871,-1.2,-1.2,-1.2,-1.2,-1.2,-1.2,-1.2,-1.2123,-1.216,-1.216,-1.2246,-1.2289,-2.6281,-2.6747,-2.6931,-2.6925,-2.6185,-2.5275,-2.4907,-2.3931,-2.3006,-2.268,-2.2594,-2.2594,-2.2594,-2.2594,-2.2808,-2.34,-2.3649,-2.4162,-2.5574,-2.5866,-2.6209,-2.7167,-2.727,-2.727,-2.727,-2.7381,-2.7227,-2.6705,-2.6713,-2.6388,-2.5583,-2.5326,-2.5206,-2.5206,-2.4958,-2.4821,-2.4821,-2.459,-2.4393,-2.4176,-2.4119,-2.3734,-2.3117,-2.3228,-2.3014,-2.2594,-2.2594,-2.2594,-2.2594,-2.2594,-2.2311,-2.1807,-2.1645,-2.1293,-2.0857,-2.0686,-2.0611,-2.0515,-2.0145,-1.9483,-1.8712,-1.8364,-1.751,-1.6727,-1.7475,-1.7242,-1.6727,-1.664,-1.6257,-1.5824,-1.5441,-1.4552,-1.3862,-1.4038,-1.3646,-1.3237,-1.3303,-1.3171,-1.3072,-1.3184,-1.3211,-1.319,-1.3114,-1.3104,-1.3028,-1.2845,-1.2813,-1.2813,-1.2813,-1.2813,-1.2813,-1.2813,-1.2554,-1.2364,-1.234,-1.2033,-1.1805,-1.1802,-1.1656,-1.1656,-1.1785,-1.1785,-1.1785,-1.1785,-1.1785,-1.1785,-1.1785,-1.1871,-1.1914,-1.1914,-1.1957,-1.2,-2.618,-2.6659,-2.6932,-2.7091,-2.6217,-2.5275,-2.4907,-2.3931,-2.3006,-2.268,-2.2594,-2.2594,-2.2594,-2.2594,-2.2723,-2.3057,-2.3425,-2.4121,-2.5215,-2.5703,-2.608,-2.6448,-2.6499,-2.6499,-2.6499,-2.685,-2.7073,-2.7073,-2.6371,-2.5885,-2.5876,-2.5176,-2.483,-2.483,-2.4821,-2.4821,-2.4821,-2.4059,-2.3862,-2.4176,-2.3845,-2.3477,-2.3126,-2.3494,-2.3306,-2.2594,-2.2594,-2.2594,-2.2594,-2.2594,-2.2148,-2.1456,-2.1841,-2.1533,-2.0925,-2.1268,-2.0716,-1.9739,-1.9416,-1.8417,-1.7298,-1.6994,-1.6073,-1.5045,-1.5045,-1.5222,-1.5358,-1.5086,-1.4292,-1.3653,-1.4195,-1.3886,-1.369,-1.4417,-1.4019,-1.3534,-1.376,-1.3631,-1.3475,-1.3526,-1.3475,-1.3394,-1.3147,-1.3104,-1.3028,-1.2845,-1.2813,-1.2813,-1.2813,-1.2813,-1.2813,-1.2813,-1.2554,-1.2318,-1.2116,-1.2089,-1.1889,-1.1337,-1.1311,-1.1311,-1.1311,-1.1311,-1.1311,-1.1311,-1.1311,-1.1311,-1.1311,-1.157,-1.1699,-1.1699,-1.1914,-1.2,-2.4907,-2.5341,-2.5491,-2.5506,-2.4864,-2.417,-2.4059,-2.3357,-2.274,-2.262,-2.2594,-2.2594,-2.2594,-2.2594,-2.2808,-2.3408,-2.3605,-2.3973,-2.4872,-2.5318,-2.5686,-2.6071,-2.6576,-2.6893,-2.6893,-2.7004,-2.6859,-2.6336,-2.6311,-2.5977,-2.5215,-2.5189,-2.5078,-2.483,-2.4821,-2.4821,-2.4821,-2.4307,-2.4247,-2.4578,-2.3597,-2.3076,-2.2959,-2.2448,-2.1919,-2.1428,-2.1428,-2.1428,-2.1428,-2.1428,-2.1298,-2.102,-2.0882,-2.0341,-1.9634,-1.9493,-1.8988,-1.839,-1.8009,-1.732,-1.6509,-1.6065,-1.5157,-1.4191,-1.3815,-1.3908,-1.4087,-1.4021,-1.3867,-1.3791,-1.3744,-1.374,-1.3719,-1.3836,-1.3691,-1.3497,-1.3572,-1.3529,-1.3523,-1.368,-1.3712,-1.3685,-1.361,-1.3464,-1.3276,-1.3034,-1.291,-1.2813,-1.2813,-1.2813,-1.2813,-1.2813,-1.2694,-1.256,-1.2318,-1.2,-1.1747,-1.1596,-1.1396,-1.1305,-1.1305,-1.1305,-1.1305,-1.1305,-1.1305,-1.1305,-1.1305,-1.1397,-1.144,-1.144,-1.1483,-1.117,-2.3947,-2.4582,-2.4821,-2.4821,-2.4239,-2.3718,-2.3674,-2.3143,-2.2544,-2.2291,-2.2443,-2.2544,-2.2291,-2.2241,-2.2393,-2.2874,-2.3011,-2.3236,-2.3844,-2.4369,-2.4877,-2.5485,-2.6126,-2.6498,-2.6498,-2.6374,-2.6094,-2.5486,-2.5511,-2.5144,-2.4186,-2.4275,-2.415,-2.3736,-2.4302,-2.431,-2.3728,-2.3569,-2.3501,-2.3566,-2.2724,-2.2278,-2.2148,-2.1683,-2.1294,-2.0925,-2.0925,-2.0925,0.0,-2.055,-2.031,-2.0194,-1.9722,-1.9203,-1.8578,-1.8491,-1.802,-1.7338,-1.6983,-1.6273,-1.5454,-1.4873,-1.4158,-1.3462,-1.3204,-1.3231,-1.3362,-1.3364,-1.3539,-1.3707,-1.3634,-1.3647,-1.3701,-1.3739,-1.3674,-1.3631,-1.3728,-1.375,-1.3793,-1.3933,-1.3959,-1.3906,-1.3723,-1.3642,-1.3464,-1.3039,-1.2926,-1.291,-1.2824,-1.2813,-1.2813,-1.2813,-1.2813,-1.2753,-1.256,-1.2194,-1.1892,-1.1709,-1.152,-1.1402,-1.1311,-1.1305,-1.1305,-1.1305,-1.1305,-1.1305,-1.1305,-1.0954,-1.0781,-1.0781,-1.0429,-0.9946,0.0,-2.4068,-2.4603,-2.4603,-2.4119,-2.3588,-2.3508,-2.3014,0.0,-2.1743,-2.2047,-2.2249,-2.1692,-2.1633,-2.1599,-2.1707,-2.1865,-2.2053,-2.2363,-2.3053,-2.3879,-2.4877,-2.5298,-2.5452,-2.5427,-2.5185,-2.4921,-2.4571,-2.4206,-2.3689,-2.3111,-2.2712,-2.2315,-2.1934,-2.3266,-2.3345,-2.2011,-2.2177,-2.2022,-2.1557,-2.1501,-2.1222,-2.0901,-2.1214,-2.1115,-2.0771,-2.0771,-2.0763,-2.0609,-1.9797,-1.9258,-1.8876,-1.8469,-1.8036,-1.7674,-1.8047,-1.7476,-1.6493,-1.6221,-1.5323,-1.4159,-1.3659,-1.3157,-1.2856,-1.3055,-1.312,-1.3109,-1.3147,-1.3324,-1.355,-1.3766,-1.3674,-1.3636,-1.4067,-1.4003,-1.3911,-1.4148,-1.4196,-1.4196,-1.4196,-1.4196,-1.4056,-1.361,-1.369,-1.3593,-1.2964,-1.298,-1.3023,-1.284,-1.2813,-1.2813,-1.2764,-1.2759,-1.271,-1.2613,-1.2485,-1.2199,-1.1752,-1.1693,-1.158,-1.1316,-1.1219,-1.1219,-1.1305,-1.1219,-1.1176,-1.1089,-1.0207,-0.9816,-0.9772,-0.8894,-0.8456,-2.1418,0.0,-2.3023,-2.2557,-2.2629,-2.2656,0.0,-2.1755,-2.1702,-2.0869,-2.0813,-2.0863,-2.0712,-2.0712,-2.0889,-2.1478,-2.1598,-2.1828,-2.2394,-2.3316,-2.4055,-2.4651,-2.5012,-2.5064,-2.4852,-2.4771,-2.4555,-2.419,-2.384,-2.3397,-2.2696,-2.2529,-2.204,-2.1062,-2.1746,-2.2086,-2.2011,-2.2039,-2.2135,-2.2227,-2.1261,-2.0901,-2.101,-2.0204,-1.9762,-1.9687,-1.9687,-1.9309,-1.867,-1.8454,-1.7941,-1.7259,-1.7114,-1.6673,-1.6047,-1.6162,-1.5607,-1.4773,-1.4713,-1.4338,-1.3892,-1.3607,-1.3157,-1.2889,-1.3265,-1.3254,-1.3179,-1.3545,-1.3696,-1.375,-1.3803,-1.3922,-1.4003,-1.3927,-1.4008,-1.4121,-1.4186,-1.4196,-1.4196,-1.4196,-1.4196,-1.4159,-1.4046,-1.3911,-1.3701,-1.3362,-1.3195,-1.3023,-1.284,-1.2813,-1.2613,-1.2224,-1.2175,-1.178,-1.0739,-1.1606,-1.2132,-1.2019,-1.1628,-1.1364,-1.1311,-1.0603,-1.0559,-1.1305,-1.0603,-0.9859,-0.9157,-0.8938,-0.8851,-0.8807,-0.8588,-0.8105,-2.0361,-2.1155,-2.1829,-2.1226,-2.145,-2.1683,-2.1019,-2.1121,-2.1068,-2.0205,-2.0235,-2.0342,-2.0084,-2.0034,-2.0206,-2.0789,-2.0885,-2.117,-2.2012,-2.2949,-2.3691,-2.411,-2.4321,-2.4422,-2.4391,-2.3939,-2.3458,-2.2968,-2.2682,-2.213,-2.1301,-2.1255,-2.091,-2.0076,-2.0368,-2.0557,-2.0741,-2.1161,-2.1255,-2.1018,-2.0484,-2.0241,-2.0256,-1.959,-1.9063,-1.8684,-1.8684,-1.8206,-1.7358,-1.6988,-1.6564,-1.608,-1.5588,-1.5193,-1.4917,-1.4798,-1.4511,-1.4196,-1.4196,-1.3959,-1.3658,-1.3642,-1.3313,-1.3007,-1.3491,-1.354,-1.3486,-1.3744,-1.3906,-1.3992,-1.3992,-1.4094,-1.4159,-1.4024,-1.4094,-1.4196,-1.4196,-1.4196,-1.4196,-1.4196,-1.4196,-1.4196,-1.4196,-1.4083,-1.3805,-1.3357,-1.3069,-1.2737,-1.2267,-1.2144,-1.1932,-1.1683,-1.1634,-1.1189,-1.0096,-1.06,-1.08,-1.0371,-1.0071,-0.9869,-0.9719,-0.9187,-0.9187,-0.9666,-0.9183,-0.8703,-0.8177,-0.7742,-0.7522,-0.7522,-0.7221,-0.6782,-1.9645,-2.032,-2.0825,-2.0384,-2.0604,-2.0873,-2.0712,-2.0672,-2.0429,-1.9567,-1.971,-1.9894,-1.9491,-1.9444,-1.9603,-1.999,-2.0245,-2.0713,-2.1642,-2.2498,-2.3156,-2.3384,-2.346,-2.3627,-2.3817,-2.298,-2.2242,-2.1664,-2.1276,-2.0684,-1.9867,-1.9815,-1.9669,-1.9286,-1.9279,-1.9279,-1.9279,-2.0061,-2.0084,-1.9404,-1.9683,-1.9563,-1.9188,-1.9137,-1.8632,-1.7779,-1.7779,-1.7305,-1.6465,-1.5773,-1.5405,-1.5221,-1.4219,-1.4008,-1.4169,-1.3954,-1.4013,-1.4186,-1.4153,-1.3868,-1.3561,-1.3755,-1.3523,-1.3249,-1.3733,-1.3852,-1.383,-1.3868,-1.4029,-1.4196,-1.4196,-1.4196,-1.4196,-1.4196,-1.4196,-1.4196,-1.4196,-1.4223,-1.4239,-1.4202,-1.4169,-1.4136,-1.4136,-1.4028,-1.3727,-1.3004,-1.2735,-1.235,-1.1598,-1.1227,-1.0998,-1.09,-1.0797,-1.035,-0.9456,-0.9174,-0.8682,-0.7802,-0.8074,-0.8048,-0.7606,-0.7727,-0.7683,-0.7376,-0.7508,-0.7508,-0.7376,-0.659,-0.6195,-0.6151,-0.5589,-0.5327,-1.8813,-1.9264,-1.9733,-1.9733,-2.03,-2.066,-1.9739,-1.9668,-1.9559,-1.8686,-1.8348,-1.8245,-1.8469,-1.8749,-1.9133,-1.9745,-2.0512,-2.1306,-2.2008,-2.2427,-2.2686,-2.2737,-2.2988,-2.2973,-2.2555,-2.209,-2.1686,-2.1313,-2.0728,-2.0201,-1.9837,-1.9815,-1.9669,-1.9286,-1.9279,-1.9279,-1.9279,-1.9707,-1.9847,-1.9742,-1.9793,-1.9405,-1.8633,-1.8317,-1.7726,-1.6889,-1.6889,-1.6465,-1.5666,-1.5559,-1.5089,-1.4401,-1.4202,-1.4159,-1.4191,-1.4153,-1.4164,-1.4164,-1.3954,-1.383,-1.3776,-1.3809,-1.3642,-1.3513,-1.3992,-1.3992,-1.3863,-1.4078,-1.4164,-1.4196,-1.4196,-1.4196,-1.4196,-1.4196,-1.4196,-1.4196,-1.4196,-1.4347,-1.4422,-1.4229,-1.3965,-1.3759,-1.3699,-1.3251,-1.2846,-1.2531,-1.2316,-1.2045,-1.1567,-1.0721,-1.0002,-0.9562,-0.8916,-0.7975,-0.6736,-0.657,-0.6163,-0.5322,-0.701,-0.7611,-0.664,-0.7376,-0.7071,-0.545,-0.6195,-0.6239,-0.545,-0.5272,-0.5228,-0.5228,-0.5099,-0.5055,-1.7893,-1.8241,-1.8644,-1.8823,-1.9594,-2.0121,-1.9472,-1.9361,-1.9256,-1.8678,-1.8445,-1.8438,-1.8767,-1.895,-1.9381,-2.0384,-2.0918,-2.1437,-2.2089,-2.2147,-2.2191,-2.2359,-2.252,-2.2498,-2.2213,-2.173,-2.1298,-2.0969,-2.0347,-1.9842,-1.9566,-1.9551,-1.9215,-1.8632,-1.8579,-1.8363,-1.7898,-1.8034,-1.8367,-1.8798,-1.854,-1.8097,-1.7502,-1.7371,-1.6829,-1.6039,-1.6039,-1.5482,-1.4571,-1.4716,-1.448,-1.3992,-1.3992,-1.4078,-1.4196,-1.4196,-1.4196,-1.4159,-1.3906,-1.382,-1.382,-1.382,-1.375,-1.3728,-1.4083,-1.4116,-1.4046,-1.4164,-1.4196,-1.4196,-1.4196,-1.4196,-1.4196,-1.4196,-1.4196,-1.4083,-1.3753,-1.3782,-1.371,-1.3335,-1.3212,-1.3133,-1.3189,-1.2911,-1.2594,-1.2174,-1.1891,-1.1485,-1.0845,-0.9918,-0.9164,-0.8783,-0.8028,-0.7135,-0.6092,-0.5992,-0.5622,-0.4691,-0.5528,-0.5836,-0.5275,-0.5664,-0.5489,-0.4654,-0.505,-0.505,-0.461,-0.461,-0.461,-0.461,-0.479,-0.4835,-1.7421,-1.7684,-1.7935,-1.8036,-1.876,-1.9463,-1.9448,-1.9324,-1.9111,-1.8935,-1.884,-1.8869,-1.9118,-1.9345,-1.9825,-2.0736,-2.0917,-2.1103,-2.1491,-2.1296,-2.1351,-2.1841,-2.1689,-2.1601,-2.1768,-2.0944,-2.0324,-2.0011,-1.9408,-1.8946,-1.8705,-1.8691,-1.837,-1.7726,-1.7726,-1.7358,-1.673,-1.6518,-1.6829,-1.7674,-1.7268,-1.6832,-1.6411,-1.6411,-1.5956,-1.5098,-1.5098,-1.459,-1.376,-1.4003,-1.3992,-1.3825,-1.3884,-1.4024,-1.4196,-1.4196,-1.4196,-1.4164,-1.3976,-1.3906,-1.3906,-1.3906,-1.3906,-1.3943,-1.4137,-1.4196,-1.4196,-1.4196,-1.4196,-1.4196,-1.4196,-1.4196,-1.4142,-1.4029,-1.3975,-1.3807,-1.3207,-1.3133,-1.3049,-1.2505,-1.2436,-1.253,-1.2641,-1.2478,-1.2136,-1.1517,-1.1143,-1.056,-0.9714,-0.8676,-0.8005,-0.7846,-0.7135,-0.6387,-0.5789,-0.5739,-0.5414,-0.4662,-0.4518,-0.4426,-0.4334,-0.4351,-0.4342,-0.43,-0.432,-0.432,-0.43,-0.43,-0.43,-0.43,-0.4525,-0.4614,-1.7699,-1.8021,-1.8121,-1.7442,-1.7853,-1.8642,-1.958,-1.9257,-1.8906,-1.9184,-1.9001,-1.8796,-1.8818,-1.9564,-2.006,-1.9936,-2.0151,-2.0196,-1.9676,-1.9581,-1.9878,-2.0812,-2.0147,-1.9799,-2.036,-1.9085,-1.812,-1.7837,-1.7242,-1.6914,-1.6889,-1.6889,-1.6836,-1.6783,-1.6783,-1.6783,-1.6677,-1.5933,-1.5986,-1.6783,-1.6749,-1.6324,-1.5613,-1.5613,-1.5005,-1.3899,-1.3899,-1.3764,-1.3523,-1.375,-1.3836,-1.3841,-1.4078,-1.4175,-1.4196,-1.4196,-1.4196,-1.4191,-1.4175,-1.4169,-1.4169,-1.4169,-1.4169,-1.4169,-1.4186,-1.4196,-1.4196,-1.4196,-1.4196,-1.4196,-1.4196,-1.4196,-1.4083,-1.3483,-1.3369,-1.3207,-1.2604,-1.2643,-1.2779,-1.2474,-1.216,-1.2015,-1.2144,-1.1663,-1.1027,-1.0156,-0.9827,-0.9182,-0.793,-0.685,-0.62,-0.6192,-0.5438,-0.4935,-0.4885,-0.4885,-0.4845,-0.4704,-0.4614,-0.4522,-0.4382,-0.4508,-0.4473,-0.4302,-0.4381,-0.4383,-0.43,-0.43,-0.43,-0.43,-0.43,-0.4344,-1.6762,-1.6635,-1.6426,-1.6223,-1.6328,-1.676,-1.7647,-1.7681,-1.76,-1.7896,-1.795,-1.7943,-1.8064,-1.8642,-1.9129,-1.9009,-1.922,-1.9384,-1.9202,-1.8941,-1.8945,-1.9186,-1.8875,-1.8648,-1.87,-1.797,-1.7478,-1.737,-1.6952,-1.6677,-1.6677,-1.6677,-1.6465,-1.5986,-1.5933,-1.5672,-1.5148,-1.4826,-1.4826,-1.5148,-1.5148,-1.4987,-1.4665,-1.4665,-1.4371,-1.382,-1.382,-1.3604,-1.3265,-1.3507,-1.3513,-1.341,-1.3809,-1.4056,-1.4196,-1.4196,-1.4196,-1.4169,-1.4013,-1.4062,-1.4169,-1.4013,-1.4067,-1.4196,-1.4196,-1.4196,-1.4196,-1.4196,-1.3921,-1.3759,-1.4083,-1.3921,-1.3591,-1.3369,-1.2985,-1.2588,-1.2114,-1.2084,-1.206,-1.1599,-1.1508,-1.1236,-1.0515,-1.0303,-0.9913,-0.8997,-0.8734,-0.8484,-0.7856,-0.6996,-0.6378,-0.6164,-0.5321,-0.4784,-0.4784,-0.4784,-0.477,-0.474,-0.4706,-0.4589,-0.4394,-0.4524,-0.4485,-0.4302,-0.4344,-0.4344,-0.43,-0.43,-0.43,-0.43,-0.43,-0.43,-1.571,-1.5335,-1.5015,-1.49,-1.4678,-1.4695,-1.5481,-1.6199,-1.6832,-1.72,-1.7292,-1.7306,-1.7429,-1.7874,-1.8135,-1.779,-1.8021,-1.8084,-1.7854,-1.7557,-1.7434,-1.7597,-1.7345,-1.7195,-1.7322,-1.6765,-1.6369,-1.6453,-1.6132,-1.5885,-1.5885,-1.5885,-1.5672,-1.5089,-1.5089,-1.4826,-1.4196,-1.4196,-1.4196,-1.4196,-1.4196,-1.4196,-1.4191,-1.4116,-1.3943,-1.3706,-1.3626,-1.3367,-1.3017,-1.326,-1.3346,-1.3373,-1.3782,-1.404,-1.4196,-1.4196,-1.4196,-1.4169,-1.3997,-1.4051,-1.4164,-1.3992,-1.4051,-1.4142,-1.3975,-1.3921,-1.3867,-1.3699,-1.3315,-1.3098,-1.3537,-1.3315,-1.2985,-1.2827,-1.2493,-1.2082,-1.1668,-1.1301,-1.1016,-1.0626,-1.0386,-0.9968,-0.9185,-0.9132,-0.8861,-0.7951,-0.7837,-0.761,-0.7119,-0.6548,-0.6122,-0.5867,-0.5265,-0.491,-0.4879,-0.4877,-0.4865,-0.4786,-0.4779,-0.4667,-0.4485,-0.4567,-0.4516,-0.4304,-0.4344,-0.4344,-0.43,-0.43,-0.43,-0.43,-0.43,-0.43,-1.4651,-1.4268,-1.4142,-1.3616,-1.3038,-1.273,-1.3158,-1.5024,-1.6835,-1.7448,-1.7279,-1.7082,-1.7089,-1.7372,-1.7284,-1.634,-1.6388,-1.627,-1.5299,-1.5031,-1.5214,-1.6154,-1.5434,-1.5364,-1.6471,-1.5311,-1.4627,-1.4859,-1.4455,-1.4196,-1.4196,-1.4196,-1.4196,-1.4196,-1.4196,-1.4196,-1.4196,-1.4196,-1.4196,-1.4191,-1.4191,-1.4191,-1.4186,-1.3933,-1.3696,-1.3464,-1.3211,-1.2974,-1.2829,-1.3007,-1.3383,-1.3836,-1.4089,-1.4186,-1.4191,-1.4196,-1.4196,-1.4196,-1.4191,-1.4196,-1.4196,-1.4191,-1.4191,-1.4083,-1.3478,-1.3315,-1.3152,-1.255,-1.2387,-1.2382,-1.2382,-1.2382,-1.2223,-1.1732,-1.1662,-1.1638,-1.1085,-1.0228,-0.9603,-0.9603,-0.8742,-0.8075,-0.8269,-0.8291,-0.801,-0.7101,-0.6989,-0.6571,-0.5379,-0.5192,-0.5156,-0.5118,-0.5108,-0.5071,-0.4981,-0.4973,-0.4932,-0.4792,-0.4784,-0.4705,-0.4629,-0.4661,-0.4581,-0.4308,-0.4344,-0.4346,-0.43,-0.43,-0.43,-0.43,-0.43,-0.43,-1.3599,-1.2899,-1.2307,-1.2139,-1.2071,-1.2118,-1.2404,-1.3076,-1.3967,-1.4879,-1.5055,-1.5092,-1.5268,-1.5359,-1.5355,-1.5027,-1.5226,-1.5212,-1.4772,-1.4686,-1.4693,-1.5022,-1.4658,-1.4597,-1.5054,-1.4636,-1.432,-1.439,-1.4272,-1.4196,-1.4196,-1.4196,-1.4196,-1.4196,-1.4196,-1.4196,-1.4196,-1.4196,-1.4105,-1.3933,-1.3933,-1.4024,-1.4186,-1.3933,-1.3696,-1.3464,-1.3211,-1.2974,-1.2818,-1.2834,-1.284,-1.2827,-1.3438,-1.3577,-1.3417,-1.3965,-1.4196,-1.4137,-1.3699,-1.3867,-1.4083,-1.3207,-1.3207,-1.3428,-1.2822,-1.2659,-1.2604,-1.2441,-1.2114,-1.1673,-1.1004,-1.0566,-1.0351,-1.0566,-1.0373,-0.9971,-0.934,-0.8958,-0.8727,-0.8727,-0.8442,-0.7992,-0.727,-0.7153,-0.6899,-0.6068,-0.5965,-0.5873,-0.5531,-0.5306,-0.518,-0.5152,-0.5147,-0.5098,-0.5071,-0.4698,-0.4394,-0.4371,-0.3911,-0.3992,-0.4625,-0.4358,-0.4311,-0.4496,-0.4139,-0.4111,-0.4348,-0.433,-0.43,-0.43,-0.43,-0.43,-1.2191,-1.1633,-1.1222,-1.1258,-1.1277,-1.1313,-1.15,-1.2082,-1.282,-1.3778,-1.4023,-1.404,-1.4177,-1.4198,-1.4087,-1.386,-1.3979,-1.4071,-1.4164,-1.4064,-1.4122,-1.4346,-1.4277,-1.4283,-1.4459,-1.4326,-1.4229,-1.432,-1.4245,-1.4196,-1.4196,-1.4196,-1.4196,-1.4196,-1.4196,-1.4148,-1.4046,-1.4046,-1.3922,-1.3685,-1.3685,-1.3661,-1.3577,-1.3543,-1.3459,-1.3324,-1.2923,-1.2628,-1.2483,-1.242,-1.2264,-1.2023,-1.2608,-1.2784,-1.2722,-1.324,-1.3455,-1.3423,-1.3098,-1.3146,-1.3306,-1.263,-1.2601,-1.2763,-1.225,-1.206,-1.1946,-1.1396,-1.0958,-1.0515,-0.9574,-0.9078,-0.8916,-0.9244,-0.9188,-0.8956,-0.8468,-0.8113,-0.7904,-0.7852,-0.7456,-0.6958,-0.6281,-0.6158,-0.6011,-0.5505,-0.5504,-0.5565,-0.5576,-0.5386,-0.5312,-0.5289,-0.5017,-0.4824,-0.4794,-0.4241,-0.3875,-0.3797,-0.3403,-0.3465,-0.407,-0.3783,-0.3736,-0.3956,-0.3665,-0.3582,-0.3788,-0.3786,-0.3747,-0.3762,-0.3749,-0.3763,-1.073,-1.0521,-1.0658,-1.0915,-1.0693,-1.0501,-1.0655,-1.17,-1.2823,-1.3635,-1.3694,-1.3558,-1.3558,-1.3558,-1.3386,-1.2826,-1.2771,-1.2942,-1.3502,-1.3387,-1.3434,-1.4001,-1.404,-1.4119,-1.4348,-1.4162,-1.4114,-1.4266,-1.4146,-1.4029,-1.4029,-1.4083,-1.4126,-1.4105,-1.4159,-1.404,-1.3793,-1.3787,-1.3622,-1.3392,-1.3392,-1.3125,-1.2582,-1.2944,-1.3043,-1.2972,-1.2384,-1.2019,-1.1913,-1.1808,-1.1592,-1.1436,-1.176,-1.1969,-1.2096,-1.2168,-1.2296,-1.2354,-1.2304,-1.2217,-1.2182,-1.2234,-1.2173,-1.2056,-1.1561,-1.1404,-1.1126,-0.9691,-0.9251,-0.9082,-0.814,-0.7867,-0.7864,-0.7808,-0.8013,-0.8229,-0.8094,-0.7481,-0.6955,-0.6911,-0.6064,-0.5384,-0.5392,-0.5388,-0.5384,-0.5392,-0.5388,-0.5443,-0.5552,-0.5429,-0.5354,-0.5429,-0.4736,-0.4297,-0.4233,-0.3683,-0.3256,-0.3149,-0.309,-0.3084,-0.3079,-0.3028,-0.3024,-0.3018,-0.2965,-0.2935,-0.2928,-0.2917,-0.2886,-0.2929,-0.2889,-0.2914,-1.0742,-1.0369,-1.017,-1.0452,-1.0559,-1.0647,-1.0684,-1.094,-1.1363,-1.1954,-1.2426,-1.2671,-1.2671,-1.2671,-1.2612,-1.2502,-1.2507,-1.2507,-1.2671,-1.2633,-1.2721,-1.3051,-1.2924,-1.2904,-1.3119,-1.2948,-1.2787,-1.283,-1.2792,-1.2767,-1.2767,-1.3261,-1.3396,-1.3265,-1.3683,-1.3787,-1.3556,-1.355,-1.3222,-1.2576,-1.2576,-1.2189,-1.1583,-1.2597,-1.2754,-1.2193,-1.1653,-1.1384,-1.135,-1.1342,-1.1055,-1.069,-1.1336,-1.1438,-1.1329,-1.1957,-1.2206,-1.2191,-1.1705,-1.1737,-1.1817,-1.1069,-1.1153,-1.1305,-1.019,-0.9856,-0.9636,-0.8582,-0.8306,-0.8088,-0.721,-0.6988,-0.6821,-0.6102,-0.6653,-0.7069,-0.6269,-0.5983,-0.5929,-0.5908,-0.5602,-0.5402,-0.5469,-0.5426,-0.5404,-0.5471,-0.5424,-0.5418,-0.5522,-0.5045,-0.4711,-0.4727,-0.414,-0.3785,-0.3772,-0.3167,-0.2737,-0.2742,-0.2288,-0.2,-0.1921,-0.2313,-0.2753,-0.3141,-0.2702,-0.2675,-0.3053,-0.2957,-0.2929,-0.2961,-0.2928,-0.2937,-1.0167,-1.0091,-1.0103,-1.0469,-1.0627,-1.0692,-1.0692,-1.0692,-1.0802,-1.1076,-1.1543,-1.1855,-1.1855,-1.1855,-1.1801,-1.1486,-1.1507,-1.1678,-1.2001,-1.1918,-1.2036,-1.2573,-1.2413,-1.237,-1.2578,-1.2502,-1.2387,-1.2387,-1.2342,-1.229,-1.229,-1.252,-1.2572,-1.2454,-1.2762,-1.2765,-1.2537,-1.2532,-1.2269,-1.1746,-1.1746,-1.1594,-1.1198,-1.1895,-1.1988,-1.1595,-1.1159,-1.0897,-1.0811,-1.0654,-1.0343,-1.0077,-1.0419,-1.0525,-1.0501,-1.0958,-1.1221,-1.1265,-1.0904,-1.0915,-1.1023,-1.0535,-1.0261,-1.0016,-0.9563,-0.9082,-0.853,-0.7648,-0.7371,-0.7152,-0.6325,-0.6105,-0.5938,-0.5493,-0.588,-0.6127,-0.5579,-0.5516,-0.5565,-0.5527,-0.5445,-0.5408,-0.5492,-0.5508,-0.5494,-0.5453,-0.5445,-0.5344,-0.5102,-0.4752,-0.4382,-0.4136,-0.3523,-0.3102,-0.3102,-0.2509,-0.2152,-0.2186,-0.1888,-0.1707,-0.1639,-0.1877,-0.2171,-0.2424,-0.2149,-0.208,-0.2405,-0.2308,-0.2286,-0.2288,-0.2286,-0.2298,-0.9665,-0.9937,-1.0282,-1.0574,-1.0672,-1.0692,-1.0692,-1.0692,-1.0684,-1.0655,-1.0903,-1.1163,-1.1163,-1.1137,-1.0969,-1.0482,-1.053,-1.0774,-1.1298,-1.1241,-1.1349,-1.1982,-1.1965,-1.1938,-1.2091,-1.2114,-1.2096,-1.2064,-1.1956,-1.1898,-1.1861,-1.1755,-1.1756,-1.1667,-1.1765,-1.1712,-1.1444,-1.1444,-1.1309,-1.1047,-1.0949,-1.09,-1.09,-1.09,-1.0949,-1.1056,-1.0689,-1.0417,-1.0224,-0.9979,-0.9758,-0.9579,-0.9579,-0.9734,-0.9884,-0.9884,-1.0079,-1.0318,-1.0168,-1.0043,-0.9888,-1.0071,-0.9406,-0.8632,-0.8852,-0.84,-0.759,-0.6712,-0.6492,-0.6325,-0.5603,-0.5382,-0.5382,-0.5382,-0.5435,-0.5467,-0.5396,-0.5447,-0.5486,-0.5416,-0.5404,-0.5426,-0.5496,-0.5557,-0.5491,-0.529,-0.5269,-0.5085,-0.4517,-0.4294,-0.3999,-0.3601,-0.2904,-0.2472,-0.2472,-0.2006,-0.1718,-0.1712,-0.1743,-0.1725,-0.1714,-0.1638,-0.1622,-0.1617,-0.1617,-0.1605,-0.1579,-0.1623,-0.1562,-0.1542,-0.1562,-0.1624,-0.9811,-1.0119,-1.0354,-1.0456,-1.0582,-1.0692,-1.0692,-1.0692,-1.0647,-1.0501,-1.0502,-1.0539,-1.0539,-1.0408,-1.0355,-1.0408,-1.0322,-1.0339,-1.0556,-1.0416,-1.0419,-1.0663,-1.0659,-1.0717,-1.0895,-1.0911,-1.0849,-1.0696,-1.0659,-1.0576,-1.0466,-1.0897,-1.1017,-1.0857,-1.1291,-1.1439,-1.1236,-1.1236,-1.0976,-1.0507,-1.0019,-0.9826,-0.9826,-0.9826,-1.0068,-1.0462,-0.9949,-0.9747,-0.9727,-0.9652,-0.9599,-0.9579,-0.9579,-0.9734,-0.9884,-0.9884,-0.9916,-0.9953,-0.9929,-0.9365,-0.8671,-0.8878,-0.8384,-0.7663,-0.7118,-0.6908,-0.6712,-0.5826,-0.5547,-0.5549,-0.5437,-0.5382,-0.5382,-0.5382,-0.539,-0.5396,-0.5384,-0.5447,-0.5504,-0.5492,-0.549,-0.5494,-0.5506,-0.5457,-0.5238,-0.4707,-0.4601,-0.4438,-0.3823,-0.3258,-0.292,-0.2814,-0.2298,-0.1901,-0.1901,-0.1841,-0.1772,-0.1799,-0.1795,-0.1769,-0.1717,-0.171,-0.1643,-0.1617,-0.1617,-0.1615,-0.1611,-0.1584,-0.1583,-0.1605,-0.1582,-0.1585,-0.9839,-1.0002,-1.0176,-1.033,-1.0493,-1.0574,-1.0672,-1.0692,-1.0643,-1.0419,-1.0355,-1.0249,-1.0144,-1.0063,-1.0034,-1.0111,-1.0148,-1.0241,-1.027,-1.0123,-1.0075,-1.0262,-1.0188,-1.0197,-1.0379,-1.0489,-1.0473,-1.0294,-1.0282,-1.0201,-1.0018,-1.0167,-1.018,-1.01,-1.0291,-1.0397,-1.0314,-1.0314,-1.0167,-0.9969,-0.9727,-0.9579,-0.9579,-0.9579,-0.9727,-0.9924,-0.9723,-0.9579,-0.9579,-0.9579,-0.9579,-0.9579,-0.9579,-0.9673,-0.9742,-0.9742,-0.9497,-0.9208,-0.9117,-0.8542,-0.7911,-0.8024,-0.7522,-0.6815,-0.667,-0.6296,-0.5882,-0.5493,-0.5382,-0.5382,-0.5382,-0.5382,-0.5382,-0.5382,-0.5382,-0.5382,-0.5382,-0.541,-0.5437,-0.5437,-0.5475,-0.5492,-0.5445,-0.526,-0.4923,-0.4548,-0.4234,-0.3795,-0.32,-0.2862,-0.2581,-0.2244,-0.1964,-0.1795,-0.1795,-0.1795,-0.1789,-0.1776,-0.1814,-0.1792,-0.1766,-0.1732,-0.1663,-0.1666,-0.1634,-0.1617,-0.1617,-0.1604,-0.1604,-0.1616,-0.1603,-0.1604,-0.9782,-0.9851,-0.9961,-1.0286,-1.0346,-1.0427,-1.0651,-1.0692,-1.0643,-1.0419,-1.029,-1.0155,-0.992,-0.9847,-0.9835,-0.988,-0.9965,-1.0094,-1.0139,-0.9933,-0.9888,-1.0122,-0.9969,-0.9957,-1.0196,-1.0286,-1.029,-1.0159,-1.0143,-1.0065,-0.9827,-0.9697,-0.9579,-0.9579,-0.9579,-0.9579,-0.9579,-0.9579,-0.9579,-0.9579,-0.9579,-0.9579,-0.9579,-0.9579,-0.9579,-0.9579,-0.9579,-0.9579,-0.9579,-0.9579,-0.9579,-0.9579,-0.9579,-0.948,-0.9278,-0.9278,-0.8907,-0.8278,-0.8172,-0.7651,-0.7133,-0.7163,-0.664,-0.6023,-0.6187,-0.5856,-0.5382,-0.5382,-0.5382,-0.5382,-0.5382,-0.5382,-0.5382,-0.5382,-0.5382,-0.5382,-0.5382,-0.5382,-0.5388,-0.541,-0.5332,-0.5232,-0.5195,-0.4818,-0.4381,-0.4105,-0.3682,-0.3186,-0.2529,-0.2469,-0.23,-0.1851,-0.1795,-0.1795,-0.1795,-0.1795,-0.1795,-0.1795,-0.1774,-0.1813,-0.1804,-0.1761,-0.1743,-0.1704,-0.1661,-0.1635,-0.1628,-0.1621,-0.1617,-0.1617,-0.1617,-0.1617,-0.9591,-0.9762,-0.9933,-1.018,-1.0306,-1.0427,-1.0651,-1.0692,-1.0643,-1.0419,-1.029,-1.0155,-0.992,-0.975,-0.9693,-0.986,-0.9758,-0.9713,-0.9876,-0.975,-0.9705,-0.988,-0.9892,-0.9957,-1.0196,-1.0224,-1.0151,-0.9912,-0.99,-0.9823,-0.9603,-0.9583,-0.9579,-0.9579,-0.9579,-0.9579,-0.9579,-0.9579,-0.9579,-0.9579,-0.9579,-0.9579,-0.9579,-0.9579,-0.9579,-0.9579,-0.9579,-0.9579,-0.9579,-0.9579,-0.9579,-0.9579,-0.9579,-0.913,-0.8482,-0.8482,-0.7939,-0.7297,-0.7288,-0.6742,-0.6118,-0.6218,-0.5761,-0.5178,-0.527,-0.5308,-0.5382,-0.5382,-0.5382,-0.5382,-0.5382,-0.5382,-0.5382,-0.5382,-0.5382,-0.5382,-0.5382,-0.5382,-0.5406,-0.5486,-0.4983,-0.4564,-0.4633,-0.4084,-0.3483,-0.2862,-0.2752,-0.2527,-0.1908,-0.1851,-0.1851,-0.1795,-0.1795,-0.1795,-0.1795,-0.1795,-0.1795,-0.1795,-0.1793,-0.178,-0.1805,-0.1802,-0.1786,-0.1705,-0.1701,-0.1686,-0.1712,-0.163,-0.1617,-0.1617,-0.1617,-0.1617,-0.9579,-0.9673,-0.9762,-0.9941,-1.0123,-1.0168,-0.9697,-0.9764,-0.9588,-0.8745,-0.8549,-0.8453,-0.8207,-0.8969,-0.9648,-0.9709,-0.9669,-0.9648,-0.9709,-0.9665,-0.9652,-0.9713,-0.9721,-0.9746,-0.9815,-0.992,-0.9908,-0.9734,-0.9823,-0.9811,-0.9587,-0.9579,-0.9579,-0.9579,-0.9579,-0.9579,-0.9579,-0.9579,-0.9579,-0.9579,-0.9579,-0.9579,-0.9579,-0.9579,-0.9579,-0.9579,-0.9579,-0.9579,-0.9579,-0.9579,-0.9579,-0.9529,-0.9031,-0.863,-0.8333,-0.7836,-0.7138,-0.6439,-0.6439,-0.5889,-0.5253,-0.5402,-0.5294,-0.5124,-0.5162,-0.5308,-0.5382,-0.5382,-0.5382,-0.5382,-0.5382,-0.5382,-0.5324,-0.4929,-0.4801,-0.4711,-0.4326,-0.4538,-0.4826,-0.4852,-0.4331,-0.3929,-0.3954,-0.3434,-0.2973,-0.275,-0.2356,-0.202,-0.1851,-0.1795,-0.1795,-0.1795,-0.1795,-0.1795,-0.1795,-0.1795,-0.1795,-0.1795,-0.1795,-0.179,-0.1779,-0.1815,-0.1809,-0.1762,-0.1724,-0.169,-0.1714,-0.1652,-0.1636,-0.1617,-0.1637,-0.1646,-0.9579,-0.9579,-0.9685,-0.992,-1.0073,-0.9995,-0.9591,-0.9579,-0.9441,-0.8595,-0.8157,-0.7924,-0.7737,-0.8318,-0.8779,-0.8779,-0.9031,-0.9179,-0.9179,-0.943,-0.9579,-0.9579,-0.9579,-0.9579,-0.9579,-0.973,-0.975,-0.9587,-0.9734,-0.9746,-0.9583,-0.9579,-0.9579,-0.9579,-0.9579,-0.9579,-0.9579,-0.9579,-0.9579,-0.9579,-0.9579,-0.9579,-0.9579,-0.9579,-0.9579,-0.9579,-0.9579,-0.9579,-0.9579,-0.9327,-0.9179,-0.913,-0.8333,-0.7832,-0.7537,-0.6989,-0.6289,-0.5589,-0.5589,-0.5236,-0.4798,-0.4943,-0.5035,-0.5124,-0.5162,-0.5308,-0.5382,-0.5156,-0.5098,-0.5044,-0.4821,-0.4819,-0.4714,-0.4288,-0.4197,-0.4095,-0.3678,-0.3899,-0.4173,-0.4206,-0.3699,-0.3309,-0.3309,-0.2805,-0.2413,-0.2413,-0.2076,-0.1795,-0.1795,-0.1795,-0.1795,-0.1795,-0.1795,-0.1795,-0.1795,-0.1795,-0.1795,-0.1795,-0.1795,-0.1795,-0.1795,-0.1776,-0.1774,-0.1795,-0.1755,-0.172,-0.1745,-0.1724,-0.1652,-0.1633,-0.1705,-0.1719,0.0,0.0,0.0,-1.0059,-1.0014,-0.9977,-1.0278,-1.0229,-1.0108,-1.0096,-0.9333,-0.8602,-0.8598,-0.7824,-0.7138,-0.7138,-0.7836,-0.8382,-0.8382,-0.908,-0.9579,-0.9579,-0.9579,-0.9579,-0.9579,-0.9579,-0.9579,-0.9579,-0.9579,-0.9579,-0.9579,-0.9579,-0.9579,-0.9579,-0.9579,-0.9579,-0.9579,-0.9579,-0.9579,-0.9579,-0.9579,-0.9579,-0.9579,-0.9579,-0.9579,-0.9579,-0.9579,-0.9579,-0.9529,-0.8733,-0.8382,-0.8283,-0.7484,-0.6689,-0.5992,-0.5992,-0.5489,-0.4784,-0.4784,-0.4786,-0.4802,-0.4947,-0.4984,-0.5075,-0.511,-0.5253,-0.5212,-0.4646,-0.4477,-0.4313,-0.3755,-0.3587,-0.3602,-0.3606,-0.3576,-0.355,-0.3553,-0.3565,-0.3548,-0.3546,-0.3087,-0.2695,-0.2695,-0.2189,-0.1795,-0.1795,-0.1795,-0.1795,-0.1795,-0.1795,-0.1795,-0.1795,-0.1795,-0.1795,-0.1795,-0.1795,-0.1795,-0.1795,-0.1795,-0.1795,-0.1795,-0.1795,-0.1795,-0.1795,-0.1795,-0.178,-0.1804,-0.1745,-0.1717,-0.1716,-0.1717,-0.168,-0.9723,0.0,0.0,0.0,0.0,0.0,-0.9092,-0.8612,-0.8258,-0.8049,-0.7442,-0.6839,-0.6754,-0.6511,-0.6139,-0.5536,-0.7132,-0.8382,-0.8382,-0.908,-0.9579,-0.9579,-0.9579,-0.9579,-0.9579,-0.9579,-0.9579,-0.9579,-0.9579,-0.9579,-0.9579,-0.9579,-0.9579,-0.9579,-0.9579,-0.9579,-0.9579,-0.9579,-0.9579,-0.9579,-0.9579,-0.9579,-0.9579,-0.9579,-0.9579,-0.9579,-0.8981,-0.873,-0.873,-0.8482,-0.8035,-0.7437,-0.6639,-0.6192,-0.5942,-0.5338,-0.4985,-0.4784,-0.4784,-0.4573,-0.4334,-0.4412,-0.4224,-0.3963,-0.3982,-0.4036,-0.4081,-0.3865,-0.383,-0.3811,-0.3643,-0.3587,-0.349,-0.3032,-0.2976,-0.2865,-0.2448,-0.24,-0.2504,-0.2862,-0.2454,-0.2057,-0.2057,-0.1923,-0.1795,-0.1795,-0.1795,-0.1795,-0.1795,-0.1795,-0.1795,-0.1795,-0.1795,-0.1795,-0.1795,-0.1795,-0.1795,-0.1795,-0.1795,-0.1795,-0.1795,-0.1795,-0.1795,-0.1795,-0.1795,-0.178,-0.1804,-0.1788,-0.1767,-0.1693,-0.1769,-0.1796,-1.0113,-0.9776,-0.9644,-0.9717,0.0,0.0,-0.9137,-0.8664,-0.8315,-0.8204,-0.76,-0.7006,-0.6992,-0.6439,-0.5842,-0.5388,-0.6487,-0.7537,-0.7836,-0.8581,-0.9256,-0.9676,-0.9669,-0.9657,-0.973,-0.9669,-0.9579,-0.9579,-0.9579,-0.9579,-0.9579,-0.9579,-0.9579,-0.9579,-0.9579,-0.9579,-0.9579,-0.9579,-0.9579,-0.9579,-0.9579,-0.9579,-0.9579,-0.9229,-0.908,-0.908,-0.8233,-0.7686,-0.7388,-0.7388,-0.7138,-0.6639,-0.5839,-0.5489,-0.5438,-0.4736,-0.4483,-0.4435,-0.4234,-0.396,-0.3754,-0.382,-0.3676,-0.3463,-0.3489,-0.354,-0.3525,-0.3268,-0.3004,-0.2859,-0.2859,-0.2859,-0.2759,-0.2404,-0.2343,-0.2233,-0.1934,-0.1886,-0.1994,-0.2249,-0.207,-0.1779,-0.1823,-0.1807,-0.1795,-0.1795,-0.1795,-0.1795,-0.1795,-0.1795,-0.1795,-0.1795,-0.1795,-0.1795,-0.1795,-0.1795,-0.1795,-0.1795,-0.1795,-0.1795,-0.1795,-0.1795,-0.1795,-0.1795,-0.1795,-0.1787,-0.1823,-0.1811,-0.1795,-0.1724,-0.1809,-0.1778,-1.0645,-1.0068,-0.9714,-0.9815,-0.9742,0.0,-0.9819,-0.9562,-0.9332,-0.9542,-0.8811,-0.8115,-0.8255,-0.7039,-0.5992,-0.5892,-0.5892,-0.6142,-0.6939,-0.7746,-0.8607,-0.9509,-0.9566,-0.9596,-0.9748,-0.9708,-0.9657,-0.9657,-0.9591,-0.9579,-0.9579,-0.9579,-0.9579,-0.9579,-0.9579,-0.9616,-0.96,-0.9616,-0.9616,-0.96,-0.9616,-0.9529,-0.943,-0.8733,-0.8333,-0.8233,-0.7434,-0.6639,-0.5889,-0.5792,-0.5792,-0.5792,-0.5035,-0.4734,-0.4634,-0.4133,-0.3932,-0.3833,-0.3381,-0.3189,-0.3157,-0.3205,-0.3213,-0.3219,-0.3257,-0.3367,-0.3307,-0.2748,-0.2188,-0.1795,-0.1795,-0.1795,-0.1804,-0.1837,-0.1822,-0.1818,-0.1882,-0.1891,-0.1878,-0.1851,-0.1788,-0.1836,-0.1805,-0.1797,-0.1795,-0.1795,-0.1795,-0.1795,-0.1795,-0.1795,-0.1795,-0.1795,-0.1795,-0.1795,-0.1795,-0.1795,-0.1795,-0.1795,-0.1795,-0.1795,-0.1795,-0.1795,-0.1795,-0.1795,-0.1795,-0.1739,-0.1627,-0.1767,-0.1809,-0.181,-0.1671,-0.1627,-1.0756,-1.0314,-1.0175,-0.9768,-0.9652,0.0,-0.9669,-0.9126,-0.8791,-0.9472,-0.8407,-0.7403,-0.7431,-0.6639,-0.5792,-0.5135,-0.5035,-0.5336,-0.6139,-0.7024,-0.7655,-0.7884,-0.8536,-0.8972,-0.9001,-0.9528,-0.9835,-0.9835,-0.9705,-0.9579,-0.9579,-0.9579,-0.9579,-0.9579,-0.9579,-0.9555,-0.9457,-0.9555,-0.9555,-0.9457,-0.9555,-0.9278,-0.863,-0.8482,-0.8035,-0.7388,-0.6589,-0.5887,-0.5281,-0.4634,-0.4636,-0.4985,-0.4383,-0.4133,-0.4083,-0.3531,-0.3381,-0.3331,-0.323,-0.2933,-0.2638,-0.2647,-0.2382,-0.21,-0.2049,-0.2079,-0.2131,-0.202,-0.1907,-0.1795,-0.1795,-0.1795,-0.1809,-0.1864,-0.1853,-0.1855,-0.194,-0.192,-0.1884,-0.1878,-0.1877,-0.1867,-0.1837,-0.1811,-0.1795,-0.1795,-0.1795,-0.1795,-0.1795,-0.1795,-0.1795,-0.1795,-0.1795,-0.1795,-0.1795,-0.1795,-0.1795,-0.1795,-0.1795,-0.1795,-0.1795,-0.1795,-0.1795,-0.1795,-0.1795,-0.1402,-0.0673,-0.1453,-0.1787,-0.1786,-0.1008,-0.0673,-1.1991,-1.1091,-1.0364,-1.0068,-0.9772,0.0,0.0,-0.9194,-0.8999,-0.9393,-0.8852,-0.8189,-0.7872,-0.7138,-0.6339,-0.5539,-0.5085,-0.4834,-0.4987,-0.603,-0.6993,-0.747,-0.8272,-0.879,-0.879,-0.9472,-0.9847,-0.9762,-0.9677,-0.9579,-0.9579,-0.9579,-0.9579,-0.9579,-0.9579,-0.9539,-0.9404,-0.9445,-0.9251,-0.8823,-0.8859,-0.8501,-0.7786,-0.7388,-0.6836,-0.6134,-0.5336,-0.4684,-0.418,-0.3781,-0.3783,-0.3982,-0.3682,-0.3581,-0.3531,-0.2977,-0.2826,-0.2775,-0.2474,-0.2249,-0.2079,-0.2098,-0.1928,-0.1747,-0.1731,-0.1759,-0.1795,-0.1795,-0.1795,-0.1795,-0.1795,-0.1795,-0.1806,-0.1852,-0.1851,-0.1803,-0.1937,-0.193,-0.1904,-0.1889,-0.1886,-0.1871,-0.1825,-0.1805,-0.1795,-0.1795,-0.1795,-0.1795,-0.1795,-0.1795,-0.1795,-0.1795,-0.1795,-0.1795,-0.1795,-0.1795,-0.1795,-0.1795,-0.1795,-0.1795,-0.1795,-0.1795,-0.1795,-0.1795,-0.1346,-0.0897,-0.0393,-0.0449,-0.0449,-0.0449,0.0056,0.0224,-1.3155,-1.1816,-1.0608,-1.044,-0.9989,-0.9547,0.0,0.0,0.0,-0.9457,-0.9308,-0.9061,-0.8506,-0.7637,-0.6731,-0.6111,-0.5325,-0.4628,-0.4062,-0.5052,-0.6081,-0.6692,-0.7719,-0.8367,-0.842,-0.9164,-0.966,-0.9591,-0.9476,-0.943,-0.9579,-0.9579,-0.9579,-0.9579,-0.9579,-0.9539,-0.9404,-0.926,-0.8868,-0.8193,-0.8049,-0.7641,-0.6939,-0.6189,-0.5536,-0.4931,-0.4182,-0.3531,-0.3029,-0.3029,-0.2978,-0.2877,-0.3029,-0.3029,-0.2977,-0.2422,-0.227,-0.217,-0.1768,-0.1621,-0.163,-0.1706,-0.1681,-0.171,-0.1795,-0.1822,-0.1787,-0.1793,-0.1795,-0.1795,-0.1795,-0.1795,-0.1804,-0.184,-0.1791,-0.1866,-0.1926,-0.1935,-0.1924,-0.1899,-0.1885,-0.1859,-0.1804,-0.1795,-0.1795,-0.1795,-0.1795,-0.1795,-0.1795,-0.1795,-0.1795,-0.1795,-0.1795,-0.1795,-0.1795,-0.1795,-0.1795,-0.1795,-0.1795,-0.1739,-0.1514,-0.1346,-0.129,-0.129,-0.0561,0.0,0.028,0.0953,0.1233,0.1065,0.1233,0.1401,-1.3037,-1.2082,-1.1288,-1.0564,-0.9892,-0.9469,-0.9563,0.0,-0.9596,-0.9596,0.0,-0.851,-0.8428,0.0,0.0,-0.5956,-0.528,-0.4606,-0.3992,-0.4206,-0.4304,-0.3945,-0.5522,-0.6793,-0.6998,-0.8127,-0.9051,-0.9541,-0.8931,-0.8832,-0.9579,-0.9579,-0.9579,-0.9579,-0.9579,-0.9539,-0.9404,-0.8775,-0.8338,-0.8193,-0.7517,-0.6859,-0.6142,-0.5534,-0.488,-0.4083,-0.3531,-0.2977,-0.2472,-0.2472,-0.2221,-0.1818,-0.2321,-0.2472,-0.2422,-0.1869,-0.1667,-0.1667,-0.1617,-0.1635,-0.171,-0.1713,-0.1681,-0.171,-0.1795,-0.1807,-0.1816,-0.1787,-0.1795,-0.1795,-0.1795,-0.1795,-0.1809,-0.1867,-0.1881,-0.1897,-0.1958,-0.195,-0.193,-0.1926,-0.1823,-0.1835,-0.1801,-0.1795,-0.1795,-0.1795,-0.1795,-0.1795,-0.1795,-0.1795,-0.1795,-0.1795,-0.1795,-0.1795,-0.1795,-0.1795,-0.1795,-0.1795,-0.1795,-0.1402,-0.0617,0.0168,0.0617,0.0617,0.0673,0.1401,0.2684,0.2796,0.2462,0.1736,0.2518,0.3132,-1.4094,-1.3209,-1.2205,-1.1263,-1.0599,-1.0036,-0.9595,-0.9551,-0.96,-0.949,0.0,0.0,0.0,0.0,0.0,0.0,-0.6006,-0.5322,-0.4732,-0.4342,-0.3891,-0.3466,-0.4626,-0.597,-0.7312,-0.7791,-0.8489,-0.9533,-0.857,-0.8421,-0.9529,-0.9579,-0.9579,-0.9579,-0.9579,-0.9291,-0.8579,-0.8292,-0.7482,-0.6244,-0.591,-0.528,-0.4384,-0.4131,-0.3679,-0.3077,-0.2825,-0.2423,-0.1919,-0.1919,-0.1818,-0.1617,-0.1869,-0.1919,-0.1919,-0.1667,-0.1617,-0.1617,-0.1617,-0.1625,-0.1641,-0.1675,-0.1695,-0.1713,-0.1761,-0.1776,-0.1778,-0.1791,-0.1795,-0.1795,-0.1795,-0.1795,-0.181,-0.1872,-0.1886,-0.1902,-0.1963,-0.1967,-0.1952,-0.1934,-0.1896,-0.1857,-0.1826,-0.1806,-0.1795,-0.1795,-0.1795,-0.1795,-0.1795,-0.1795,-0.1795,-0.1795,-0.1795,-0.1795,-0.1795,-0.129,-0.1009,-0.1009,-0.0452,0.0,0.0398,0.1147,0.1606,0.1533,0.2464,0.3209,0.3743,0.4312,0.4516,0.4418,0.4418,0.4587,-1.4794,-1.3964,-1.2919,-1.2145,-1.1477,-1.0849,-1.0071,-0.9924,-0.9869,-0.9542,-0.9494,0.0,0.0,0.0,-0.8219,-0.7582,0.0,-0.6077,-0.5293,-0.4566,-0.3849,-0.3182,-0.3948,-0.5097,-0.6765,-0.6824,-0.727,-0.8623,-0.7621,-0.7521,-0.8878,-0.8931,-0.8931,-0.8931,-0.8931,-0.8566,-0.7801,-0.7382,-0.6417,-0.4886,-0.448,-0.3924,-0.3206,-0.3071,-0.2775,-0.2371,-0.222,-0.1969,-0.1617,-0.1617,-0.1617,-0.1617,-0.1617,-0.1617,-0.1617,-0.1617,-0.1617,-0.1617,-0.1617,-0.1617,-0.1625,-0.1676,-0.1698,-0.1714,-0.1767,-0.1789,-0.1795,-0.1795,-0.1795,-0.1795,-0.1795,-0.1795,-0.181,-0.1872,-0.1879,-0.1892,-0.1962,-0.1963,-0.195,-0.1945,-0.1906,-0.1752,-0.1507,-0.165,-0.1739,-0.1458,-0.1402,-0.1346,-0.1065,-0.1065,-0.1065,-0.1065,-0.1065,-0.1065,-0.1065,-0.0394,0.0057,0.0284,0.1148,0.1732,0.1905,0.2685,0.3037,0.3001,0.4144,0.4787,0.4845,0.5516,0.6098,0.6585,0.594,0.5761,-1.4572,-1.3916,-1.333,-1.309,-1.2483,-1.1821,-1.126,-1.0966,-1.0608,-0.978,-0.9482,-0.9417,-0.9546,-0.8928,-0.8382,-0.8274,-0.7645,0.0,0.0,-0.4674,-0.3879,-0.2574,-0.3126,-0.3879,-0.4433,-0.4529,-0.5077,-0.6423,-0.5727,-0.5882,-0.7185,-0.7288,-0.7288,-0.7288,-0.7288,-0.7282,-0.7223,-0.585,-0.5174,-0.5174,-0.3745,-0.313,-0.3194,-0.2652,-0.2422,-0.2371,-0.1869,-0.1617,-0.1617,-0.1617,-0.1617,-0.1617,-0.1617,-0.1617,-0.1617,-0.1617,-0.1617,-0.1617,-0.1617,-0.1617,-0.1622,-0.1654,-0.1682,-0.171,-0.1796,-0.1827,-0.1795,-0.1795,-0.1795,-0.1795,-0.1795,-0.1795,-0.181,-0.1872,-0.1864,-0.1866,-0.1957,-0.193,-0.1906,-0.1964,-0.1903,-0.1562,-0.0705,-0.1261,-0.1514,-0.0561,-0.0449,-0.0112,0.0729,0.0841,0.0841,0.0841,0.0841,0.0841,0.0841,0.0909,0.127,0.1992,0.2817,0.3639,0.4283,0.511,0.5584,0.558,0.5643,0.5936,0.6518,0.6414,0.6705,0.7269,0.659,0.6596,-1.4958,-1.4565,-1.413,-1.364,-1.3225,-1.2745,-1.2094,-1.1867,-1.1552,-1.053,-1.0297,-1.0123,-0.969,-0.9381,-0.9209,-0.9151,-0.8495,-0.7816,0.0,-0.5606,-0.3877,-0.2572,-0.3122,-0.3671,-0.3872,-0.3879,-0.4413,-0.5767,-0.4817,-0.4712,-0.6071,-0.6126,-0.6329,-0.6678,-0.6326,-0.6054,-0.5807,-0.4923,-0.4073,-0.3206,-0.2718,-0.2314,-0.2072,-0.1916,-0.1883,-0.1884,-0.1658,-0.1617,-0.1617,-0.1617,-0.1617,-0.1617,-0.1617,-0.1617,-0.1617,-0.1617,-0.1617,-0.1617,-0.1617,-0.1617,-0.1625,-0.1674,-0.1697,-0.1714,-0.1764,-0.1787,-0.1795,-0.1795,-0.1795,-0.1795,-0.1795,-0.1795,-0.1805,-0.1846,-0.1864,-0.1707,-0.1087,-0.0971,-0.0789,-0.0182,-0.0059,0.0058,0.0348,0.0171,0.0112,0.0393,0.0449,0.0561,0.0841,0.0897,0.0897,0.0897,0.0897,0.1065,0.1457,0.2499,0.3538,0.4469,0.4836,0.5076,0.5314,0.6088,0.6453,0.6451,0.6933,0.7235,0.7342,0.7166,0.7185,0.7277,0.7043,0.6988,-1.5131,-1.4915,-1.4599,-1.4216,-1.3976,-1.3621,-1.3002,-1.278,-1.2373,-1.1038,-1.0768,-1.0505,-0.957,-0.9543,-0.9608,-0.9543,-0.914,-0.8577,0.0,-0.5979,-0.4128,-0.2572,-0.267,-0.2971,-0.3171,-0.2988,-0.3428,-0.4674,-0.3781,-0.3626,-0.4674,-0.4728,-0.4926,-0.5227,-0.4929,-0.4625,-0.4415,-0.3828,-0.3072,-0.2244,-0.2044,-0.1771,-0.1511,-0.1553,-0.162,-0.1622,-0.1604,-0.1617,-0.1617,-0.1617,-0.1617,-0.1617,-0.1617,-0.1617,-0.1617,-0.1617,-0.1617,-0.1617,-0.1617,-0.1624,-0.1641,-0.1689,-0.1712,-0.173,-0.178,-0.1795,-0.1795,-0.1795,-0.1795,-0.1795,-0.1795,-0.157,-0.1297,-0.1327,-0.1101,-0.0701,-0.006,0.006,0.018,0.0783,0.0947,0.1046,0.1324,0.136,0.1345,0.1345,0.1345,0.1517,0.1865,0.2092,0.2261,0.2205,0.2431,0.2718,0.3131,0.416,0.5191,0.6118,0.6189,0.631,0.6552,0.6977,0.7225,0.7218,0.7651,0.7834,0.7761,0.7597,0.7478,0.7396,0.723,0.721]},{"header":{"parameterUnit":"m.s-1","parameterCategory":1,"la1":30.6,"la2":29.2853,"lo1":-89.7004,"lo2":-87.6739,"dy":0.0162,"dx":0.0183,"nx":112,"ny":82,"refTime":"2023-06-03T12:00:00:Z","depth":0,"parameterNumber":3,"parameterNumberName":"V-component_of_WINDS"},"data":[0.0,0.0,0.0,0.0,0.0,0.0,0.0,0.0,0.0,0.0,0.0,0.0,0.0,0.0,0.0,0.0,0.0,0.0,0.0,0.0,0.0,0.0,0.0,0.0,0.0,0.0,0.0,0.0,0.0,0.0,0.0,0.0,0.0,0.0,0.0,0.0,0.0,0.0,0.0,0.0,0.0,0.0,0.0,0.0,0.0,0.0,0.0,0.0,0.0,0.0,0.0,0.0,0.0,0.0,0.0,0.0,0.0,0.0,0.0,0.0,0.0,0.0,0.0,0.0,0.0,0.0,0.0,0.0,0.0,0.0,0.0,0.0,0.0,0.0,0.0,0.0,0.0,0.0,0.0,0.0,0.0,0.0,0.0,0.0,0.0,0.0,0.0,0.0,0.0,0.0,2.1045,1.8619,1.746,1.7127,1.7767,1.7607,1.6929,1.5753,0.0,0.0,0.0,0.0,0.0,0.0,0.0,0.0,0.0,0.0,0.0,0.0,0.0,0.0,0.0,0.0,0.0,0.0,0.0,0.0,0.0,0.0,0.0,0.0,0.0,0.0,0.0,0.0,0.0,0.0,0.0,0.0,0.0,0.0,0.0,0.0,0.0,0.0,0.0,0.0,0.0,0.0,0.0,0.0,0.0,0.0,0.0,0.0,0.0,0.0,0.0,0.0,0.0,0.0,0.0,0.0,0.0,0.0,0.0,0.0,0.0,0.0,0.0,0.0,0.0,0.0,0.0,0.0,0.0,0.0,0.0,0.0,0.0,0.0,0.0,0.0,0.0,0.0,0.0,0.0,0.0,0.0,0.0,0.0,0.0,0.0,0.0,0.0,0.0,0.0,0.0,0.0,0.0,0.0,0.0,0.0,0.0,0.0,0.0,0.0,0.0,0.0,0.0,0.0,2.0099,1.9145,1.8191,1.7703,1.7806,1.8001,1.7437,1.5785,0.0,0.0,0.0,0.0,0.0,0.0,0.0,0.0,0.0,0.0,0.0,0.0,0.0,0.0,0.0,0.0,0.0,0.0,0.0,0.0,0.0,0.0,0.0,0.0,0.0,0.0,0.0,0.0,0.0,0.0,0.0,0.0,0.0,0.0,0.0,0.0,0.0,0.0,0.0,0.0,0.0,0.0,0.0,0.0,0.0,0.0,0.0,0.0,0.0,0.0,0.0,0.0,0.0,0.0,0.0,0.0,0.0,0.0,0.0,0.0,0.0,0.0,0.0,0.0,0.0,0.0,0.0,0.0,0.0,0.0,0.0,0.0,0.0,0.0,0.0,0.0,0.0,0.0,0.0,0.0,0.0,0.0,0.0,0.0,0.0,0.0,0.0,0.0,0.0,0.0,0.0,0.0,0.0,0.0,0.0,0.0,0.0,0.0,0.0,0.0,0.0,0.0,0.0,2.0341,1.9869,1.9857,1.8858,1.8156,1.8085,1.8033,1.7342,1.5816,1.5409,0.0,0.0,0.0,0.0,0.0,0.0,0.0,0.0,0.0,0.0,0.0,0.0,0.0,0.0,0.0,0.0,0.0,0.0,0.0,0.0,0.0,0.0,0.0,0.0,0.0,0.0,0.0,0.0,0.0,0.0,0.0,0.0,0.0,0.0,0.0,0.0,0.0,0.0,0.0,0.0,0.0,0.0,0.0,0.0,0.0,0.0,0.0,0.0,0.0,0.0,0.0,0.0,0.0,0.0,0.0,0.0,0.0,0.0,0.0,0.0,0.0,0.0,0.0,0.0,0.0,0.0,0.0,0.0,0.0,0.0,0.0,0.0,0.0,0.0,0.0,0.0,0.0,0.0,0.0,0.0,0.0,0.0,0.0,0.0,0.0,0.0,0.0,0.0,0.0,0.0,0.0,0.0,0.0,0.0,0.0,0.0,0.0,0.0,0.0,0.0,0.0,0.0,2.0796,2.0148,2.0259,1.9333,1.8611,1.8366,1.8097,1.7333,1.5927,1.5411,0.0,0.0,0.0,0.0,0.0,0.0,0.0,0.0,0.0,0.0,0.0,0.0,0.0,0.0,0.0,0.0,0.0,0.0,0.0,0.0,0.0,0.0,0.0,0.0,0.0,0.0,0.0,0.0,0.0,0.0,0.0,0.0,0.0,0.0,0.0,0.0,0.0,0.0,0.0,0.0,0.0,0.0,0.0,0.0,0.0,0.0,0.0,0.0,0.0,0.0,0.0,0.0,0.0,0.0,0.0,0.0,0.0,0.0,0.0,0.0,0.0,0.0,0.0,0.0,0.0,0.0,0.0,0.0,0.0,0.0,0.0,0.0,0.0,0.0,0.0,0.0,0.0,0.0,0.0,0.0,0.0,0.0,0.0,0.0,0.0,0.0,0.0,0.0,0.0,0.0,0.0,0.0,0.0,0.0,0.0,0.0,0.0,0.0,0.0,0.0,0.0,0.0,2.0849,2.0916,1.9934,1.9568,1.9136,1.8456,1.8378,1.7733,1.6277,1.5547,0.0,0.0,0.0,0.0,0.0,0.0,0.0,0.0,0.0,0.0,0.0,0.0,0.0,0.0,0.0,0.0,0.0,0.0,0.0,0.0,0.0,0.0,0.0,0.0,0.0,0.0,0.0,0.0,0.0,0.0,0.0,0.0,0.0,0.0,0.0,0.0,0.0,0.0,0.0,0.0,0.0,0.0,0.0,0.0,0.0,0.0,0.0,0.0,0.0,0.0,0.0,0.0,0.0,0.0,0.0,0.0,0.0,0.0,0.0,0.0,0.0,0.0,0.0,0.0,0.0,0.0,0.0,0.0,0.0,0.0,0.0,0.0,0.0,0.0,0.0,0.0,0.0,0.0,0.0,0.0,0.0,0.0,0.0,0.0,0.0,0.0,0.0,0.0,0.0,0.0,0.0,0.0,0.0,0.0,0.0,0.0,0.0,0.0,0.0,0.0,0.0,0.0,2.1195,2.1319,2.1198,2.0689,2.0272,2.0,2.0218,1.9404,1.7038,0.0,0.0,0.0,0.0,0.0,0.0,0.0,0.0,0.0,0.0,0.0,0.0,0.0,0.0,0.0,0.0,0.0,0.0,0.0,0.0,0.0,0.0,0.0,0.0,0.0,0.0,0.0,0.0,0.0,0.0,0.0,0.0,0.0,0.0,0.0,0.0,0.0,0.0,0.0,0.0,0.0,0.0,0.0,0.0,0.0,0.0,0.0,0.0,0.0,0.0,0.0,0.0,0.0,0.0,0.0,0.0,0.0,0.0,0.0,0.0,0.0,0.0,0.0,0.0,0.0,0.0,0.0,0.0,0.0,0.0,0.0,0.0,0.0,0.0,0.0,0.0,0.0,0.0,0.0,0.0,0.0,0.0,0.0,0.0,0.0,0.0,0.0,0.0,0.0,0.0,0.0,0.0,0.0,0.0,0.0,0.0,0.0,0.0,0.0,0.0,0.0,0.0,2.1505,2.1732,2.1907,2.2025,2.1568,2.1173,2.0961,2.1265,2.047,1.8055,0.0,0.0,0.0,0.0,0.0,0.0,0.0,0.0,0.0,0.0,0.0,0.0,0.0,0.0,0.0,0.0,0.0,0.0,0.0,0.0,0.0,0.0,0.0,0.0,0.0,0.0,0.0,0.0,0.0,0.0,0.0,0.0,0.0,0.0,0.0,0.0,0.0,0.0,0.0,0.0,0.0,0.0,0.0,0.0,0.0,0.0,0.0,0.0,0.0,0.0,0.0,0.0,0.0,0.0,0.0,0.0,0.0,0.0,0.0,0.0,0.0,0.0,0.0,0.0,0.0,0.0,0.0,0.0,0.0,0.0,0.0,0.0,0.0,0.0,0.0,0.0,0.0,0.0,0.0,0.0,0.0,0.0,0.0,0.0,0.0,0.0,0.0,0.0,0.0,0.0,0.0,0.0,0.0,0.0,0.0,0.0,0.0,0.0,0.0,0.0,0.0,0.0,2.1592,2.2411,2.2767,2.2176,2.2101,2.1799,2.1064,2.1152,2.0673,0.0,0.0,0.0,0.0,0.0,0.0,0.0,0.0,0.0,0.0,0.0,0.0,0.0,0.0,0.0,0.0,0.0,0.0,0.0,0.0,0.0,0.0,0.0,0.0,0.0,0.0,0.0,0.0,0.0,0.0,0.0,0.0,0.0,0.0,0.0,0.0,0.0,0.0,0.0,0.0,0.0,0.0,0.0,0.0,0.0,0.0,0.0,0.0,0.0,0.0,0.0,0.0,0.0,0.0,0.0,0.0,0.0,0.0,0.0,0.0,0.0,0.0,0.0,0.0,0.0,0.0,0.0,0.0,0.0,0.0,0.0,0.0,0.0,0.0,0.0,0.0,0.0,0.0,0.0,0.0,0.0,0.0,0.0,0.0,0.0,0.0,0.0,0.0,0.0,0.0,0.0,0.0,0.0,0.0,0.0,0.0,0.0,0.0,0.0,0.0,0.0,0.0,0.0,2.1721,2.2722,2.3311,2.2771,2.2449,2.229,2.2389,2.3083,2.2506,2.0052,0.0,0.0,0.0,0.0,0.0,0.0,0.0,0.0,0.0,0.0,0.0,0.0,0.0,0.0,0.0,0.0,0.0,0.0,0.0,0.0,0.0,0.0,0.0,0.0,0.0,0.0,0.0,0.0,0.0,0.0,0.0,0.0,0.0,0.0,0.0,0.0,0.0,0.0,0.0,0.0,0.0,0.0,0.0,0.0,0.0,0.0,0.0,0.0,0.0,0.0,0.0,0.0,0.0,0.0,0.0,0.0,0.0,0.0,0.0,0.0,0.0,0.0,0.0,0.0,0.0,0.0,0.0,0.0,0.0,0.0,0.0,0.0,0.0,0.0,0.0,0.0,0.0,0.0,0.0,0.0,0.0,0.0,0.0,0.0,0.0,0.0,0.0,0.0,0.0,0.0,0.0,0.0,0.0,0.0,0.0,0.0,0.0,0.0,0.0,0.0,0.0,0.0,2.2741,2.3756,2.4343,2.3866,2.3541,2.3413,2.346,2.4077,2.3442,2.1192,0.0,0.0,0.0,0.0,0.0,0.0,0.0,0.0,0.0,0.0,0.0,0.0,0.0,0.0,0.0,0.0,0.0,0.0,0.0,0.0,0.0,0.0,0.0,0.0,0.0,0.0,0.0,0.0,0.0,0.0,0.0,0.0,0.0,0.0,0.0,0.0,0.0,0.0,0.0,0.0,0.0,0.0,0.0,0.0,0.0,0.0,0.0,0.0,0.0,0.0,0.0,0.0,0.0,0.0,0.0,0.0,0.0,0.0,0.0,0.0,0.0,0.0,0.0,0.0,0.0,0.0,0.0,0.0,0.0,0.0,0.0,0.0,0.0,0.0,0.0,0.0,0.0,0.0,0.0,0.0,0.0,0.0,0.0,0.0,0.0,0.0,0.0,0.0,0.0,0.0,0.0,0.0,0.0,0.0,0.0,0.0,0.0,0.0,0.0,0.0,0.0,0.0,2.4308,2.5253,2.572,2.5146,2.5075,2.4874,2.4394,2.4451,2.3929,2.2559,0.0,0.0,0.0,0.0,0.0,0.0,0.0,0.0,0.0,0.0,0.0,0.0,0.0,0.0,0.0,0.0,0.0,0.0,0.0,0.0,0.0,0.0,0.0,0.0,0.0,0.0,0.0,0.0,0.0,0.0,0.0,0.0,0.0,0.0,0.0,0.0,0.0,0.0,0.0,0.0,0.0,0.0,0.0,0.0,0.0,0.0,0.0,0.0,0.0,0.0,0.0,0.0,0.0,0.0,0.0,0.0,0.0,0.0,0.0,0.0,2.7245,2.562,0.0,0.0,0.0,0.0,0.0,0.0,0.0,0.0,0.0,0.0,0.0,0.0,0.0,0.0,0.0,0.0,0.0,0.0,0.0,0.0,0.0,0.0,0.0,0.0,0.0,0.0,0.0,0.0,0.0,0.0,0.0,0.0,0.0,0.0,0.0,0.0,0.0,0.0,0.0,0.0,2.5041,2.6072,2.6569,2.572,2.5615,2.558,2.5487,2.5804,2.5382,2.3879,2.3679,0.0,0.0,0.0,0.0,0.0,0.0,0.0,0.0,0.0,0.0,0.0,0.0,0.0,0.0,0.0,0.0,0.0,0.0,0.0,0.0,0.0,0.0,0.0,0.0,0.0,0.0,0.0,0.0,0.0,0.0,0.0,0.0,0.0,0.0,0.0,0.0,0.0,0.0,0.0,0.0,0.0,0.0,0.0,0.0,0.0,0.0,0.0,0.0,0.0,0.0,0.0,0.0,0.0,0.0,0.0,0.0,0.0,0.0,0.0,3.0161,2.8657,0.0,0.0,0.0,0.0,0.0,0.0,0.0,0.0,0.0,0.0,0.0,0.0,0.0,0.0,0.0,0.0,0.0,0.0,0.0,0.0,0.0,0.0,0.0,0.0,0.0,0.0,0.0,0.0,0.0,0.0,0.0,0.0,0.0,0.0,0.0,0.0,0.0,0.0,0.0,0.0,2.6414,2.7249,2.7584,2.6833,2.6765,2.6663,2.6389,2.642,2.6018,2.5045,2.4429,0.0,0.0,0.0,0.0,0.0,0.0,0.0,0.0,0.0,0.0,0.0,0.0,0.0,0.0,0.0,0.0,0.0,0.0,0.0,0.0,0.0,0.0,0.0,0.0,0.0,0.0,0.0,0.0,0.0,0.0,0.0,0.0,0.0,0.0,0.0,0.0,0.0,0.0,0.0,0.0,0.0,0.0,0.0,0.0,0.0,0.0,0.0,0.0,0.0,0.0,0.0,0.0,0.0,3.37,3.4523,3.4464,3.3983,3.4768,3.6429,3.3517,3.2523,3.273,3.0745,0.0,0.0,0.0,0.0,0.0,0.0,0.0,0.0,0.0,0.0,0.0,0.0,0.0,0.0,0.0,0.0,0.0,0.0,0.0,0.0,0.0,0.0,3.2159,3.3255,3.3603,3.3363,3.2079,0.0,0.0,0.0,0.0,0.0,0.0,0.0,0.0,0.0,0.0,0.0,2.7868,2.8288,2.8425,2.7987,2.7954,2.7743,2.731,2.6968,2.6585,2.6151,2.5199,2.4305,0.0,0.0,0.0,0.0,0.0,0.0,0.0,0.0,0.0,0.0,0.0,0.0,0.0,0.0,0.0,0.0,0.0,0.0,0.0,0.0,0.0,0.0,0.0,0.0,0.0,0.0,0.0,0.0,0.0,0.0,0.0,0.0,3.2249,3.1881,0.0,0.0,0.0,0.0,0.0,0.0,0.0,0.0,0.0,0.0,0.0,0.0,0.0,3.232,3.3261,3.508,3.5967,3.5894,3.8189,3.9034,3.8514,3.8434,3.8576,3.883,3.7863,0.0,3.464,3.3292,0.0,0.0,0.0,0.0,0.0,0.0,0.0,0.0,0.0,0.0,0.0,0.0,0.0,0.0,0.0,0.0,0.0,0.0,0.0,0.0,0.0,0.0,3.606,3.5701,3.6072,3.6414,3.6197,3.3834,3.169,3.1511,3.0892,3.0126,0.0,0.0,0.0,0.0,0.0,0.0,2.8478,2.8546,2.8554,2.849,2.849,2.8457,2.8392,2.8346,2.8064,2.7498,2.6848,2.6323,2.6039,2.5034,0.0,0.0,0.0,0.0,0.0,0.0,0.0,0.0,0.0,0.0,0.0,0.0,0.0,0.0,0.0,0.0,0.0,0.0,0.0,0.0,0.0,0.0,0.0,0.0,0.0,0.0,0.0,0.0,0.0,3.3159,3.4057,3.2646,3.2856,3.2282,0.0,0.0,0.0,0.0,0.0,0.0,0.0,0.0,0.0,3.279,3.3994,3.5065,3.5918,3.7725,3.8608,3.8622,4.0037,4.058,4.0309,3.9956,3.9983,4.0296,3.9671,3.888,3.7807,3.593,3.434,3.2965,0.0,0.0,0.0,0.0,3.2179,3.2367,3.237,3.2363,3.2368,3.2384,0.0,0.0,0.0,0.0,0.0,0.0,0.0,3.3945,3.4531,3.5323,3.6135,3.6695,3.7051,3.7271,3.7271,3.601,3.4637,3.3803,3.3259,3.2503,3.1076,3.0678,0.0,0.0,0.0,2.9955,3.0105,2.9802,2.9435,2.9194,2.9162,2.9099,2.8908,2.8876,2.8703,2.822,2.7963,2.7484,2.6715,2.6129,2.5702,0.0,0.0,0.0,0.0,0.0,0.0,0.0,0.0,0.0,0.0,0.0,0.0,0.0,0.0,0.0,0.0,0.0,0.0,0.0,0.0,0.0,0.0,0.0,0.0,0.0,0.0,0.0,0.0,3.5099,3.584,3.3667,3.493,3.485,0.0,0.0,0.0,0.0,0.0,0.0,3.2948,3.4295,3.5052,3.5127,3.654,3.7568,3.8163,3.9685,4.0499,4.0662,4.1272,4.1489,4.1327,4.0703,4.0594,4.0838,4.0065,3.9821,3.9803,3.7876,3.6444,3.5432,3.4645,3.3914,3.3275,3.3754,3.3718,3.3487,3.3623,3.3854,3.4004,3.38,3.3677,3.3554,3.3188,0.0,0.0,0.0,0.0,3.4671,3.5554,3.5796,3.6086,3.7219,3.751,3.751,3.751,3.7329,3.6871,3.5783,3.5324,3.4558,3.2829,3.2544,0.0,3.2072,3.1694,3.1455,3.1471,3.1047,3.0547,2.9976,2.9931,2.9839,2.9591,2.956,2.9523,2.947,2.9483,2.8997,2.7927,2.7778,2.7272,2.6398,0.0,0.0,0.0,0.0,0.0,0.0,0.0,0.0,0.0,0.0,0.0,0.0,0.0,0.0,0.0,0.0,0.0,0.0,0.0,0.0,0.0,0.0,0.0,0.0,0.0,0.0,0.0,0.0,0.0,3.6316,3.8012,0.0,0.0,0.0,0.0,3.5993,3.5707,3.5994,3.7116,3.7835,3.8174,3.819,3.8827,3.9437,4.0051,4.073,4.1354,4.1924,4.2521,4.2507,4.1937,4.134,4.077,4.016,3.9007,3.883,3.9292,3.8597,3.7917,3.724,3.6049,3.4884,3.3883,3.3948,3.3254,3.2381,3.2952,3.3702,3.4562,3.5042,3.4971,3.4618,3.4009,3.3881,0.0,0.0,3.5523,3.6214,3.7147,3.7387,3.7403,3.7464,3.751,3.751,3.751,3.7329,3.7178,3.7101,3.6466,3.5701,3.4973,0.0,3.3683,3.3043,3.289,3.2685,3.2046,3.1943,3.1648,3.0911,3.0837,3.0837,3.0808,3.0808,3.1116,3.1793,3.1838,3.1544,3.0925,3.0734,3.0017,2.8575,2.7786,0.0,0.0,0.0,0.0,0.0,0.0,0.0,0.0,0.0,0.0,0.0,0.0,0.0,0.0,0.0,0.0,0.0,0.0,0.0,0.0,0.0,0.0,0.0,0.0,0.0,0.0,0.0,0.0,3.9288,4.1249,0.0,3.8799,3.8236,3.8243,3.8597,3.8602,3.8835,3.9519,3.9839,3.9947,3.9865,4.0491,4.0731,4.067,4.164,4.1879,4.1449,4.2032,4.1598,4.0255,4.0608,4.0152,3.924,3.9338,3.9473,3.9727,4.0062,3.9369,3.8059,3.7896,3.7056,3.598,3.6211,3.5769,3.5067,3.5282,3.5863,3.656,3.6827,3.6984,3.6922,3.623,3.6122,3.629,3.6592,3.684,3.7088,3.7405,3.751,3.751,3.751,3.751,3.751,3.751,3.7435,3.7405,3.7405,3.7051,3.6548,3.583,3.5626,3.5437,3.5063,3.4727,3.4503,3.4407,3.363,3.286,3.2313,3.1849,3.1463,3.1232,3.1663,3.1753,3.1324,3.212,3.1914,3.0451,3.0719,3.0422,2.9436,2.9128,2.9077,0.0,0.0,0.0,0.0,0.0,0.0,0.0,0.0,0.0,0.0,0.0,0.0,0.0,0.0,0.0,0.0,0.0,0.0,0.0,0.0,0.0,0.0,0.0,0.0,0.0,4.0904,4.2811,4.1297,4.3611,4.4373,4.1962,4.1754,4.1834,4.2009,4.1765,4.1685,4.1954,4.2049,4.2038,4.1964,4.2141,4.2107,4.1779,4.2576,4.2604,4.1896,4.2499,4.2049,4.0696,4.1256,4.0812,3.9682,3.9985,4.0134,4.0124,4.051,4.0167,3.9466,3.9491,3.8742,3.76,3.7346,3.6864,3.6423,3.6698,3.7049,3.7485,3.7905,3.8043,3.7929,3.7441,3.7405,3.751,3.751,3.751,3.751,3.751,3.751,3.751,3.751,3.751,3.751,3.751,3.751,3.751,3.751,3.7405,3.7164,3.6646,3.6682,3.6735,3.6584,3.6321,3.6082,3.5951,3.5172,3.4403,3.3869,3.338,3.2883,3.241,3.3049,3.3189,3.2443,3.323,3.3169,3.1894,3.2172,3.1985,3.1213,3.0899,3.0658,3.0464,0.0,0.0,0.0,0.0,0.0,0.0,0.0,0.0,0.0,0.0,0.0,0.0,0.0,0.0,0.0,0.0,0.0,0.0,0.0,0.0,0.0,0.0,0.0,4.0384,4.2467,4.3724,4.2561,4.5157,4.661,4.5379,4.5364,4.5672,4.6226,4.5243,4.4545,4.448,4.4476,4.4475,4.4541,4.393,4.3572,4.3531,4.3531,4.3488,4.3372,4.3961,4.3948,4.3343,4.3384,4.2692,4.1494,4.0899,4.0633,4.0527,3.9955,4.0397,4.1406,4.0768,3.9791,3.8583,3.7199,3.6404,3.6064,3.6949,3.7159,3.7208,3.8168,3.8065,3.7541,3.7526,3.751,3.751,3.751,3.751,3.751,3.751,3.751,3.751,3.751,3.751,3.751,3.751,3.751,3.751,3.751,3.751,3.751,3.751,3.751,3.751,3.751,3.751,0.0,3.6519,3.6408,3.614,3.5489,3.5394,3.5094,3.4383,3.4999,3.5394,3.5363,3.5379,3.5379,3.5363,3.525,3.4767,3.3898,3.3075,3.1986,3.068,0.0,0.0,0.0,0.0,0.0,0.0,0.0,0.0,0.0,0.0,0.0,0.0,0.0,0.0,0.0,0.0,0.0,0.0,0.0,0.0,0.0,4.2113,4.3702,4.2999,4.5161,4.6886,4.704,4.8263,4.8985,4.8687,4.8189,4.7985,4.8183,4.7135,4.6413,4.6303,4.5914,4.5646,4.557,4.543,4.4921,4.4098,4.4504,4.4059,4.2758,4.3363,4.3148,4.2183,4.2776,4.2597,4.1881,4.1744,4.1684,4.1669,4.1641,4.1522,4.1329,4.1013,4.0674,4.0238,3.9111,3.8011,3.7157,3.7903,3.8106,3.8137,3.8415,3.8381,3.8128,3.7668,3.751,3.751,3.751,3.751,3.751,3.751,3.751,3.751,3.751,3.751,3.751,3.751,3.751,3.751,3.751,3.751,3.751,3.751,3.751,3.751,3.751,3.751,3.7431,3.7212,3.6738,3.6329,3.6124,3.5695,3.5315,3.5094,3.5742,3.5695,3.4668,3.5094,3.5157,3.462,3.4561,3.44,3.4046,3.372,3.3123,0.0,0.0,0.0,0.0,0.0,0.0,0.0,0.0,0.0,0.0,0.0,0.0,0.0,0.0,0.0,0.0,0.0,0.0,0.0,0.0,0.0,0.0,4.4354,4.5682,4.599,4.7379,4.8573,4.9236,4.9679,5.004,5.0407,4.9747,4.9336,4.9404,4.8496,4.7764,4.7399,4.7087,4.6989,4.7216,4.6956,4.6498,4.5854,4.5865,4.5218,4.3931,4.3946,4.3783,4.3404,4.358,4.3463,4.3097,4.2888,4.2608,4.2325,4.2145,4.199,4.1846,0.0,0.0,0.0,0.0,3.8823,3.7923,3.8033,3.8081,3.8081,3.8081,3.8081,3.8002,3.7636,3.751,3.751,3.751,3.751,3.751,3.751,3.751,3.751,3.751,3.751,3.751,3.751,3.751,3.751,3.751,3.7685,0.0,3.7828,3.7655,3.751,3.751,3.751,3.751,3.751,3.7117,3.6864,3.6864,3.65,3.6137,3.5853,3.6469,0.0,0.0,0.0,3.5505,3.4778,3.4691,0.0,0.0,0.0,3.4233,3.4078,3.3963,0.0,0.0,3.2583,3.3039,0.0,0.0,0.0,0.0,0.0,0.0,0.0,0.0,0.0,0.0,0.0,0.0,0.0,0.0,0.0,0.0,4.655,4.7498,4.8825,4.8999,4.9236,4.9852,4.9876,5.02,5.0951,5.0342,4.9976,5.0076,4.9429,4.8764,4.8157,4.8115,0.0,0.0,0.0,4.8096,4.7993,4.7301,4.6579,4.5887,4.5175,4.5175,4.5792,4.5128,4.4796,4.467,4.3971,4.3374,4.2742,4.1936,4.1983,4.2505,4.1936,4.162,4.132,3.9993,3.9076,3.8412,3.7717,0.0,0.0,3.751,3.751,3.751,3.751,3.751,3.751,3.751,3.7524,3.7583,3.7583,3.7642,3.77,3.77,3.77,3.77,3.77,3.77,3.77,3.77,3.8071,3.839,3.839,3.8001,3.77,3.77,3.77,3.77,3.77,3.77,3.77,3.77,3.77,0.0,3.6781,3.7306,3.7398,3.6654,3.6499,3.6241,3.5729,3.5542,3.5684,3.6289,3.5522,3.5282,3.5605,3.4985,3.4601,3.4448,3.4152,3.4334,0.0,0.0,0.0,0.0,0.0,0.0,0.0,0.0,0.0,0.0,0.0,0.0,0.0,0.0,0.0,4.6408,4.7656,4.8778,4.96,4.9726,4.9773,4.986,4.9876,5.02,5.0951,5.0342,5.0176,5.0749,5.0111,4.9661,4.9501,4.9501,4.9582,4.9701,4.9582,4.9001,4.7946,4.775,4.7057,4.5814,4.5656,0.0,4.5807,4.5665,4.527,4.467,4.3971,4.3608,4.3421,4.2126,4.1667,4.1841,4.2299,4.1778,4.0688,3.9819,3.9076,3.8412,3.7717,3.751,3.751,3.751,3.751,3.751,3.751,3.751,0.0,3.751,3.7799,3.8141,3.8141,3.8507,3.8882,3.8882,3.8882,3.8882,3.8882,3.8882,3.8882,3.8882,3.8947,3.9028,3.9028,3.892,3.8882,3.8882,3.8882,3.8882,3.8882,3.8882,3.8882,3.8882,3.8882,3.8816,3.8684,3.8799,3.8553,3.7824,3.7206,3.7091,3.7544,3.7482,3.7246,3.6834,3.6677,3.6059,3.4967,3.5158,3.5509,3.6014,3.4734,3.4407,0.0,0.0,0.0,0.0,0.0,0.0,0.0,0.0,0.0,0.0,0.0,4.4461,4.4957,0.0,4.658,4.8121,4.8652,4.9126,4.9821,4.9876,4.9876,4.9876,4.9876,5.0058,5.0405,5.0137,5.0074,5.0421,5.0121,4.9876,4.9876,4.9876,4.9876,4.9876,4.9876,4.96,4.892,4.8241,4.7545,4.685,4.5776,4.546,4.5792,4.508,4.4954,4.5207,4.4148,4.3706,4.3608,4.2584,4.192,4.1652,4.2394,4.1841,4.0514,3.9771,3.9076,3.8412,3.7717,3.751,3.7524,3.7799,3.7915,3.7972,3.8258,3.8343,3.8343,3.8343,3.8535,3.8739,3.8739,3.8974,3.9206,3.9206,3.9206,3.9206,3.9206,3.9206,3.9206,3.9206,3.9463,3.9697,3.9697,3.9978,3.9978,3.9295,3.9206,3.9206,3.9206,3.9206,3.9206,3.9206,3.9269,3.9295,3.9295,3.8999,3.8617,3.8174,3.746,3.7045,3.7053,3.6986,3.692,3.6855,3.648,3.6246,3.6146,3.5953,3.6014,3.6327,3.5559,3.5438,0.0,0.0,0.0,0.0,0.0,0.0,0.0,4.3306,4.365,4.5214,4.5837,4.6471,4.7702,4.7582,4.7938,4.9826,4.9676,4.9501,4.9955,5.0034,4.9995,4.9916,4.9876,4.9876,4.9876,4.9876,4.9876,4.9876,4.9876,4.9876,4.9876,4.9876,4.9876,4.9876,4.9876,4.975,4.9521,4.8446,4.7767,4.7466,4.5744,4.5159,4.5555,4.4397,4.4429,4.5349,4.418,4.3627,4.3469,4.2916,4.2252,4.1685,4.2403,4.1881,4.069,3.9834,3.9217,3.8753,3.7957,3.7714,3.7902,3.8322,3.8474,3.8574,3.9055,3.9206,3.9206,3.9206,3.9286,3.9348,3.9401,3.948,3.9558,3.9584,3.9584,3.9584,3.9584,3.9584,3.9584,3.9584,4.0011,4.0383,4.0383,4.0849,4.0825,3.9749,3.9584,3.9584,3.9584,3.9584,3.9584,3.9584,3.9697,3.9681,3.9547,3.8916,3.8453,3.8346,3.7642,3.7021,3.6575,3.6363,3.6461,3.6877,3.6298,3.6425,3.7271,3.6611,3.6259,3.6208,3.6208,3.6388,3.8975,3.9966,4.1864,4.3069,4.3404,4.4608,0.0,4.8365,4.74,4.9469,5.0156,5.0276,4.9851,5.0239,5.0671,5.0903,5.0903,5.0773,5.047,5.0448,5.0292,4.9955,4.9876,4.9876,4.9876,4.9876,4.9876,4.9876,4.9876,4.9876,4.9876,4.9876,4.9876,4.9876,4.9876,4.9347,4.8146,4.7972,4.7277,4.6044,4.5807,4.5396,4.4828,4.467,4.4334,4.3908,4.375,4.3374,4.2805,4.271,4.2252,4.1654,4.2334,4.2119,4.1252,3.9975,3.978,4.0008,3.8666,3.8562,3.9017,3.9082,3.9098,3.9109,3.9179,3.9206,3.9206,3.9206,3.9558,3.9952,4.0061,4.0483,4.0894,4.096,4.0984,4.0984,4.0984,4.0984,4.0984,4.0984,4.103,4.11,4.11,4.1146,4.1146,4.1007,4.0984,4.0984,4.0984,4.0984,4.0984,4.0984,4.1007,4.0747,4.0083,3.9304,3.8837,3.8814,3.8122,3.7988,3.8559,3.7932,3.7547,3.7487,3.7418,3.7068,3.6422,3.6335,3.6301,3.628,3.628,3.6225,4.2608,4.3299,4.4338,4.5815,4.6831,4.7983,5.0052,4.9996,4.9971,5.1688,5.2184,5.2123,5.1595,5.172,5.1753,5.1177,5.1348,5.1406,5.093,5.0624,5.0448,5.0253,5.0438,5.0532,5.0532,5.0168,5.0089,5.05,5.0153,4.9876,4.9876,4.9876,4.9876,4.9876,4.9876,4.9457,4.8478,4.8083,4.7387,4.6376,4.5997,4.5649,4.5333,4.4907,4.4338,4.3687,4.3687,4.35,4.3231,4.3231,4.3009,4.2772,4.3491,4.3305,4.2567,4.1591,4.0867,4.0254,3.9659,3.9347,3.9259,3.9542,3.9723,3.9851,4.0204,4.0336,4.0351,4.0351,4.0538,4.0707,4.0778,4.0977,4.1175,4.1186,4.1209,4.1209,4.1209,4.1209,4.1209,4.1209,4.1255,4.1318,4.1318,4.1386,4.1431,4.1431,4.13,4.1209,4.1209,4.1209,4.1232,4.1318,4.1318,4.1021,4.0271,3.9551,3.8922,3.8422,3.7655,3.7376,3.7669,3.7349,3.7134,3.7092,3.7071,3.6856,3.6423,3.6423,3.6381,3.6301,3.6301,3.6259,4.4329,4.5358,4.6362,4.7915,4.9493,5.0743,5.1011,5.1346,5.1947,5.3229,5.3382,5.323,5.2941,5.2906,5.2647,5.199,5.2189,5.2208,5.157,5.1236,5.0951,5.0701,5.0777,5.0953,5.1144,5.077,5.0627,5.0943,5.05,5.0121,4.9892,4.9876,4.9876,4.9876,4.9876,4.9584,4.8904,4.8225,4.753,4.6787,4.6123,4.5697,4.5476,4.496,4.4418,4.3933,4.3933,4.3927,4.3845,4.3681,4.3537,4.3562,4.4334,4.4173,4.3451,4.3188,4.2143,4.0761,4.0371,3.9993,3.9782,4.0187,4.0375,4.0546,4.1012,4.1157,4.1209,4.1209,4.1209,4.1209,4.1255,4.1272,4.1255,4.13,4.13,4.13,4.13,4.13,4.13,4.13,4.1386,4.1448,4.1448,4.1538,4.1604,4.1604,4.1431,4.13,4.13,4.13,4.1363,4.1448,4.1063,4.0591,4.0071,3.9189,3.8403,3.7761,3.7184,3.6869,3.6869,3.6806,3.6766,3.6725,3.6725,3.6664,3.6561,3.6523,3.6444,3.6343,3.6322,3.6243,4.2268,4.4624,4.7059,4.866,5.0592,5.2367,5.3294,5.3247,5.3298,5.4254,5.4141,5.3879,5.3879,5.3879,5.3847,5.3814,5.3847,5.3533,5.2594,5.2454,5.2082,5.1177,5.0755,5.079,5.1517,5.1803,5.167,5.1062,5.0999,5.0642,4.9963,4.9876,4.9876,4.9876,4.9876,4.9584,4.8904,4.8225,4.753,4.6787,4.6123,4.5444,4.4717,4.4711,4.4642,4.4566,4.4566,4.4549,4.4514,4.3783,4.3499,4.3571,4.4373,4.4211,4.3596,4.4345,4.3572,4.1936,4.0493,4.0468,4.1047,4.1047,4.1105,4.1169,4.1186,4.1209,4.1209,4.1209,4.1209,4.1232,4.1363,4.1403,4.1426,4.156,4.1582,4.1582,4.1582,4.1582,4.1582,4.1582,4.1582,4.1604,4.1604,4.1604,4.1604,4.1604,4.1604,4.1582,4.1582,4.1582,4.1582,4.1604,4.0249,3.9354,3.9336,3.7935,3.706,3.7042,3.7025,3.6989,3.6989,3.6987,3.6928,3.6809,3.6809,3.6748,3.6702,3.6564,3.6502,3.6502,3.6343,3.6093,4.4698,4.7022,4.9367,5.1441,5.2963,5.4009,5.4313,5.4443,5.4582,5.4896,5.4264,5.3618,5.3618,5.3618,5.3696,5.3859,5.4632,5.4861,5.3852,5.4187,5.3803,5.1807,5.2345,5.2666,5.2059,5.1152,5.0721,5.0999,5.0548,5.0168,4.9892,4.9876,4.9876,4.9876,4.9876,4.9378,4.8241,4.8004,4.7308,4.6139,4.586,4.559,4.5294,4.5387,4.5177,4.4729,4.4833,4.4846,4.4745,4.3967,4.417,4.4942,4.4199,4.406,4.4207,4.3444,4.2833,4.226,4.1767,4.141,4.1157,4.1157,4.1249,4.134,4.134,4.1386,4.1453,4.1453,4.1453,4.1475,4.1515,4.1538,4.1538,4.1582,4.1604,4.1604,4.1604,4.1604,4.1604,4.1604,4.1604,4.1604,4.1604,4.1604,4.1604,4.1604,4.1604,4.1604,4.1604,4.1604,4.1604,4.1604,4.0691,3.9884,3.9336,3.8339,3.7514,3.7042,3.7007,3.7007,3.7007,3.7007,3.7069,3.7264,3.7264,3.7357,3.7505,3.7451,3.7359,3.7228,3.7173,3.7068,4.6303,4.8476,5.0562,5.2839,5.4102,5.4811,5.4873,5.5035,5.5229,5.5277,5.4289,5.3391,5.3391,5.3164,5.3011,5.3193,5.42,5.4832,5.4479,5.4684,5.4296,5.2862,5.341,5.3416,5.2194,5.1231,5.0866,5.1168,5.0628,5.0184,4.9892,4.9876,4.9805,4.9552,4.967,4.9208,4.8082,4.8115,4.7653,4.6708,4.6386,4.6203,4.6143,4.5932,4.5606,4.5162,4.4959,4.4879,4.4775,4.3958,4.4172,4.4873,4.3931,4.3729,4.3833,4.2893,4.2376,4.2091,4.1998,4.1667,4.1255,4.1255,4.1363,4.1471,4.1471,4.1538,4.1604,4.1604,4.1604,4.1604,4.1604,4.1604,4.1604,4.1604,4.1604,4.1604,4.1604,4.1604,4.1604,4.1604,4.1604,4.1604,4.1604,4.1604,4.1604,4.1604,4.1719,4.1678,4.1258,4.12,4.1095,4.0814,4.0095,3.949,3.9123,3.8349,3.7736,3.7411,3.7375,3.7375,3.7375,3.7375,3.7504,3.7703,3.7703,3.7808,3.7981,3.7929,3.7825,3.7702,3.7649,3.7506,4.6906,4.8855,5.058,5.2787,5.4067,5.4824,5.4909,5.5091,5.5259,5.5373,5.4191,5.3148,5.3096,5.2488,5.2021,5.2144,5.2892,5.3783,5.4738,5.4243,5.3917,5.4312,5.396,5.3213,5.199,5.209,5.21,5.1674,5.1256,5.0747,4.9987,5.0034,4.9717,4.9068,4.9403,4.924,4.8519,4.8574,4.8465,4.8228,4.7512,4.7143,4.7011,4.6259,4.5858,4.576,4.5037,4.4707,4.4655,4.3802,4.3489,4.353,4.3563,4.3191,4.2614,4.2717,4.2271,4.1542,4.13,4.1318,4.1403,4.1403,4.1493,4.1604,4.1604,4.1604,4.1604,4.1604,4.1604,4.1604,4.1604,4.1604,4.1604,4.1604,4.1604,4.1604,4.1604,4.1604,4.1604,4.1604,4.1626,4.1648,4.1648,4.1648,4.1653,4.1653,4.1984,4.1825,4.0658,4.0528,4.025,3.9455,3.8646,3.8314,3.87,3.7988,3.7685,3.8085,3.8101,3.8083,3.8047,3.8083,3.8083,3.8046,3.8117,3.8135,3.8152,3.8013,3.7962,3.7945,3.7823,3.7529,4.7172,4.9252,5.1097,5.2235,5.3744,5.4822,5.4296,5.485,5.5098,5.4015,5.2997,5.2137,5.1575,5.1768,5.2565,5.4331,5.5753,5.6812,5.7233,5.7489,5.6912,5.5092,5.5156,5.4632,5.2938,5.2935,5.2809,5.229,5.1889,5.1415,5.0832,5.1541,5.1734,5.1149,5.1078,5.0716,4.9971,4.8911,4.8042,4.7415,4.7216,4.6766,4.6143,4.6014,4.5952,4.5912,4.5285,4.5001,4.4896,4.3547,4.3302,4.3687,4.2572,4.2402,4.27,4.2108,4.178,4.1582,4.152,4.152,4.156,4.156,4.156,4.1604,4.1604,4.1604,4.1604,4.1604,4.1604,4.1604,4.1604,4.1604,4.1604,4.1604,4.1604,4.1604,4.1604,4.1604,4.1604,4.1604,4.1852,4.205,4.205,4.23,4.2501,4.2501,4.258,4.2232,4.1022,4.1117,4.1007,4.0216,3.9408,3.896,3.9067,3.8381,3.7982,3.8101,3.8101,3.7813,3.7163,3.7759,3.7945,3.7582,3.818,3.8597,3.8836,3.8807,3.8763,3.8722,3.8673,3.8581,4.7844,4.9602,5.1287,5.2136,5.342,5.4326,5.3619,5.3999,5.405,5.2506,5.154,5.0768,4.9995,5.0768,5.1961,5.3278,5.5051,5.668,5.7852,5.7971,5.758,5.66,5.6385,5.5738,5.4126,5.4025,5.3805,5.3163,5.2579,5.212,5.1813,5.2387,5.243,5.1816,5.1547,5.1054,5.032,4.9501,4.8812,4.8235,4.7879,4.728,4.6504,4.6205,4.6097,4.6045,4.4997,4.4571,4.4448,4.2921,4.2517,4.2798,4.1938,4.2096,4.271,4.1903,4.1832,4.2078,4.1727,4.1604,4.1604,4.1604,4.1604,4.1604,4.1604,4.1604,4.1604,4.1604,4.1604,4.1604,4.1604,4.1604,4.1604,4.1604,4.1604,4.1604,4.1604,4.1885,4.2286,4.2807,4.2818,4.278,4.2963,4.3182,4.3208,4.2846,4.2959,4.2559,4.1179,4.1053,4.0637,3.9515,3.899,3.8768,3.8917,3.8551,3.8378,3.852,3.8535,3.8315,3.7824,3.8279,3.8426,3.8147,3.8586,3.8913,3.9101,3.9101,3.9073,3.9031,3.9031,3.9007,4.8586,4.9873,5.1208,5.2099,5.3058,5.3601,5.2916,5.2901,5.2558,5.0908,5.0013,4.9293,4.8503,4.9662,5.0855,5.1277,5.3102,5.5314,5.7772,5.7333,5.711,5.8042,5.7476,5.6487,5.5171,5.5171,5.4864,5.4078,5.3448,5.2993,5.2874,5.2993,5.2708,5.1914,5.1549,5.0998,5.0222,5.0205,4.9983,4.9521,4.8837,4.8064,4.7222,4.6512,4.6196,4.6126,4.4694,4.3992,4.3781,4.2359,4.171,4.1604,4.1604,4.2026,4.257,4.1868,4.2043,4.2552,4.185,4.1604,4.1604,4.1604,4.1604,4.1604,4.1604,4.1604,4.1604,4.1604,4.1604,4.1604,4.1604,4.1604,4.1604,4.1604,4.1604,4.1626,4.1653,4.2353,4.3271,4.4307,4.408,4.3796,4.4044,4.414,4.3905,4.3123,4.3265,4.2958,4.145,4.0947,4.0087,3.8398,3.8342,3.8474,3.8658,3.8673,3.8792,3.9087,3.9101,3.9045,3.8952,3.9045,3.9045,3.8934,3.9045,3.9101,3.9101,3.9101,3.9101,3.9101,3.9101,3.9059,4.8586,4.9562,5.0541,5.1315,5.2283,5.2881,5.2158,5.2096,5.1593,4.9381,4.8793,4.8486,4.7731,4.8854,5.0733,5.3296,5.4612,5.6332,5.9282,5.8474,5.7671,5.7841,5.7754,5.6871,5.4946,5.5723,5.5837,5.4669,5.4834,5.4631,5.3747,5.452,5.4373,5.2991,5.2875,5.2175,5.0764,5.0764,5.0073,4.8731,4.8565,4.7758,4.6389,4.6267,4.6196,4.6144,4.5273,4.4518,4.3834,4.2956,4.2201,4.1604,4.1604,4.1692,4.1797,4.1657,4.1692,4.1797,4.1657,4.1604,4.1604,4.1604,4.1604,4.1604,4.1604,4.1604,4.1604,4.1604,4.1604,4.1604,4.1604,4.1604,4.1604,4.1604,4.1604,4.1697,4.2008,4.299,4.3846,4.407,4.4852,4.5278,4.4674,4.4847,4.4825,4.4056,4.4008,4.3717,4.2768,4.2492,4.1499,3.9168,3.9575,3.9733,3.9073,3.9013,3.9045,3.9101,3.9101,3.8804,3.8135,3.8748,3.8785,3.8116,3.8767,3.9101,3.9101,3.9101,3.9101,3.9101,3.9101,3.9101,4.9189,5.0092,5.098,5.183,5.2457,5.2612,5.157,5.1047,5.0136,4.7793,4.7635,4.7696,4.6923,4.838,5.0311,5.2225,5.3524,5.5367,5.8474,5.8263,5.8105,5.8895,5.8667,5.7872,5.6435,5.651,5.619,5.5196,5.5341,5.5282,5.4772,5.482,5.4366,5.3254,5.2786,5.2032,5.0908,5.0891,5.0101,4.8556,4.8512,4.7688,4.6196,4.6196,4.6196,4.6161,4.5431,4.4887,4.4466,4.3693,4.2921,4.2219,4.2219,4.2219,4.2184,4.1762,4.1868,4.2166,4.1745,4.1604,4.1604,4.1604,4.1604,4.1604,4.1604,4.1604,4.1604,4.1604,4.1604,4.1648,4.1852,4.1899,4.1963,4.2157,4.2241,4.245,4.3062,4.337,4.3815,4.4839,4.5222,4.5322,4.5156,4.5281,4.5146,4.4371,4.4259,4.3957,4.3123,4.333,4.2783,4.0714,4.0882,4.0775,3.9895,3.9849,3.9649,3.9133,3.9129,3.8956,3.8544,3.8897,3.8915,3.8525,3.8897,3.9101,3.9101,3.9101,3.9101,3.9101,3.9101,3.9101,5.0264,5.0945,5.1628,5.2724,5.2852,5.24,5.1179,5.0136,4.8819,4.6653,4.6688,4.6958,4.6319,4.7854,4.9574,5.0715,5.1909,5.3892,5.7316,5.7649,5.8053,5.944,5.9247,5.8562,5.7421,5.6877,5.6297,5.5578,5.5349,5.5244,5.5244,5.4647,5.3875,5.2962,5.233,5.1663,5.0891,5.0715,5.0013,4.8819,4.8626,4.7776,4.646,4.646,4.6354,4.6161,4.5582,4.5256,4.5045,4.4413,4.3623,4.2816,4.2816,4.2693,4.2482,4.1832,4.2008,4.2464,4.1832,4.1604,4.1604,4.1604,4.1604,4.1604,4.1604,4.1653,4.174,4.174,4.1788,4.192,4.2239,4.2465,4.2727,4.3224,4.3341,4.3506,4.4126,4.3925,4.4063,4.5611,4.5549,4.5331,4.5472,4.5499,4.5234,4.4427,4.4329,4.4086,4.3409,4.3914,4.3839,4.2525,4.2198,4.1651,4.0612,4.056,4.0191,3.923,3.9215,3.9215,3.9175,3.9156,3.9156,3.9156,3.9156,3.9156,3.9156,3.9129,3.9129,3.9129,3.9115,3.9101,5.1827,5.1923,5.1975,5.3579,5.3013,5.1881,5.1084,4.9714,4.8144,4.653,4.6267,4.6284,4.6214,4.6976,4.8328,5.0539,5.1013,5.2664,5.7175,5.7175,5.7035,5.7912,5.8615,5.8141,5.5946,5.6245,5.6297,5.5578,5.4823,5.4419,5.4419,5.4349,5.3647,5.2172,5.2021,5.1663,5.0891,5.0198,4.9758,4.96,4.8854,4.8082,4.7292,4.7292,4.6906,4.6196,4.6126,4.5705,4.5098,4.5027,4.4132,4.2816,4.2816,4.2359,4.171,4.1639,4.1657,4.171,4.1639,4.1604,4.1604,4.1604,4.1604,4.1604,4.1604,4.1852,4.2136,4.2136,4.242,4.2715,4.2734,4.3297,4.4059,4.494,4.493,4.4732,4.4806,4.5071,4.5329,4.5509,4.6088,4.6309,4.563,4.5499,4.5249,4.4499,4.4383,4.4393,4.4374,4.443,4.443,4.4261,4.3418,4.2282,4.0718,4.0606,4.0251,3.9416,3.9391,3.9391,3.9373,3.9373,3.9373,3.9373,3.9373,3.9373,3.9373,3.9242,3.9183,3.9183,3.9129,3.9101,5.1246,5.2439,5.3253,5.3923,5.3041,5.1821,5.1066,4.9311,4.7538,4.6425,4.6196,4.6196,4.6196,4.646,4.7292,4.9153,4.9469,5.0768,5.4507,5.4753,5.5174,5.6877,5.7368,5.7193,5.6245,5.642,5.6087,5.4875,5.4946,5.4419,5.2997,5.2927,5.2646,5.2004,5.1575,5.1189,5.0891,5.0575,5.0198,4.9706,4.9363,4.8573,4.7397,4.7397,4.6958,4.6196,4.6196,4.6021,4.5758,4.5758,4.5126,4.415,4.3658,4.3009,4.2271,4.178,4.192,4.2254,4.178,4.2079,4.2601,4.2122,4.2133,4.2279,4.2029,4.2239,4.256,4.256,4.2716,4.305,4.3816,4.4447,4.5001,4.5367,4.5029,4.4609,4.4609,4.4748,4.5034,4.5536,4.5892,4.6004,4.5686,4.5629,4.5363,4.4571,4.4473,4.4473,4.4501,4.4501,4.4501,4.4501,4.3708,4.2692,4.1477,4.0974,4.0343,3.9461,3.9444,3.9444,3.9405,3.9405,3.9405,3.9405,3.9405,3.9405,3.9405,3.9346,3.9315,3.9315,3.9288,3.9275,5.1164,5.2922,5.4162,5.4449,5.3245,5.1821,5.1066,4.9065,4.7169,4.6372,4.6196,4.6196,4.6196,4.6196,4.6635,4.7977,4.8355,4.9539,5.2435,5.3032,5.3886,5.5701,5.5911,5.5911,5.5911,5.6139,5.5823,5.4753,5.477,5.4103,5.2453,5.1926,5.1681,5.1681,5.1171,5.0891,5.0891,5.0417,5.0013,4.9706,4.9451,4.8661,4.7397,4.7625,4.7187,4.6196,4.6196,4.6196,4.6196,4.6196,4.5617,4.4711,4.4378,4.3658,4.2763,4.2412,4.273,4.3253,4.2714,4.2999,4.3553,4.3001,4.2934,4.3014,4.2716,4.281,4.3014,4.3069,4.3194,4.3625,4.5003,4.5462,4.5698,4.646,4.5885,4.5232,4.5457,4.5373,4.5402,4.5979,4.6073,4.5998,4.5735,4.5697,4.5435,4.4613,4.4501,4.4501,4.4501,4.4501,4.4501,4.4501,4.3782,4.2943,4.1994,4.1453,4.0665,3.9526,3.9508,3.9508,3.9469,3.9469,3.9469,3.9469,3.9469,3.9469,3.9469,3.9444,3.9431,3.9431,3.9418,3.9405,5.2223,5.3469,5.4314,5.5238,5.3752,5.1821,5.1066,4.9065,4.7169,4.6372,4.6196,4.6196,4.6196,4.6196,4.646,4.7274,4.8029,4.932,5.1698,5.2699,5.3471,5.4226,5.4331,5.4331,5.4331,5.5051,5.5507,5.5507,5.4068,5.3218,5.3201,5.1761,5.0908,5.0908,5.0891,5.0891,5.0891,4.9328,4.8924,4.9706,4.8889,4.8135,4.7415,4.817,4.7653,4.6196,4.6196,4.6196,4.6196,4.6196,4.5284,4.3992,4.4782,4.415,4.2903,4.3605,4.4173,4.4596,4.4653,4.4462,4.4196,4.4272,4.4012,4.3693,4.3693,4.359,4.3522,4.3658,4.3986,4.4659,4.6249,4.6139,4.6218,4.8671,4.8096,4.7199,4.7988,4.7537,4.6993,4.6978,4.6993,4.6711,4.5848,4.5697,4.5435,4.4613,4.4501,4.4501,4.4501,4.4501,4.4501,4.4501,4.3782,4.2956,4.2079,4.1986,4.1291,3.9702,3.9608,3.9608,3.9608,3.9608,3.9608,3.9608,3.9608,3.9608,3.9608,3.9533,3.9495,3.9495,3.9431,3.9405,4.9955,5.1245,5.1976,5.2295,5.0978,4.9556,4.9328,4.7889,4.6495,4.6249,4.6196,4.6196,4.6196,4.6196,4.6635,4.7994,4.8398,4.9153,5.0996,5.1909,5.2664,5.3454,5.4489,5.5139,5.5139,5.5367,5.5069,5.3998,5.3945,5.326,5.1698,5.1645,5.1417,5.0908,5.0891,5.0891,5.0891,4.9837,4.9714,5.0531,4.9334,4.8652,4.8405,4.8278,4.7684,4.6749,4.6749,4.6749,4.6749,4.6749,4.6465,4.599,4.5688,4.5419,4.5154,4.4832,4.5281,4.5949,4.5428,4.5716,4.6139,4.5053,4.4811,4.4839,4.4322,4.4109,4.4175,4.4811,4.5533,4.6188,4.6772,4.714,4.7451,4.7661,4.7357,4.7068,4.7331,4.7181,4.7162,4.7706,4.7819,4.7725,4.7462,4.6955,4.6298,4.5453,4.4838,4.4501,4.4501,4.4501,4.4501,4.4501,4.4271,4.3801,4.2956,4.1849,4.0966,4.044,3.9908,3.9589,3.9589,3.9589,3.9589,3.9589,3.9589,3.9589,3.9589,3.9583,3.9571,3.9571,3.9558,3.9607,4.8426,4.9985,5.0891,5.0891,4.9697,4.8495,4.8538,4.7319,4.6221,4.6343,4.627,4.6221,4.6343,4.6368,4.6685,4.7688,4.838,4.9268,5.0558,5.167,5.2597,5.3281,5.4468,5.5243,5.5243,5.5605,5.5327,5.4038,5.4091,5.3313,5.1282,5.1326,5.1061,5.0328,5.0383,5.04,5.031,4.9413,4.9272,4.9825,4.9011,4.8464,4.818,4.8135,4.7688,4.6998,4.6998,4.6998,0.0,4.712,4.699,4.6721,4.6604,4.6504,4.642,4.6203,4.664,4.7314,4.682,4.7092,4.7387,4.6118,4.5423,4.5084,4.4936,4.4847,4.493,4.5479,4.6263,4.7027,4.7353,4.7594,4.7781,4.7913,4.7687,4.7537,4.7875,4.795,4.8101,4.8589,4.8683,4.8495,4.7856,4.7575,4.6955,4.5472,4.5078,4.4838,4.4538,4.4501,4.4501,4.4501,4.4501,4.4294,4.3801,4.2524,4.1473,4.0835,4.034,3.9927,3.9608,3.9589,3.9589,3.9589,3.9589,3.9589,3.9589,3.9668,3.9715,3.9715,3.9789,3.9892,0.0,4.9346,5.0584,5.0584,4.9451,4.8363,4.8467,4.7317,0.0,4.6495,4.6352,4.6255,4.6519,4.6525,4.6584,4.6684,4.8117,4.9531,5.0376,5.1929,5.3165,5.3654,5.4406,5.4894,5.4841,5.5747,5.5972,5.5187,5.4367,5.3207,5.1604,5.0862,5.012,4.9264,4.947,4.9498,4.9293,4.8382,4.8045,4.8277,4.8152,4.7806,4.7222,4.7788,4.7704,4.7066,4.7066,4.7048,4.7116,4.7356,4.7072,4.6574,4.7492,4.7449,4.696,4.7633,4.8178,4.8586,4.8656,4.8414,4.7994,4.7245,4.5885,4.4651,4.5528,4.5754,4.5716,4.5848,4.6467,4.7256,4.8007,4.7687,4.7556,4.9058,4.8833,4.8514,4.934,4.9509,4.9509,4.9509,4.9509,4.902,4.7462,4.7744,4.7406,4.5026,4.5266,4.5416,4.4594,4.4501,4.4501,4.4515,4.4496,4.451,4.4537,4.3721,4.2543,4.0985,4.0778,4.0384,3.9627,3.9614,3.9614,3.9589,3.9614,3.9626,3.965,3.9826,3.9924,3.9935,4.012,4.0214,4.5029,0.0,4.7335,4.7558,4.7178,4.684,0.0,4.6921,4.6407,4.6059,4.5934,4.5912,4.598,4.598,4.6372,4.7541,4.8087,4.8883,5.0298,5.2368,5.4028,5.4723,5.5525,5.5801,5.5169,5.5312,5.5152,5.4331,5.3546,5.2396,5.0827,5.0602,4.9943,4.8729,4.8556,4.8745,4.9293,4.9067,4.9281,4.9924,4.8898,4.8649,4.9049,4.8181,4.771,4.7529,4.7529,4.7642,4.7854,4.7917,4.7986,4.807,4.8329,4.8421,4.8488,4.8655,4.8939,4.9279,4.9276,4.8796,4.8052,4.726,4.5885,4.4763,4.6261,4.6223,4.596,4.7237,4.7763,4.795,4.8138,4.8551,4.8833,4.857,4.8852,4.9246,4.9471,4.9509,4.9509,4.9509,4.9509,4.9377,4.8983,4.8514,4.7781,4.6599,4.6017,4.5416,4.4594,4.4501,4.4537,4.4646,4.4659,4.4745,4.4946,4.3316,4.2136,4.1742,4.0553,3.9796,3.9608,3.9743,3.9754,3.9589,3.9743,3.9914,4.006,4.011,4.0129,4.0139,4.0186,4.0286,4.4294,4.511,4.5893,4.6175,4.6395,4.6631,4.6934,4.6888,4.6634,4.6056,4.5851,4.5824,4.5917,4.5939,4.6332,4.7527,4.8465,4.9724,5.17,5.3254,5.4486,5.5284,5.5767,5.6,5.5928,5.572,5.5097,5.3947,5.3113,5.182,4.988,4.9772,4.9261,4.8171,4.7985,4.8138,4.8569,4.8813,4.9028,4.9216,4.8848,4.8716,4.8752,4.8034,4.7783,4.7891,4.7891,4.8053,4.8345,4.8477,4.8623,4.8765,4.8514,4.8742,4.9174,4.8781,4.899,4.9509,4.9509,4.8683,4.7631,4.7575,4.643,4.5359,4.7049,4.7218,4.703,4.7932,4.8495,4.8795,4.8795,4.9152,4.9377,4.8908,4.9152,4.9509,4.9509,4.9509,4.9509,4.9509,4.9509,4.9509,4.9509,4.9114,4.8544,4.7757,4.6925,4.6125,4.5383,4.4931,4.4725,4.477,4.4783,4.4876,4.5074,4.3734,4.2718,4.2382,4.1551,4.0715,3.9908,3.9993,3.9993,3.988,3.9974,4.0082,4.0192,4.0298,4.034,4.034,4.0434,4.053,4.4253,4.4978,4.5564,4.5784,4.6413,4.702,4.707,4.6981,4.6704,4.6097,4.5739,4.5616,4.5917,4.6086,4.6464,4.7381,4.9179,5.1267,5.3566,5.4314,5.4885,5.5595,5.5775,5.6001,5.6451,5.5995,5.5051,5.3621,5.2661,5.1194,4.9018,4.8891,4.8529,4.7735,4.7717,4.7717,4.7717,4.8283,4.8337,4.7877,4.8565,4.8572,4.7943,4.7816,4.7911,4.8192,4.8192,4.8364,4.8678,4.8906,4.9044,4.9019,4.8587,4.8852,4.9415,4.8664,4.887,4.9471,4.9358,4.8363,4.7293,4.7969,4.7162,4.6204,4.7894,4.8307,4.8232,4.8363,4.8927,4.9509,4.9509,4.9509,4.9509,4.9509,4.9509,4.9509,4.9509,4.9602,4.9659,4.9527,4.9618,4.9709,4.9709,4.9739,4.9499,4.8744,4.7947,4.7119,4.6304,4.545,4.4943,4.4967,4.4972,4.5057,4.5213,4.4593,4.3896,4.3148,4.278,4.189,4.0304,4.0221,4.023,4.0287,4.0263,4.0263,4.0287,4.0463,4.0545,4.0552,4.0732,4.0806,4.3658,4.4974,4.6069,4.6069,4.6547,4.7093,4.7508,4.6902,4.6079,4.5533,4.4849,4.4596,4.5285,4.5972,4.6912,4.8413,5.061,5.2733,5.4472,5.5335,5.5799,5.5926,5.6541,5.6504,5.5304,5.4502,5.3675,5.2752,5.1303,4.9999,4.8945,4.8891,4.8529,4.7735,4.7717,4.7717,4.7717,4.8471,4.8815,4.871,4.8837,4.895,4.9019,4.8346,4.8212,4.8532,4.8532,4.8678,4.894,4.8974,4.9162,4.9409,4.9324,4.9377,4.949,4.9358,4.9396,4.9396,4.8664,4.8232,4.8044,4.8157,4.7575,4.7124,4.8795,4.8795,4.8345,4.9096,4.9396,4.9509,4.9509,4.9509,4.9509,4.9509,4.9509,4.9509,4.9509,5.0034,5.0297,4.9621,5.0142,5.0685,5.0681,5.078,5.0582,4.9795,4.8943,4.7863,4.6392,4.5532,4.5115,4.5231,4.5342,4.5518,4.5757,4.5662,4.5286,4.4546,4.2749,4.1316,4.0494,4.0287,4.0362,4.0711,4.0545,4.0538,4.0711,4.0734,4.074,4.074,4.0796,4.0801,4.3198,4.4175,4.515,4.5583,4.687,4.7983,4.7744,4.7325,4.6777,4.6085,4.5653,4.5635,4.645,4.6902,4.7971,5.0452,5.1774,5.3059,5.4671,5.4816,5.4925,5.5341,5.574,5.5685,5.4979,5.3784,5.2715,5.19,5.0361,4.9112,4.8275,4.8239,4.8164,4.7911,4.7931,4.7994,4.819,4.8556,4.864,4.8496,4.9096,4.922,4.8916,4.8548,4.8532,4.8819,4.8819,4.8732,4.8605,4.9092,4.908,4.8795,4.8795,4.9096,4.9509,4.9509,4.9509,4.9377,4.8495,4.8194,4.8194,4.8194,4.795,4.7875,4.9114,4.9227,4.8983,4.9396,4.9509,4.9509,4.9509,4.9509,4.9509,4.9509,4.9509,4.9521,4.9593,4.9909,5.0071,4.9768,5.0406,5.1012,5.0998,5.1069,5.0987,5.0707,4.953,4.8302,4.7208,4.6413,4.5811,4.5448,4.5528,4.5696,4.5886,4.59,4.5376,4.4166,4.271,4.1525,4.0754,4.0623,4.0666,4.0849,4.0762,4.0762,4.0854,4.0854,4.0854,4.0854,4.0853,4.0848,4.3118,4.3769,4.4532,4.5207,4.6726,4.8022,4.7986,4.7678,4.7301,4.6866,4.6631,4.6703,4.7319,4.788,4.9224,5.2141,5.2763,5.3403,5.4909,5.4587,5.4376,5.4918,5.5062,5.5013,5.4736,5.334,5.2094,5.1293,4.9747,4.8564,4.7945,4.7909,4.8012,4.8212,4.8212,4.8345,4.8587,4.866,4.8532,4.8231,4.9103,4.9233,4.8695,4.8695,4.8744,4.8812,4.8812,4.8477,4.7988,4.8833,4.8795,4.8213,4.842,4.8908,4.9509,4.9509,4.9509,4.9396,4.8739,4.8495,4.8495,4.8495,4.8495,4.8626,4.9302,4.9509,4.9509,4.9509,4.9509,4.9509,4.9509,4.9509,4.9524,4.9536,4.9551,4.9578,4.9721,4.9882,5.0005,4.9922,5.0583,5.1204,5.1418,5.1478,5.154,5.1681,5.0264,4.8892,4.8012,4.7098,4.6285,4.5659,4.5696,4.5807,4.5906,4.5912,4.5322,4.3894,4.2986,4.2112,4.1238,4.1393,4.1315,4.0907,4.1102,4.1102,4.0907,4.0907,4.0907,4.0907,4.0903,4.0893,4.3806,4.4603,4.5278,4.5586,4.5615,4.6142,4.8312,4.7663,4.6794,4.7482,4.7029,4.6522,4.6576,4.8424,5.0602,5.2619,5.354,5.4378,5.5564,5.5681,5.5555,5.5295,5.5541,5.5334,5.4275,5.2975,5.1888,5.1077,4.9547,4.8606,4.8532,4.8532,4.855,4.8569,4.8569,4.8569,4.8605,4.8854,4.8837,4.8569,4.8642,4.8787,4.8957,4.8957,4.8698,4.8273,4.8273,4.7804,4.7162,4.795,4.8251,4.8269,4.9096,4.9434,4.9509,4.9509,4.9509,4.949,4.9434,4.9415,4.9415,4.9415,4.9415,4.9415,4.9471,4.9509,4.9509,4.9509,4.9509,4.9509,4.9509,4.9509,4.9521,4.9667,4.9678,4.9721,4.9857,5.0472,5.078,5.0031,5.065,5.1528,5.234,5.2609,5.2726,5.2861,5.1453,4.9845,4.8358,4.6885,4.5931,4.5873,4.5949,4.5986,4.5991,4.5991,4.5622,4.4753,4.3899,4.3025,4.2136,4.2889,4.2558,4.0927,4.1684,4.1704,4.0907,4.0907,4.0907,4.0907,4.0907,4.0903,4.3524,4.4346,4.5131,4.5184,4.5167,4.5737,4.8157,4.8249,4.8029,4.8836,4.9149,4.9297,4.9294,5.0872,5.2378,5.3127,5.3902,5.4549,5.4986,5.4621,5.4062,5.3437,5.3486,5.3214,5.2263,5.1278,5.0581,5.0267,4.9233,4.8605,4.8605,4.8605,4.8678,4.8837,4.8854,4.8959,4.9164,4.9262,4.9262,4.9164,4.9164,4.9214,4.9311,4.9311,4.8909,4.8194,4.8194,4.7443,4.6261,4.7105,4.7124,4.6768,4.8157,4.902,4.9509,4.9509,4.9509,4.9415,4.887,4.9039,4.9415,4.887,4.9058,4.9509,4.9509,4.9509,4.9509,4.9509,4.9567,4.9612,4.9521,4.9567,4.9638,4.9678,4.9759,5.0022,5.0702,5.107,5.1216,5.1002,5.1643,5.2023,5.1396,5.1798,5.2212,5.2358,5.1847,5.1038,4.9952,4.939,4.8449,4.6822,4.6257,4.6002,4.6002,4.6002,4.5866,4.5574,4.4773,4.3666,4.2252,4.3044,4.2675,4.0927,4.1767,4.1767,4.0907,4.0907,4.0907,4.0907,4.0907,4.0907,4.3458,4.4068,4.4714,4.502,4.5175,4.5908,4.8364,4.8767,4.8882,4.9954,5.0397,5.0619,5.0618,5.1725,5.2668,5.2786,5.3471,5.4047,5.4144,5.344,5.2678,5.2026,5.2028,5.1955,5.1583,5.0657,5.0191,5.0451,4.9467,4.889,4.889,4.889,4.8959,4.9162,4.9162,4.9262,4.9509,4.9509,4.9509,4.9509,4.9509,4.9509,4.949,4.9227,4.8626,4.78,4.7519,4.6617,4.5397,4.6242,4.6542,4.6636,4.8063,4.8964,4.9509,4.9509,4.9509,4.9415,4.8814,4.9002,4.9396,4.8795,4.9002,4.9524,4.9551,4.9567,4.9582,4.9608,4.9692,4.975,4.9653,4.9692,4.9759,4.9821,5.0107,5.0569,5.1307,5.1509,5.1551,5.1653,5.192,5.1883,5.1115,5.1462,5.1905,5.2033,5.205,5.1689,5.0654,5.0593,4.986,4.7786,4.7129,4.6715,4.6424,4.6404,4.6288,4.6021,4.5472,4.4404,4.2675,4.3452,4.2966,4.0946,4.1767,4.1767,4.0907,4.0907,4.0907,4.0907,4.0907,4.0907,4.3786,4.3912,4.4178,4.5241,4.5655,4.6492,4.9107,4.9141,4.9067,5.0674,5.036,4.9788,4.9806,5.0452,5.1101,5.1432,5.2174,5.2804,5.3134,5.2419,5.1776,5.1429,5.169,5.2078,5.2639,5.1482,5.1011,5.1818,5.041,4.9509,4.9509,4.9509,4.9509,4.9509,4.9509,4.9509,4.9509,4.9509,4.9509,4.949,4.949,4.949,4.9471,4.8589,4.7763,4.6955,4.6073,4.5247,4.4557,4.5359,4.6674,4.8251,4.9133,4.9471,4.949,4.9509,4.9509,4.9509,4.949,4.9509,4.9509,4.949,4.949,4.9521,4.9648,4.9692,4.9736,4.9871,4.9912,4.9893,4.9893,4.9893,4.9952,5.007,5.0767,5.1434,5.1596,5.1713,5.1813,5.1813,5.1212,5.0985,5.1845,5.198,5.2043,5.2175,5.221,5.1654,5.0122,4.9926,4.9576,4.8696,4.8599,4.825,4.7395,4.7317,4.6929,4.6079,4.6002,4.5244,4.3583,4.4345,4.3588,4.0985,4.1767,4.1786,4.0907,4.0907,4.0907,4.0907,4.0907,4.0907,4.4308,4.4801,4.5534,4.5902,4.6465,4.728,4.8618,4.923,4.9939,5.1466,5.0621,4.9753,5.0333,5.0632,5.0817,5.0935,5.1609,5.198,5.1518,5.1217,5.1032,5.0916,5.0494,5.0491,5.1232,5.0418,4.994,5.0185,4.9771,4.9509,4.9509,4.9509,4.9509,4.9509,4.9509,4.9509,4.9509,4.9509,4.9189,4.8589,4.8589,4.8908,4.9471,4.8589,4.7763,4.6955,4.6073,4.5247,4.4519,4.4759,4.5529,4.6647,4.745,4.8141,4.8794,4.9311,4.9509,4.9505,4.9608,4.9582,4.9521,4.9721,4.9721,4.9682,4.9802,4.9843,4.9857,4.9898,4.9978,5.0063,5.0155,5.0249,5.0313,5.0249,5.0987,5.1902,5.2635,5.282,5.2859,5.2859,5.2193,5.1552,5.1323,5.1301,5.1532,5.2246,5.2868,5.3094,5.262,5.1014,4.9809,4.9537,4.8968,4.8502,4.825,4.7699,4.7257,4.7004,4.6457,4.5626,4.4467,4.5259,4.4773,4.2772,4.2985,4.2693,4.1806,4.1199,4.0907,4.0907,4.0907,4.0907,4.4716,4.5388,4.6296,4.6669,4.7428,4.8282,4.9081,4.9846,5.0709,5.1873,5.0998,5.0202,5.0691,5.0767,5.0798,5.084,5.1273,5.139,5.0857,5.05,5.0281,5.0238,4.979,4.9809,5.0632,4.9959,4.9621,4.994,4.9678,4.9509,4.9509,4.9509,4.9509,4.9509,4.9509,4.934,4.8983,4.8983,4.8551,4.7725,4.7725,4.8037,4.8547,4.7623,4.6936,4.6467,4.6013,4.5345,4.4635,4.5362,4.5768,4.6074,4.6849,4.7711,4.8536,4.8984,4.9351,4.9663,4.975,4.9495,4.9229,4.973,4.9616,4.9353,4.9825,4.9992,4.9999,5.0107,5.0205,5.0279,5.0427,5.0519,5.0567,5.0489,5.1452,5.2464,5.2723,5.3095,5.3284,5.2936,5.2224,5.1544,5.1159,5.1075,5.127,5.1837,5.2368,5.295,5.3617,5.1791,5.0542,5.0858,4.9826,4.8982,4.8671,4.7879,4.7263,4.6936,4.6477,4.5944,4.5384,4.5527,4.4962,4.3571,4.3537,4.3113,4.2233,4.1703,4.1275,4.0941,4.1295,4.1451,4.5128,4.5799,4.6629,4.7512,4.8483,4.9404,5.013,5.0679,5.1192,5.179,5.133,5.082,5.082,5.082,5.0845,5.0969,5.0983,5.096,5.0835,5.0179,4.9701,4.9645,4.9574,4.9855,5.0664,5.0006,4.9837,5.0585,4.9949,4.9536,4.9536,4.9521,4.9468,4.9393,4.9377,4.8964,4.8101,4.8082,4.7702,4.6895,4.6895,4.693,4.6957,4.6088,4.5674,4.5613,4.5817,4.5449,4.4851,4.6493,4.6708,4.6082,4.6948,4.7782,4.8515,4.8577,4.9089,4.9779,4.9811,4.9229,4.8634,4.9527,4.928,4.8806,4.9829,5.0145,5.0188,5.0445,5.0527,5.0538,5.0678,5.0741,5.0722,5.0731,5.2063,5.3077,5.2208,5.2812,5.3278,5.2496,5.1716,5.1222,5.1299,5.126,5.1222,5.1299,5.126,5.1785,5.3384,5.2199,5.148,5.2199,5.0933,4.9737,4.8997,4.814,4.731,4.6495,4.6362,4.6284,4.6206,4.5446,4.4644,4.3841,4.3767,4.3338,4.2536,4.238,4.1932,4.1244,4.1971,4.2341,4.6069,4.6294,4.6838,4.8396,4.9412,5.0092,5.0264,5.0388,5.0475,5.0519,5.0304,5.0122,5.0122,5.0122,5.0117,5.0144,5.0163,5.0163,5.0122,4.9971,5.0089,5.0691,5.0199,5.0123,5.0955,5.0293,4.9891,5.0062,4.991,4.9816,4.9816,4.9707,4.9347,4.8654,4.8517,4.8082,4.7274,4.7256,4.6882,4.6129,4.6129,4.5889,4.5401,4.5617,4.5411,4.4917,4.506,4.5029,4.4896,4.5281,4.5392,4.5399,4.6107,4.6967,4.7877,4.8408,4.8729,4.8894,4.8992,4.8422,4.7839,4.8919,4.9041,4.8966,5.0087,5.0413,5.0455,5.0605,5.0652,5.0707,5.0898,5.0929,5.0952,5.1082,5.2293,5.3244,5.2478,5.3023,5.3599,5.3405,5.22,5.1396,5.2037,5.163,5.1416,5.2057,5.161,5.1552,5.2542,5.1806,5.1268,5.1443,5.118,5.0934,5.0758,4.9997,4.9142,4.8281,4.764,4.6989,4.6308,4.6055,4.5835,4.5634,4.4977,4.4529,4.4348,4.2965,4.2555,4.3023,4.2536,4.2672,4.5859,4.6476,4.7532,4.9251,4.9996,5.0302,5.0302,5.0302,5.0278,5.0219,4.9753,4.9378,4.9378,4.9378,4.9391,4.9505,4.9841,5.0082,4.9986,4.9644,4.9656,5.0429,4.9784,4.9614,5.0448,5.0144,4.9912,4.9912,4.95,4.9292,4.9292,4.8851,4.8394,4.794,4.7838,4.7433,4.6585,4.6566,4.6191,4.542,4.542,4.5237,4.4914,4.5179,4.5134,4.4833,4.5387,4.539,4.5029,4.5468,4.5479,4.5219,4.5582,4.6279,4.7125,4.7462,4.8123,4.8795,4.8436,4.7993,4.7748,4.8778,4.8796,4.8687,5.0071,5.0538,5.0634,5.0795,5.0835,5.0887,5.1055,5.1101,5.1121,5.119,5.2111,5.2751,5.1987,5.2484,5.295,5.2581,5.1804,5.1455,5.2251,5.2407,5.2271,5.1882,5.1804,5.1933,5.2389,5.1716,5.1376,5.1827,5.1187,5.0725,5.0725,4.9956,4.9289,4.8838,4.8049,4.7391,4.6944,4.6485,4.6258,4.6245,4.5789,4.5362,4.4955,4.4041,4.3612,4.3651,4.3612,4.3846,4.5468,4.6748,4.8372,4.9748,5.0206,5.0302,5.0302,5.0302,5.0264,5.013,4.9437,4.8838,4.8838,4.8724,4.8722,4.9049,4.9538,4.9885,4.9929,4.9181,4.8915,4.9669,4.913,4.9016,4.9884,4.9978,4.9903,4.977,4.9092,4.8624,4.8472,4.7814,4.7372,4.7233,4.7188,4.6758,4.5899,4.5899,4.5571,4.4931,4.4955,4.4967,4.4967,4.4967,4.4955,4.4969,4.5841,4.5803,4.5186,4.596,4.5908,4.5307,4.5307,4.5793,4.65,4.65,4.7417,4.8544,4.7837,4.7505,4.7537,4.8417,4.8391,4.8337,4.9885,5.0537,5.0784,5.0986,5.1034,5.1055,5.1159,5.1202,5.1202,5.1202,5.1707,5.2018,5.1338,5.1824,5.2193,5.1532,5.1416,5.163,5.229,5.2873,5.2801,5.1408,5.1764,5.2214,5.2286,5.1677,5.1525,5.2317,5.1148,5.031,5.031,4.9666,4.9189,4.9032,4.8406,4.7899,4.7606,4.6905,4.6456,4.63,4.63,4.5948,4.5226,4.5068,4.4719,4.4153,4.4738,4.5088,4.6156,4.7608,4.8976,4.9194,4.9786,5.0302,5.0302,5.0302,5.0092,4.9404,4.9144,4.9056,4.9056,4.8445,4.8197,4.8965,4.8563,4.838,4.9133,4.8483,4.8243,4.911,4.909,4.9358,5.0178,5.0255,4.9968,4.9262,4.909,4.8709,4.7953,4.7677,4.7248,4.6563,4.636,4.588,4.5066,4.5066,4.5069,4.5061,4.5192,4.5254,4.5254,4.5254,4.5181,4.5091,4.5347,4.5371,4.5275,4.5411,4.5403,4.5307,4.5307,4.5793,4.65,4.65,4.6653,4.6825,4.671,4.6289,4.5947,4.6762,4.7548,4.8381,4.9471,5.0348,5.0986,5.1134,5.1165,5.1184,5.1196,5.1202,5.1202,5.1202,5.128,5.1338,5.1222,5.1824,5.2368,5.2251,5.2232,5.2271,5.2387,5.1921,5.1453,5.1229,5.1298,5.1371,5.144,5.142,5.1421,5.1544,5.1355,5.1234,5.1234,5.1119,5.0731,4.9967,4.9831,4.9109,4.7664,4.7489,4.7061,4.63,4.63,4.6241,4.6124,4.5363,4.5324,4.5948,4.5304,4.5402,4.629,4.7054,4.7876,4.8861,4.9366,4.9748,5.0206,5.0302,5.0073,4.9282,4.8716,4.822,4.7723,4.7341,4.7207,4.757,4.7742,4.7922,4.8315,4.7627,4.7398,4.8277,4.7933,4.7971,4.8831,4.9347,4.927,4.843,4.8372,4.799,4.7131,4.6579,4.6156,4.5794,4.5711,4.5487,4.5125,4.5125,4.5159,4.5203,4.5275,4.5307,4.5307,4.5307,4.5275,4.5233,4.5256,4.5307,4.5307,4.5307,4.5307,4.5307,4.5307,4.5507,4.5831,4.5831,4.6162,4.6559,4.6099,4.609,4.6341,4.6698,4.7494,4.8488,4.9415,5.037,5.1128,5.119,5.1202,5.1202,5.1202,5.1202,5.1202,5.1202,5.1202,5.1202,5.1202,5.1474,5.1727,5.1727,5.2096,5.2251,5.1804,5.2236,5.2327,5.1342,5.1643,5.1834,5.1404,5.1385,5.14,5.1396,5.1408,5.1394,5.1394,5.1394,5.1238,5.0848,5.0377,4.9772,4.9031,4.8094,4.7627,4.7705,4.6788,4.63,4.63,4.5929,4.5929,4.628,4.5909,4.5929,4.6023,4.6347,4.6863,4.8391,4.8938,4.932,5.0111,5.0302,5.0073,4.9282,4.8411,4.7521,4.6672,4.6328,4.6271,4.6481,4.6882,4.7234,4.7444,4.6729,4.6519,4.7368,4.6901,4.6844,4.7712,4.8391,4.8411,4.754,4.7463,4.7101,4.6233,4.5621,4.5307,4.5307,4.5307,4.5307,4.5307,4.5307,4.5307,4.5307,4.5307,4.5307,4.5307,4.5307,4.5307,4.5307,4.5307,4.5307,4.5307,4.5307,4.5307,4.5307,4.5307,4.5328,4.535,4.535,4.5822,4.6356,4.576,4.6029,4.6685,4.6878,4.7625,4.8613,4.9497,5.0423,5.1202,5.1202,5.1202,5.1202,5.1202,5.1202,5.1202,5.1202,5.1202,5.1202,5.1202,5.1202,5.126,5.1474,5.1816,5.1964,5.1594,5.2435,5.2728,5.1438,5.1842,5.209,5.1481,5.1405,5.1394,5.1392,5.1394,5.1394,5.1394,5.1394,5.1394,5.1394,5.0789,5.0338,5.0104,4.8894,4.8406,4.8798,4.7569,4.6827,4.6632,4.6417,4.63,4.63,4.63,4.63,4.5364,4.5927,4.6729,4.7635,4.8487,4.932,5.0111,5.0302,5.0073,4.9282,4.8411,4.7521,4.6672,4.587,4.5602,4.6385,4.5908,4.5698,4.6462,4.587,4.566,4.6481,4.6538,4.6844,4.7712,4.7845,4.7502,4.6634,4.6577,4.6214,4.5422,4.5326,4.5307,4.5307,4.5307,4.5307,4.5307,4.5307,4.5307,4.5307,4.5307,4.5307,4.5307,4.5307,4.5307,4.5307,4.5307,4.5307,4.5307,4.5307,4.5307,4.5307,4.5307,4.538,4.5485,4.5485,4.5603,4.575,4.5692,4.5795,4.608,4.6835,4.7779,4.8749,4.9623,5.0503,5.1202,5.1202,5.1202,5.1202,5.1202,5.1202,5.1202,5.1202,5.1202,5.1202,5.1202,5.1202,5.1435,5.2193,5.1753,5.1517,5.2295,5.189,5.1425,5.1385,5.143,5.1442,5.141,5.1392,5.1392,5.1394,5.1394,5.1394,5.1394,5.1394,5.1394,5.1394,5.1355,5.0965,5.0124,5.0026,4.9597,4.8818,4.8701,4.8291,4.7528,4.669,4.63,4.63,4.63,4.63,4.5307,4.5507,4.5927,4.6768,4.7627,4.8356,4.8752,4.9654,4.9908,4.8058,4.7875,4.7635,4.625,4.5611,4.5392,4.5679,4.5488,4.5392,4.5679,4.5468,4.5411,4.5698,4.5736,4.5851,4.6175,4.6672,4.6615,4.5793,4.6214,4.6156,4.5345,4.5307,4.5307,4.5307,4.5307,4.5307,4.5307,4.5307,4.5307,4.5307,4.5307,4.5307,4.5307,4.5307,4.5307,4.5307,4.5307,4.5307,4.5307,4.5307,4.5307,4.5317,4.54,4.5457,4.5513,4.5601,4.5715,4.5819,4.5819,4.5893,4.6108,4.6956,4.7853,4.8755,4.9635,5.0503,5.1202,5.1202,5.1202,5.1202,5.1202,5.1202,5.1189,5.1189,5.1633,5.1896,5.1381,5.1225,5.1297,5.1569,5.1439,5.1354,5.1685,5.1526,5.1359,5.1391,5.1391,5.1406,5.1392,5.1394,5.1394,5.1394,5.1394,5.1394,5.1394,5.1394,5.1394,5.1394,5.1394,5.1258,5.0945,5.0397,5.0221,5.0457,4.9364,4.8408,4.7606,4.7295,4.6846,4.63,4.6866,4.7139,4.5307,4.5307,4.5564,4.6672,4.7139,4.7535,4.8215,4.8994,4.914,4.753,4.7468,4.7349,4.6232,4.5714,4.5429,4.5429,4.54,4.537,4.537,4.5338,4.5307,4.5307,4.5307,4.5307,4.5307,4.5774,4.587,4.5345,4.5793,4.5851,4.5326,4.5307,4.5307,4.5307,4.5307,4.5307,4.5307,4.5307,4.5307,4.5307,4.5307,4.5307,4.5307,4.5307,4.5307,4.5307,4.5307,4.5307,4.5307,4.5339,4.537,4.538,4.5513,4.5582,4.5651,4.5739,4.584,4.5931,4.5931,4.5953,4.6138,4.7026,4.79,4.8755,4.9635,5.0503,5.1202,5.1206,5.1192,5.1217,5.1238,5.1219,5.1307,5.1599,5.1881,5.2027,5.1784,5.1709,5.1589,5.1293,5.1292,5.1339,5.1339,5.1369,5.1408,5.1408,5.1403,5.1394,5.1394,5.1394,5.1394,5.1394,5.1394,5.1394,5.1394,5.1394,5.1394,5.1394,5.1394,5.1394,5.1394,5.0848,5.0809,5.1394,5.0262,4.9267,4.8445,4.7879,4.7295,4.6749,4.7332,4.7742,0.0,0.0,0.0,4.7322,4.7111,4.694,4.8613,4.8384,4.781,4.7753,4.7191,4.6695,4.6675,4.6138,4.5715,4.5715,4.5601,4.5504,4.5504,4.539,4.5307,4.5307,4.5307,4.5307,4.5307,4.5307,4.5307,4.5307,4.5307,4.5307,4.5307,4.5307,4.5307,4.5307,4.5307,4.5307,4.5307,4.5307,4.5307,4.5307,4.5307,4.5307,4.5307,4.5307,4.5307,4.5307,4.5307,4.5307,4.5317,4.5458,4.5504,4.5522,4.564,4.5783,4.59,4.59,4.5943,4.6002,4.6002,4.6021,4.6177,4.7065,4.7925,4.8799,4.966,5.0509,5.12,5.1176,5.1172,5.1225,5.1288,5.13,5.1515,5.2395,5.1947,5.1577,5.2458,5.2633,5.238,5.1519,5.1392,5.1433,5.1433,5.1418,5.1394,5.1394,5.1394,5.1394,5.1394,5.1394,5.1394,5.1394,5.1394,5.1394,5.1394,5.1394,5.1394,5.1394,5.1394,5.1394,5.1394,5.1394,5.1394,5.1394,5.1394,5.0965,5.0104,4.8465,4.7664,4.7645,4.7664,4.8115,4.5256,0.0,0.0,0.0,0.0,0.0,4.6502,4.7328,4.7748,4.6536,4.6656,4.6808,4.6228,4.5967,4.586,4.5917,4.5677,4.5504,4.5504,4.539,4.5307,4.5307,4.5307,4.5307,4.5307,4.5307,4.5307,4.5307,4.5307,4.5307,4.5307,4.5307,4.5307,4.5307,4.5307,4.5307,4.5307,4.5307,4.5307,4.5307,4.5307,4.5307,4.5307,4.5307,4.5307,4.5307,4.5409,4.5438,4.5438,4.5485,4.5566,4.5668,4.5791,4.5873,4.5906,4.596,4.598,4.6002,4.6002,4.6435,4.7164,4.802,4.89,4.9666,4.99,5.0581,5.1146,5.0516,5.0793,5.1284,5.1296,5.13,5.1522,5.2393,5.2415,5.248,5.3401,5.3618,5.334,5.2422,5.2286,5.2342,5.2342,5.182,5.1394,5.1394,5.1394,5.1394,5.1394,5.1394,5.1394,5.1394,5.1394,5.1394,5.1394,5.1394,5.1394,5.1394,5.1394,5.1394,5.1394,5.1394,5.1394,5.1394,5.1394,5.0965,5.0104,4.9636,4.907,4.8486,4.9109,4.987,4.5151,4.5265,4.5373,4.5717,0.0,0.0,4.5936,4.6186,4.627,4.5655,4.572,4.5854,4.5758,4.5819,4.5919,4.5955,4.5793,4.5651,4.5601,4.5467,4.5494,4.5766,4.5488,4.543,4.5774,4.5488,4.5307,4.5307,4.5307,4.5307,4.5307,4.5307,4.5307,4.5307,4.5307,4.5307,4.5307,4.5307,4.5307,4.5307,4.5307,4.5307,4.5307,4.536,4.539,4.539,4.5531,4.5627,4.5676,4.5676,4.5715,4.5791,4.5899,4.5943,4.5949,4.6026,4.6032,4.6056,4.6075,4.6433,4.7038,4.7875,4.8748,4.9527,4.9898,5.0618,5.1207,5.0715,5.0947,5.1346,5.1346,5.1346,5.1567,5.2425,5.235,5.2452,5.3715,5.401,5.3732,5.2823,5.2674,5.2587,5.2214,5.1746,5.1394,5.1394,5.1394,5.1394,5.1394,5.1394,5.1394,5.1394,5.1394,5.1394,5.1394,5.1394,5.1394,5.1394,5.1394,5.1394,5.1394,5.1394,5.1394,5.1394,5.1394,5.116,5.0631,5.028,4.9831,4.9364,5.0241,5.0906,4.4988,4.5181,4.5458,4.6175,4.5831,0.0,4.6194,4.5231,4.4381,4.5135,4.4806,4.46,4.5368,4.5731,4.59,4.5912,4.5912,4.588,4.5746,4.5676,4.5879,4.6479,4.5988,4.5882,4.6609,4.5918,4.543,4.543,4.5364,4.5307,4.5307,4.5307,4.5307,4.5307,4.5307,4.5239,4.5163,4.5239,4.5239,4.5163,4.5239,4.5317,4.5338,4.5458,4.5513,4.5531,4.5648,4.5791,4.5893,4.5925,4.5925,4.5925,4.5975,4.6007,4.6017,4.6084,4.6102,4.613,4.6185,4.6336,4.6612,4.7313,4.8213,4.9113,4.9698,5.0532,5.1319,5.1372,5.1399,5.1394,5.1394,5.1394,5.1648,5.2605,5.2175,5.2058,5.3893,5.4147,5.3776,5.2995,5.2841,5.2565,5.1687,5.1453,5.1394,5.1394,5.1394,5.1394,5.1394,5.1394,5.1394,5.1394,5.1394,5.1394,5.1394,5.1394,5.1394,5.1394,5.1394,5.1394,5.1394,5.1394,5.1394,5.1394,5.1394,5.1396,5.14,5.0614,5.0241,5.026,5.1047,5.14,4.4801,4.5125,4.5197,4.5466,4.5411,0.0,4.5488,4.5361,4.5228,4.529,4.536,4.5456,4.5629,4.5791,4.5925,4.5964,4.5975,4.5941,4.586,4.6306,4.6681,4.6801,4.7203,4.754,4.7693,4.6833,4.6271,4.6271,4.566,4.5307,4.5307,4.5307,4.5307,4.5307,4.5307,4.4953,4.4255,4.4953,4.4953,4.4255,4.4953,4.535,4.5457,4.5485,4.5566,4.5676,4.5798,4.5874,4.5908,4.6017,4.6037,4.598,4.6042,4.6084,4.6089,4.6154,4.6185,4.6189,4.6196,4.7116,4.8326,4.8482,4.9591,5.064,4.9411,5.0133,5.1381,5.1406,5.139,5.1394,5.1394,5.1394,5.1804,5.3366,5.3073,5.3112,5.5552,5.4986,5.3951,5.3776,5.3756,5.3463,5.2605,5.1863,5.1394,5.1394,5.1394,5.1394,5.1394,5.1394,5.1394,5.1394,5.1394,5.1394,5.1394,5.1394,5.1394,5.1394,5.1394,5.1394,5.1394,5.1394,5.1394,5.1394,5.1394,5.1407,5.1402,5.1229,5.116,5.1141,5.1318,5.1402,4.4365,4.49,4.5114,4.5181,4.5246,0.0,0.0,4.4689,4.4729,4.4668,4.4758,4.5003,4.5516,4.5715,4.5833,4.5937,4.5969,4.5997,4.6,4.6584,4.714,4.7502,4.7825,4.801,4.801,4.7084,4.6328,4.5927,4.5526,4.5307,4.5307,4.5307,4.5307,4.5307,4.5307,4.4876,4.4006,4.4437,4.4478,4.4106,4.4538,4.5045,4.561,4.5676,4.5742,4.5822,4.5941,4.6012,4.6041,4.6115,4.6134,4.6098,4.6142,4.615,4.6154,4.6193,4.6203,4.6206,4.6242,4.6821,4.7611,4.806,4.9064,5.0028,4.9579,5.036,5.1394,5.1394,5.1394,5.1394,5.1394,5.1394,5.1726,5.3034,5.3014,5.3309,5.5474,5.5279,5.4517,5.4088,5.401,5.358,5.2273,5.1687,5.1394,5.1394,5.1394,5.1394,5.1394,5.1394,5.1394,5.1394,5.1394,5.1394,5.1394,5.1394,5.1394,5.1394,5.1394,5.1394,5.1394,5.1394,5.1394,5.1394,5.1408,5.1398,5.1405,5.1404,5.1404,5.1404,5.1406,5.1406,4.3708,4.4291,4.4615,4.4996,4.5058,4.4914,0.0,0.0,0.0,4.4255,4.4266,4.4537,4.5342,4.5635,4.5718,4.5647,4.5844,4.5959,4.5855,4.6602,4.7385,4.7993,4.8056,4.8066,4.8057,4.7145,4.6188,4.5364,4.5309,4.5338,4.5307,4.5307,4.5307,4.5307,4.5307,4.4876,4.4006,4.4037,4.4078,4.4208,4.4235,4.4763,4.5746,4.5854,4.5917,4.5947,4.606,4.6154,4.6209,4.6209,4.6213,4.6219,4.6209,4.6209,4.6193,4.6206,4.6214,4.6238,4.6275,4.6417,4.6671,4.7372,4.8135,4.8954,4.9831,5.0592,5.118,5.1355,5.1394,5.1394,5.1394,5.1394,5.1668,5.2702,5.2958,5.3424,5.5162,5.5415,5.5083,5.4381,5.3971,5.3249,5.1668,5.1394,5.1394,5.1394,5.1394,5.1394,5.1394,5.1394,5.1394,5.1394,5.1394,5.1394,5.1394,5.1394,5.1394,5.1394,5.1394,5.1396,5.1403,5.1408,5.139,5.139,5.1403,5.1387,5.1366,5.1358,5.1372,5.1376,5.1372,5.1367,4.2641,4.284,4.2875,4.4646,4.462,4.4312,4.4991,0.0,4.5144,4.5144,0.0,4.5361,4.5475,0.0,0.0,4.486,4.5456,4.5745,4.5058,4.6333,4.7403,4.7473,4.8004,4.8333,4.8265,4.7295,4.6291,4.5375,4.5419,4.5438,4.5307,4.5307,4.5307,4.5307,4.5307,4.4876,4.4006,4.4116,4.4181,4.4208,4.4328,4.4889,4.588,4.5898,4.5952,4.6089,4.6154,4.6193,4.6203,4.6203,4.6236,4.6273,4.6211,4.6203,4.6206,4.6271,4.6298,4.6298,4.63,4.6807,4.7469,4.7567,4.8135,4.8954,4.9831,5.0163,5.0416,5.118,5.1394,5.1394,5.1394,5.1394,5.1804,5.3463,5.3854,5.4322,5.6079,5.5845,5.5259,5.5162,5.3895,5.2546,5.157,5.1394,5.1394,5.1394,5.1394,5.1394,5.1394,5.1394,5.1394,5.1394,5.1394,5.1394,5.1394,5.1394,5.1394,5.1394,5.1394,5.1407,5.1402,5.1406,5.1402,5.1402,5.1402,5.1348,5.1219,5.1213,5.1249,5.1318,5.1247,5.1213,4.1521,4.1893,4.2216,4.3749,4.3935,4.3907,4.4425,4.4934,4.5163,4.4647,0.0,0.0,0.0,0.0,0.0,0.0,4.5622,4.5825,4.5497,4.6144,4.6831,4.7334,4.8039,4.8186,4.7507,4.656,4.5802,4.5337,4.5409,4.5437,4.5317,4.5307,4.5307,4.5307,4.5307,4.4669,4.3378,4.3414,4.3541,4.3736,4.3783,4.461,4.6061,4.6065,4.6103,4.6167,4.6183,4.6226,4.6269,4.6269,4.6273,4.63,4.6271,4.6269,4.6269,4.6298,4.63,4.63,4.63,4.6534,4.7002,4.7978,4.8525,4.9052,5.0438,5.0848,5.0926,5.1297,5.1394,5.1394,5.1394,5.1394,5.1843,5.36,5.401,5.4478,5.6216,5.6313,5.5903,5.5396,5.4303,5.3171,5.2292,5.1726,5.1394,5.1394,5.1394,5.1394,5.1394,5.1394,5.1394,5.1394,5.1394,5.1394,5.1394,5.1409,5.1396,5.1396,5.1834,5.2109,5.2108,5.2546,5.2553,5.2048,5.2501,5.246,5.1896,5.1891,5.1619,5.1138,5.1138,5.1142,4.0508,4.0843,4.1288,4.2884,4.3209,4.331,4.4059,4.4533,4.4745,4.4416,4.4666,0.0,0.0,0.0,4.5454,4.5307,0.0,4.577,4.5572,4.5847,4.6325,4.6982,4.7512,4.7501,4.666,4.6,4.5576,4.5419,4.5539,4.5555,4.541,4.5419,4.5419,4.5419,4.5419,4.4853,4.3684,4.3242,4.3257,4.3732,4.354,4.4299,4.5845,4.6089,4.6206,4.6209,4.6216,4.6267,4.63,4.63,4.63,4.63,4.63,4.63,4.63,4.63,4.63,4.63,4.63,4.63,4.6534,4.7998,4.8623,4.9072,5.0594,5.1219,5.1394,5.1394,5.1394,5.1394,5.1394,5.1394,5.1843,5.36,5.3815,5.4186,5.6177,5.6216,5.5845,5.5689,5.4576,5.3526,5.3123,5.2142,5.1396,5.1405,5.1407,5.1408,5.1395,5.1395,5.1395,5.1395,5.1395,5.1395,5.1395,5.16,5.1816,5.203,5.2605,5.2921,5.2895,5.3468,5.3488,5.2844,5.3394,5.3379,5.2727,5.2484,5.2007,5.1317,5.114,5.1063,3.9632,3.9433,3.9552,4.2319,4.2481,4.2447,4.4335,4.4187,4.3973,4.5044,4.4609,4.4303,4.5154,4.54,4.5226,4.4372,4.5079,0.0,0.0,4.5424,4.6067,4.6217,4.6144,4.6067,4.6037,4.5988,4.5892,4.5703,4.5815,4.5835,4.5688,4.5692,4.5692,4.5692,4.5692,4.5653,4.5603,4.4066,4.3718,4.4544,4.3903,4.4069,4.4965,4.5822,4.6206,4.6209,4.6271,4.63,4.63,4.63,4.63,4.63,4.63,4.63,4.63,4.63,4.63,4.63,4.63,4.63,4.6456,4.7354,4.8174,4.8974,4.987,5.0729,5.1394,5.1394,5.1394,5.1394,5.1394,5.1394,5.1843,5.36,5.3366,5.3444,5.604,5.5279,5.4576,5.6235,5.4498,5.3004,5.3823,5.2543,5.1403,5.1403,5.1404,5.1406,5.1401,5.1399,5.1399,5.1399,5.1399,5.1399,5.1399,5.2101,5.2895,5.3674,5.3754,5.3724,5.3677,5.3683,5.3695,5.3656,5.3689,5.3657,5.357,5.2717,5.2247,5.2132,5.1356,5.0961,3.8715,3.8697,3.9087,4.1364,4.1785,4.2016,4.3425,4.3528,4.3492,4.4072,4.3946,4.4067,4.5104,4.5348,4.5264,4.4977,4.5284,4.5486,0.0,4.5653,4.6048,4.6178,4.6086,4.6006,4.599,4.5479,4.5313,4.5731,4.535,4.5302,4.5731,4.5764,4.5756,4.5706,4.5736,4.5221,4.4111,4.3629,4.3285,4.3143,4.2902,4.3258,4.4131,4.5018,4.541,4.543,4.6044,4.63,4.63,4.63,4.63,4.63,4.63,4.63,4.63,4.63,4.63,4.63,4.63,4.63,4.6534,4.7939,4.8584,4.9072,5.0516,5.118,5.1394,5.1394,5.1394,5.1394,5.1394,5.1394,5.1687,5.2858,5.3366,5.3957,5.536,5.5655,5.5658,5.5664,5.4492,5.3418,5.3182,5.2168,5.1406,5.1405,5.1404,5.1403,5.1399,5.1398,5.1398,5.1398,5.1398,5.1376,5.1346,5.203,5.3085,5.4504,5.4591,5.4589,5.4566,5.5035,5.5033,5.4502,5.4975,5.4955,5.4389,5.3526,5.2794,5.219,5.1335,5.0929,3.829,3.8354,3.8789,4.0425,4.088,4.1308,4.2693,4.2801,4.2798,4.3464,4.3592,4.3757,4.431,4.4895,4.5201,4.4895,4.5178,4.5448,0.0,4.5803,4.6026,4.6178,4.6134,4.6096,4.6063,4.5586,4.5457,4.5915,4.5507,4.5441,4.5915,4.5949,4.5908,4.5875,4.5928,4.5429,4.4331,4.3759,4.325,4.2812,4.2549,4.2698,4.3274,4.4465,4.499,4.5049,4.5929,4.63,4.63,4.63,4.63,4.63,4.63,4.63,4.63,4.63,4.63,4.63,4.63,4.6495,4.6983,4.8369,4.9013,4.954,5.0965,5.1394,5.1394,5.1394,5.1394,5.1394,5.1394,5.1402,5.1702,5.2874,5.3113,5.355,5.5293,5.5371,5.5136,5.519,5.4249,5.3271,5.2757,5.1935,5.1369,5.1369,5.1369,5.1481,5.1783,5.1813,5.1786,5.1789,5.1779,5.1862,5.2132,5.2864,5.3911,5.5307,5.5397,5.5384,5.5356,5.5816,5.5823,5.5292,5.5766,5.5741,5.5219,5.4058,5.3207,5.2627,5.1447,5.0898]}]]